[[{"header":{"parameterUnit":"m.s-1","parameterCategory":1,"la1":30.6,"la2":29.2853,"lo1":-89.7004,"lo2":-87.6739,"dy":0.0162,"dx":0.0183,"nx":112,"ny":82,"refTime":"2023-11-04T18:00:00:Z","depth":0,"parameterNumber":2,"parameterNumberName":"U-component_of_WINDS"},"data":[0.0,0.0,0.0,0.0,0.0,0.0,0.0,0.0,0.0,0.0,0.0,0.0,0.0,0.0,0.0,0.0,0.0,0.0,0.0,0.0,0.0,0.0,0.0,0.0,0.0,0.0,0.0,0.0,0.0,0.0,0.0,0.0,0.0,0.0,0.0,0.0,0.0,0.0,0.0,0.0,0.0,0.0,0.0,0.0,0.0,0.0,0.0,0.0,0.0,0.0,0.0,0.0,0.0,0.0,0.0,0.0,0.0,0.0,0.0,0.0,0.0,0.0,0.0,0.0,0.0,0.0,0.0,0.0,0.0,0.0,0.0,0.0,0.0,0.0,0.0,0.0,0.0,0.0,0.0,0.0,0.0,0.0,0.0,0.0,0.0,0.0,0.0,0.0,0.0,0.0,-3.2795,-3.2545,-3.125,-3.0404,-3.0404,-3.0404,-3.0404,-3.0404,0.0,0.0,0.0,0.0,0.0,0.0,0.0,0.0,0.0,0.0,0.0,0.0,0.0,0.0,0.0,0.0,0.0,0.0,0.0,0.0,0.0,0.0,0.0,0.0,0.0,0.0,0.0,0.0,0.0,0.0,0.0,0.0,0.0,0.0,0.0,0.0,0.0,0.0,0.0,0.0,0.0,0.0,0.0,0.0,0.0,0.0,0.0,0.0,0.0,0.0,0.0,0.0,0.0,0.0,0.0,0.0,0.0,0.0,0.0,0.0,0.0,0.0,0.0,0.0,0.0,0.0,0.0,0.0,0.0,0.0,0.0,0.0,0.0,0.0,0.0,0.0,0.0,0.0,0.0,0.0,0.0,0.0,0.0,0.0,0.0,0.0,0.0,0.0,0.0,0.0,0.0,0.0,0.0,0.0,0.0,0.0,0.0,0.0,0.0,0.0,0.0,0.0,0.0,0.0,-3.2352,-3.0923,-3.0558,-3.0404,-3.0404,-3.0404,-3.0404,-3.0404,0.0,0.0,0.0,0.0,0.0,0.0,0.0,0.0,0.0,0.0,0.0,0.0,0.0,0.0,0.0,0.0,0.0,0.0,0.0,0.0,0.0,0.0,0.0,0.0,0.0,0.0,0.0,0.0,0.0,0.0,0.0,0.0,0.0,0.0,0.0,0.0,0.0,0.0,0.0,0.0,0.0,0.0,0.0,0.0,0.0,0.0,0.0,0.0,0.0,0.0,0.0,0.0,0.0,0.0,0.0,0.0,0.0,0.0,0.0,0.0,0.0,0.0,0.0,0.0,0.0,0.0,0.0,0.0,0.0,0.0,0.0,0.0,0.0,0.0,0.0,0.0,0.0,0.0,0.0,0.0,0.0,0.0,0.0,0.0,0.0,0.0,0.0,0.0,0.0,0.0,0.0,0.0,0.0,0.0,0.0,0.0,0.0,0.0,0.0,0.0,0.0,0.0,0.0,-3.3726,-3.2449,-3.1231,-3.0673,-3.0404,-3.0404,-3.0404,-3.0404,-3.0404,-3.0404,0.0,0.0,0.0,0.0,0.0,0.0,0.0,0.0,0.0,0.0,0.0,0.0,0.0,0.0,0.0,0.0,0.0,0.0,0.0,0.0,0.0,0.0,0.0,0.0,0.0,0.0,0.0,0.0,0.0,0.0,0.0,0.0,0.0,0.0,0.0,0.0,0.0,0.0,0.0,0.0,0.0,0.0,0.0,0.0,0.0,0.0,0.0,0.0,0.0,0.0,0.0,0.0,0.0,0.0,0.0,0.0,0.0,0.0,0.0,0.0,0.0,0.0,0.0,0.0,0.0,0.0,0.0,0.0,0.0,0.0,0.0,0.0,0.0,0.0,0.0,0.0,0.0,0.0,0.0,0.0,0.0,0.0,0.0,0.0,0.0,0.0,0.0,0.0,0.0,0.0,0.0,0.0,0.0,0.0,0.0,0.0,0.0,0.0,0.0,0.0,0.0,0.0,-3.3645,-3.2891,-3.2064,-3.1212,-3.0712,-3.0712,-3.0519,-3.0404,-3.0404,-3.0404,0.0,0.0,0.0,0.0,0.0,0.0,0.0,0.0,0.0,0.0,0.0,0.0,0.0,0.0,0.0,0.0,0.0,0.0,0.0,0.0,0.0,0.0,0.0,0.0,0.0,0.0,0.0,0.0,0.0,0.0,0.0,0.0,0.0,0.0,0.0,0.0,0.0,0.0,0.0,0.0,0.0,0.0,0.0,0.0,0.0,0.0,0.0,0.0,0.0,0.0,0.0,0.0,0.0,0.0,0.0,0.0,0.0,0.0,0.0,0.0,0.0,0.0,0.0,0.0,0.0,0.0,0.0,0.0,0.0,0.0,0.0,0.0,0.0,0.0,0.0,0.0,0.0,0.0,0.0,0.0,0.0,0.0,0.0,0.0,0.0,0.0,0.0,0.0,0.0,0.0,0.0,0.0,0.0,0.0,0.0,0.0,0.0,0.0,0.0,0.0,0.0,0.0,-3.4154,-3.3782,-3.291,-3.2083,-3.1621,-3.1621,-3.0865,-3.0404,-3.0404,-3.0404,0.0,0.0,0.0,0.0,0.0,0.0,0.0,0.0,0.0,0.0,0.0,0.0,0.0,0.0,0.0,0.0,0.0,0.0,0.0,0.0,0.0,0.0,0.0,0.0,0.0,0.0,0.0,0.0,0.0,0.0,0.0,0.0,0.0,0.0,0.0,0.0,0.0,0.0,0.0,0.0,0.0,0.0,0.0,0.0,0.0,0.0,0.0,0.0,0.0,0.0,0.0,0.0,0.0,0.0,0.0,0.0,0.0,0.0,0.0,0.0,0.0,0.0,0.0,0.0,0.0,0.0,0.0,0.0,0.0,0.0,0.0,0.0,0.0,0.0,0.0,0.0,0.0,0.0,0.0,0.0,0.0,0.0,0.0,0.0,0.0,0.0,0.0,0.0,0.0,0.0,0.0,0.0,0.0,0.0,0.0,0.0,0.0,0.0,0.0,0.0,0.0,0.0,-3.4558,-3.4071,-3.3744,-3.2949,-3.2256,-3.1737,-3.141,-3.0981,-3.0423,0.0,0.0,0.0,0.0,0.0,0.0,0.0,0.0,0.0,0.0,0.0,0.0,0.0,0.0,0.0,0.0,0.0,0.0,0.0,0.0,0.0,0.0,0.0,0.0,0.0,0.0,0.0,0.0,0.0,0.0,0.0,0.0,0.0,0.0,0.0,0.0,0.0,0.0,0.0,0.0,0.0,0.0,0.0,0.0,0.0,0.0,0.0,0.0,0.0,0.0,0.0,0.0,0.0,0.0,0.0,0.0,0.0,0.0,0.0,0.0,0.0,0.0,0.0,0.0,0.0,0.0,0.0,0.0,0.0,0.0,0.0,0.0,0.0,0.0,0.0,0.0,0.0,0.0,0.0,0.0,0.0,0.0,0.0,0.0,0.0,0.0,0.0,0.0,0.0,0.0,0.0,0.0,0.0,0.0,0.0,0.0,0.0,0.0,0.0,0.0,0.0,0.0,-3.5568,-3.5001,-3.4603,-3.4603,-3.3833,-3.2987,-3.216,-3.1852,-3.1327,-3.0462,0.0,0.0,0.0,0.0,0.0,0.0,0.0,0.0,0.0,0.0,0.0,0.0,0.0,0.0,0.0,0.0,0.0,0.0,0.0,0.0,0.0,0.0,0.0,0.0,0.0,0.0,0.0,0.0,0.0,0.0,0.0,0.0,0.0,0.0,0.0,0.0,0.0,0.0,0.0,0.0,0.0,0.0,0.0,0.0,0.0,0.0,0.0,0.0,0.0,0.0,0.0,0.0,0.0,0.0,0.0,0.0,0.0,0.0,0.0,0.0,0.0,0.0,0.0,0.0,0.0,0.0,0.0,0.0,0.0,0.0,0.0,0.0,0.0,0.0,0.0,0.0,0.0,0.0,0.0,0.0,0.0,0.0,0.0,0.0,0.0,0.0,0.0,0.0,0.0,0.0,0.0,0.0,0.0,0.0,0.0,0.0,0.0,0.0,0.0,0.0,0.0,0.0,-3.5501,-3.55,-3.55,-3.55,-3.4737,-3.3859,-3.2987,-3.2179,-3.1346,0.0,0.0,0.0,0.0,0.0,0.0,0.0,0.0,0.0,0.0,0.0,0.0,0.0,0.0,0.0,0.0,0.0,0.0,0.0,0.0,0.0,0.0,0.0,0.0,0.0,0.0,0.0,0.0,0.0,0.0,0.0,0.0,0.0,0.0,0.0,0.0,0.0,0.0,0.0,0.0,0.0,0.0,0.0,0.0,0.0,0.0,0.0,0.0,0.0,0.0,0.0,0.0,0.0,0.0,0.0,0.0,0.0,0.0,0.0,0.0,0.0,0.0,0.0,0.0,0.0,0.0,0.0,0.0,0.0,0.0,0.0,0.0,0.0,0.0,0.0,0.0,0.0,0.0,0.0,0.0,0.0,0.0,0.0,0.0,0.0,0.0,0.0,0.0,0.0,0.0,0.0,0.0,0.0,0.0,0.0,0.0,0.0,0.0,0.0,0.0,0.0,0.0,0.0,-3.5507,-3.55,-3.55,-3.55,-3.5269,-3.4757,-3.3898,-3.3045,-3.2199,-3.1371,0.0,0.0,0.0,0.0,0.0,0.0,0.0,0.0,0.0,0.0,0.0,0.0,0.0,0.0,0.0,0.0,0.0,0.0,0.0,0.0,0.0,0.0,0.0,0.0,0.0,0.0,0.0,0.0,0.0,0.0,0.0,0.0,0.0,0.0,0.0,0.0,0.0,0.0,0.0,0.0,0.0,0.0,0.0,0.0,0.0,0.0,0.0,0.0,0.0,0.0,0.0,0.0,0.0,0.0,0.0,0.0,0.0,0.0,0.0,0.0,0.0,0.0,0.0,0.0,0.0,0.0,0.0,0.0,0.0,0.0,0.0,0.0,0.0,0.0,0.0,0.0,0.0,0.0,0.0,0.0,0.0,0.0,0.0,0.0,0.0,0.0,0.0,0.0,0.0,0.0,0.0,0.0,0.0,0.0,0.0,0.0,0.0,0.0,0.0,0.0,0.0,0.0,-3.55,-3.55,-3.55,-3.55,-3.55,-3.5154,-3.4263,-3.3725,-3.2929,-3.1775,0.0,0.0,0.0,0.0,0.0,0.0,0.0,0.0,0.0,0.0,0.0,0.0,0.0,0.0,0.0,0.0,0.0,0.0,0.0,0.0,0.0,0.0,0.0,0.0,0.0,0.0,0.0,0.0,0.0,0.0,0.0,0.0,0.0,0.0,0.0,0.0,0.0,0.0,0.0,0.0,0.0,0.0,0.0,0.0,0.0,0.0,0.0,0.0,0.0,0.0,0.0,0.0,0.0,0.0,0.0,0.0,0.0,0.0,0.0,0.0,0.0,0.0,0.0,0.0,0.0,0.0,0.0,0.0,0.0,0.0,0.0,0.0,0.0,0.0,0.0,0.0,0.0,0.0,0.0,0.0,0.0,0.0,0.0,0.0,0.0,0.0,0.0,0.0,0.0,0.0,0.0,0.0,0.0,0.0,0.0,0.0,0.0,0.0,0.0,0.0,0.0,0.0,-3.55,-3.55,-3.55,-3.55,-3.55,-3.5173,-3.4398,-3.4244,-3.3551,-3.2025,0.0,0.0,0.0,0.0,0.0,0.0,0.0,0.0,0.0,0.0,0.0,0.0,0.0,0.0,0.0,0.0,0.0,0.0,0.0,0.0,0.0,0.0,0.0,0.0,0.0,0.0,0.0,0.0,0.0,0.0,0.0,0.0,0.0,0.0,0.0,0.0,0.0,0.0,0.0,0.0,0.0,0.0,0.0,0.0,0.0,0.0,0.0,0.0,0.0,0.0,0.0,0.0,0.0,0.0,0.0,0.0,0.0,0.0,0.0,0.0,-3.8565,0.0,0.0,0.0,0.0,0.0,0.0,0.0,0.0,0.0,0.0,0.0,0.0,0.0,0.0,0.0,0.0,0.0,0.0,0.0,0.0,0.0,0.0,0.0,0.0,0.0,0.0,0.0,0.0,0.0,0.0,0.0,0.0,0.0,0.0,0.0,0.0,0.0,0.0,0.0,0.0,0.0,-3.55,-3.55,-3.55,-3.55,-3.55,-3.5423,-3.5231,-3.4584,-3.4052,-3.3686,-3.2429,0.0,0.0,0.0,0.0,0.0,0.0,0.0,0.0,0.0,0.0,0.0,0.0,0.0,0.0,0.0,0.0,0.0,0.0,0.0,0.0,0.0,0.0,0.0,0.0,0.0,0.0,0.0,0.0,0.0,0.0,0.0,0.0,0.0,0.0,0.0,0.0,0.0,0.0,0.0,0.0,0.0,0.0,0.0,0.0,0.0,0.0,0.0,0.0,0.0,0.0,0.0,0.0,0.0,0.0,0.0,0.0,0.0,0.0,0.0,0.0,-3.92,0.0,0.0,0.0,0.0,0.0,0.0,0.0,0.0,0.0,0.0,0.0,0.0,0.0,0.0,0.0,0.0,0.0,0.0,0.0,0.0,0.0,0.0,0.0,0.0,0.0,0.0,0.0,0.0,0.0,0.0,0.0,0.0,0.0,0.0,0.0,0.0,0.0,0.0,0.0,0.0,-3.55,-3.55,-3.55,-3.55,-3.55,-3.55,-3.55,-3.5084,-3.4641,-3.4225,-3.3372,0.0,0.0,0.0,0.0,0.0,0.0,0.0,0.0,0.0,0.0,0.0,0.0,0.0,0.0,0.0,0.0,0.0,0.0,0.0,0.0,0.0,0.0,0.0,0.0,0.0,0.0,0.0,0.0,0.0,0.0,0.0,0.0,0.0,0.0,0.0,0.0,0.0,0.0,0.0,0.0,0.0,0.0,0.0,0.0,0.0,0.0,0.0,0.0,0.0,0.0,0.0,0.0,0.0,-4.1681,-4.2019,-4.2038,-4.2777,-4.3104,-4.3028,-4.1593,-4.0881,-4.0708,-4.0554,0.0,0.0,0.0,0.0,0.0,0.0,0.0,0.0,0.0,0.0,0.0,0.0,0.0,0.0,0.0,0.0,0.0,0.0,0.0,0.0,0.0,0.0,0.0,0.0,-3.6423,-3.5942,-3.5942,0.0,0.0,0.0,0.0,0.0,0.0,0.0,0.0,0.0,0.0,0.0,-3.5923,-3.5942,-3.5942,-3.5942,-3.5942,-3.5865,-3.5712,-3.5712,-3.5346,-3.4468,-3.4282,-3.3878,0.0,0.0,0.0,0.0,0.0,0.0,0.0,0.0,0.0,0.0,0.0,0.0,0.0,0.0,0.0,0.0,0.0,0.0,0.0,0.0,0.0,0.0,0.0,0.0,0.0,0.0,0.0,0.0,0.0,0.0,0.0,0.0,-4.0208,-4.0323,0.0,0.0,0.0,0.0,0.0,0.0,0.0,0.0,0.0,0.0,0.0,0.0,0.0,-4.2758,-4.2758,-4.2758,-4.2758,-4.2758,-4.2874,-4.2931,-4.2931,-4.3047,-4.3104,-4.3085,-4.2854,0.0,-4.1566,-4.0804,0.0,0.0,0.0,0.0,0.0,0.0,0.0,0.0,0.0,0.0,0.0,0.0,0.0,0.0,0.0,0.0,0.0,0.0,0.0,0.0,0.0,0.0,-3.7834,-3.7834,-3.7757,-3.7661,0.0,-3.6519,-3.55,-3.55,-3.55,0.0,0.0,0.0,0.0,0.0,0.0,0.0,-3.7565,-3.7661,-3.7661,-3.7661,-3.7661,-3.7353,-3.6615,-3.6538,-3.6192,-3.5385,-3.4622,-3.4148,-3.4032,-3.3199,0.0,0.0,0.0,0.0,0.0,0.0,0.0,0.0,0.0,0.0,0.0,0.0,0.0,0.0,0.0,0.0,0.0,0.0,0.0,0.0,0.0,0.0,0.0,0.0,0.0,0.0,0.0,0.0,0.0,-4.0496,-4.0496,-4.0496,-4.0496,-4.0496,0.0,0.0,0.0,0.0,0.0,0.0,0.0,0.0,0.0,-4.2527,-4.2893,-4.3104,-4.3104,-4.3104,-4.3104,-4.3104,-4.3566,-4.3778,-4.3797,-4.4278,-4.4509,-4.447,-4.3989,-4.3566,-4.3143,-4.2316,-4.195,-4.195,0.0,0.0,0.0,0.0,-4.195,-4.195,-4.195,-4.195,-4.195,-4.195,0.0,0.0,0.0,0.0,0.0,0.0,0.0,0.0,0.0,0.0,-4.0142,-4.0142,-3.9411,-3.8719,-3.8719,-3.7777,-3.6911,0.0,-3.6911,-3.6911,-3.6911,0.0,0.0,0.0,0.0,-3.7565,-3.795,-3.8007,-3.8007,-3.8007,-3.8007,-3.7853,-3.7469,-3.743,-3.7065,-3.6231,-3.5815,-3.5391,-3.4949,-3.4083,-3.3449,0.0,0.0,0.0,0.0,0.0,0.0,0.0,0.0,0.0,0.0,0.0,0.0,0.0,0.0,0.0,0.0,0.0,0.0,0.0,0.0,0.0,0.0,0.0,0.0,0.0,0.0,0.0,0.0,-4.0496,-4.0573,-4.0804,-4.0835,-4.092,0.0,0.0,0.0,0.0,0.0,0.0,-4.3066,-4.3297,-4.3412,-4.3412,-4.3624,-4.3855,-4.4066,-4.4066,-4.4182,-4.4393,-4.4989,-4.5278,-4.5297,-4.5932,-4.624,-4.6182,-4.5336,-4.497,-4.4874,-4.3624,-4.3104,-4.3104,-4.3104,-4.3104,-4.3104,-4.3104,-4.3104,-4.3104,-4.3104,-4.3104,-4.3104,-4.3104,-4.3104,-4.3104,-4.3104,0.0,0.0,0.0,0.0,-4.3104,-4.3104,-4.2624,-4.2143,-4.2143,-4.1181,-4.0258,-4.0258,-3.9758,-3.9046,0.0,-3.8007,-3.8007,-3.8007,0.0,0.0,0.0,0.0,-3.8411,-3.8604,-3.8642,-3.8642,-3.8642,-3.8642,-3.8565,-3.8354,-3.8334,-3.7969,-3.7084,-3.6827,-3.6423,-3.5827,-3.4988,-3.443,-3.4205,0.0,0.0,0.0,0.0,0.0,0.0,0.0,0.0,0.0,0.0,0.0,0.0,0.0,0.0,0.0,0.0,0.0,0.0,0.0,0.0,0.0,0.0,0.0,0.0,0.0,0.0,0.0,0.0,0.0,-4.1643,-4.1731,0.0,0.0,0.0,0.0,-4.3028,-4.3028,-4.3047,-4.3104,-4.3816,-4.4239,-4.4239,-4.5037,-4.5874,-4.6692,-4.6712,-4.7086,-4.7855,-4.7894,-4.7913,-4.7913,-4.7952,-4.7971,-4.7932,-4.7124,-4.6769,-4.6577,-4.4105,-4.3104,-4.3104,-4.3104,-4.3104,-4.3104,-4.3104,-4.3104,-4.3104,-4.3104,-4.3104,-4.3104,-4.3104,-4.3104,-4.3104,-4.3104,-4.3104,0.0,0.0,-4.3104,-4.3104,-4.3104,-4.3066,-4.3028,-4.3028,-4.297,-4.2912,-4.2912,-4.2874,-4.1873,0.0,-3.8007,-3.8007,-3.8007,0.0,-3.8277,-3.9111,-3.9227,-3.9515,-4.0285,-4.0362,-4.0362,-4.0362,-4.0362,-4.0054,-3.9304,-3.9227,-3.8854,-3.7988,-3.7161,-3.6673,-3.6635,-3.5865,-3.5045,-3.4225,-3.4167,0.0,0.0,0.0,0.0,0.0,0.0,0.0,0.0,0.0,0.0,0.0,0.0,0.0,0.0,0.0,0.0,0.0,0.0,0.0,0.0,0.0,0.0,0.0,0.0,0.0,0.0,0.0,0.0,-4.2527,-4.2643,0.0,-4.3066,-4.3104,-4.3316,-4.3835,-4.4393,-4.4951,-4.5528,-4.6317,-4.6759,-4.6759,-4.7048,-4.7355,-4.7682,-4.7682,-4.7817,-4.8105,-4.8105,-4.8105,-4.8105,-4.8105,-4.8105,-4.8086,-4.7798,-4.7682,-4.7605,-4.6701,-4.5682,-4.471,-4.471,-4.471,-4.471,-4.471,-4.471,-4.471,-4.471,-4.471,-4.471,-4.471,-4.471,-4.471,-4.471,-4.471,-4.471,-4.471,-4.471,-4.471,-4.471,-4.471,-4.471,-4.471,-4.4278,-4.3874,-4.3874,-4.347,-4.2739,-4.1527,-4.1277,-4.1104,-4.0546,-4.045,-4.0354,-4.0112,-4.0073,-4.0189,-4.0458,-4.0496,-4.0496,-4.0496,-4.0496,-4.0381,-4.0092,-4.0073,-3.9727,-3.8892,-3.8546,-3.8123,-3.7565,-3.6712,-3.6135,-3.5815,-3.5295,-3.4603,0.0,0.0,0.0,0.0,0.0,0.0,0.0,0.0,0.0,0.0,0.0,0.0,0.0,0.0,0.0,0.0,0.0,0.0,0.0,0.0,0.0,0.0,0.0,0.0,0.0,-4.2038,-4.2547,-4.3393,-4.3508,-4.3739,-4.4316,-4.4374,-4.472,-4.5528,-4.6124,-4.6701,-4.7278,-4.7817,-4.8105,-4.8105,-4.8105,-4.824,-4.8548,-4.8548,-4.8682,-4.8971,-4.8971,-4.8971,-4.8971,-4.8971,-4.8971,-4.8952,-4.8663,-4.8548,-4.8529,-4.8221,-4.7451,-4.6432,-4.6432,-4.6432,-4.6432,-4.6432,-4.6432,-4.6394,-4.6124,-4.6028,-4.599,-4.571,-4.5594,-4.5594,-4.5594,-4.5594,-4.5594,-4.5594,-4.5594,-4.5594,-4.5594,-4.5594,-4.5594,-4.5594,-4.5171,-4.4739,-4.4739,-4.4316,-4.3932,-4.3932,-4.3489,-4.2912,-4.2335,-4.2239,-4.2047,-4.145,-4.1381,-4.1381,-4.1381,-4.1381,-4.1381,-4.1381,-4.1104,-4.0931,-4.0931,-4.0669,-4.0265,-3.9746,-3.9457,-3.9034,-3.845,-3.7603,-3.7142,-3.7142,-3.6327,-3.5481,-3.4641,0.0,0.0,0.0,0.0,0.0,0.0,0.0,0.0,0.0,0.0,0.0,0.0,0.0,0.0,0.0,0.0,0.0,0.0,0.0,0.0,0.0,0.0,0.0,-4.2,-4.2604,-4.3451,-4.4278,-4.4374,-4.5047,-4.6769,-4.6942,-4.725,-4.8048,-4.8144,-4.8182,-4.8182,-4.824,-4.8259,-4.8259,-4.8259,-4.8663,-4.951,-4.951,-4.9933,-5.0789,-5.0789,-5.077,-5.075,-5.075,-5.0731,-5.0654,-4.9798,-4.9433,-4.9375,-4.8529,-4.8182,-4.8182,-4.8125,-4.8105,-4.8105,-4.8105,-4.8105,-4.799,-4.7212,-4.6942,-4.6797,-4.5951,-4.5691,-4.5691,-4.5691,-4.5691,-4.5671,-4.5652,-4.5633,-4.5633,-4.5614,-4.5594,-4.5594,-4.5594,-4.5594,-4.5594,-4.5594,-4.5594,-4.5594,-4.5594,-4.4278,-4.3162,-4.3143,-4.3143,-4.3124,-4.3104,-4.3104,0.0,-4.3104,-4.3104,-4.3104,-4.3104,-4.2335,-4.1846,-4.1846,-4.1046,-4.0535,-4.0535,-3.9785,-3.9342,-3.9342,-3.8507,-3.8027,-3.8007,-3.718,-3.6365,-3.5577,0.0,0.0,0.0,0.0,0.0,0.0,0.0,0.0,0.0,0.0,0.0,0.0,0.0,0.0,0.0,0.0,0.0,0.0,0.0,0.0,0.0,-4.4124,-4.4605,-4.3739,-4.3816,-4.4528,-4.6009,-4.6201,-4.6605,-4.7682,-4.7778,-4.7855,-4.8086,-4.926,-4.999,-4.999,-5.1144,-5.1798,-5.1798,-5.1798,-5.1914,-5.2145,-5.2164,-5.2279,-5.251,-5.251,-5.2183,-5.1568,-5.1568,-5.1241,-5.0693,-5.0462,-5.0346,-5.0327,-5.0067,-4.999,-4.9856,-4.8586,-4.8105,-4.8105,-4.8105,-4.8105,-4.8067,-4.7855,-4.7778,-4.774,-4.749,-4.7413,-4.7413,-4.7413,-4.7413,-4.7298,-4.6721,-4.6547,-4.6394,-4.5768,-4.5594,-4.5594,-4.5594,-4.5594,-4.5594,-4.5594,-4.5594,-4.5594,-4.5594,-4.5229,-4.4701,-4.4085,-4.397,-4.3778,-4.3181,-4.3104,0.0,-4.3104,-4.3104,-4.3104,-4.3104,-4.2893,-4.2739,-4.2739,-4.195,-4.145,-4.145,-4.0642,-4.0169,-4.0169,-3.9381,-3.8642,-3.8007,-3.7757,-3.7526,0.0,0.0,0.0,0.0,0.0,0.0,0.0,0.0,0.0,0.0,0.0,0.0,0.0,0.0,0.0,0.0,0.0,0.0,0.0,0.0,0.0,0.0,-4.5259,-4.597,-4.5451,-4.5393,-4.5893,-4.724,-4.7413,-4.774,-4.8567,-4.8971,-4.9336,-4.9673,-5.0971,-5.1741,-5.1741,-5.2664,-5.3203,-5.3203,-5.3203,-5.3203,-5.3203,-5.3203,-5.3203,-5.3203,-5.3203,-5.2933,-5.2442,-5.2442,-5.2202,-5.1741,-5.1741,-5.1741,-5.1741,-5.1741,-5.1741,0.0,0.0,0.0,0.0,0.0,-4.9183,-4.9144,-4.8779,-4.8644,-4.8586,-4.8221,-4.8105,-4.8105,-4.8105,-4.8105,-4.8009,-4.7528,-4.7413,-4.7221,-4.6355,-4.6144,-4.6047,-4.5691,-4.5594,-4.5594,-4.5594,-4.5594,-4.5594,-4.5594,-4.5594,0.0,-4.494,-4.4836,-4.4682,-4.422,-4.4143,-4.4143,-4.4143,-4.4143,-4.4143,-4.4143,-4.3816,-4.3605,-4.3605,-4.2835,0.0,0.0,0.0,-4.0873,-4.0516,-4.0054,0.0,0.0,0.0,-3.8354,-3.8007,0.0,0.0,0.0,-3.6315,-3.6276,0.0,0.0,0.0,0.0,0.0,0.0,0.0,0.0,0.0,0.0,0.0,0.0,0.0,0.0,0.0,0.0,-4.6394,-4.6962,-4.7163,-4.7182,-4.7451,-4.8163,-4.8336,-4.874,-4.9606,-5.0471,-5.1279,-5.1981,-5.2856,-5.3356,-5.3356,0.0,0.0,0.0,0.0,-5.3491,-5.3491,-5.3491,-5.3491,-5.3491,-5.3491,-5.3433,-5.3356,-5.3356,-5.3299,-5.3203,-5.3203,-5.3203,-5.3203,-5.3203,-5.3203,-5.3049,-5.1452,-5.0846,-5.0827,-5.0731,-5.0712,-5.0596,-4.9798,0.0,0.0,-4.8644,-4.8394,-4.8394,-4.8394,-4.8394,-4.8375,-4.8279,-4.8259,-4.8067,-4.7259,-4.7038,-4.6817,-4.5951,-4.5748,-4.5729,-4.5614,-4.5594,-4.5594,-4.5594,-4.5594,-4.5594,-4.5594,-4.5594,-4.5594,-4.5594,-4.5594,-4.5594,-4.5594,-4.5594,-4.5594,-4.5594,0.0,0.0,-4.4451,-4.3701,-4.2912,-4.2135,-4.2,-4.1566,-4.0689,-4.065,-4.0265,-3.9457,-3.9438,-3.9046,-3.8277,-3.8277,-3.8277,-3.8277,-3.8084,-3.8007,0.0,0.0,0.0,0.0,0.0,0.0,0.0,0.0,0.0,0.0,0.0,0.0,0.0,0.0,0.0,-4.6528,-4.6797,-4.7375,-4.8721,-4.8913,-4.8971,-4.9125,-4.976,-5.051,-5.1327,-5.2202,-5.2779,-5.2953,-5.376,-5.4241,-5.4241,-5.4857,-5.5222,-5.5222,-5.5222,-5.5222,-5.5222,-5.5222,-5.5222,-5.5222,0.0,0.0,-5.4241,-5.4241,-5.3857,-5.3203,-5.3203,-5.3203,-5.3203,-5.3203,-5.3203,-5.3106,-5.2068,-5.1673,-5.1587,-5.0933,-5.0712,-5.0673,-5.0519,-5.0462,-5.0423,-5.025,-5.0212,-5.0212,-5.0212,-5.0212,0.0,-4.9356,-4.9144,-4.8952,-4.8086,-4.7875,-4.7663,-4.6836,-4.6644,-4.6471,-4.5748,-4.5594,-4.5594,-4.5594,-4.5594,-4.5594,-4.5594,-4.5594,-4.5594,-4.5594,-4.5594,-4.5594,-4.5594,-4.5594,-4.5594,-4.5594,-4.546,-4.5344,-4.5344,-4.4547,-4.3989,-4.3835,-4.3201,-4.247,-4.1585,-4.1546,-4.1143,-4.0285,-4.0265,-4.0189,-4.0015,-4.0015,-4.0015,-3.9977,-3.8623,-3.8007,0.0,0.0,0.0,0.0,0.0,0.0,0.0,0.0,0.0,0.0,0.0,-4.5594,-4.5594,0.0,-4.6394,-4.6827,-4.7605,-4.8432,-4.9279,-5.0125,-5.0644,-5.0644,-5.1048,-5.1625,-5.2462,-5.3337,-5.3857,-5.3857,-5.4626,-5.5107,-5.5107,-5.5472,-5.5703,-5.5703,-5.5703,-5.5703,-5.5703,-5.5703,-5.5703,-5.5703,-5.5703,-5.5491,-5.5107,-5.5107,-5.4857,-5.4453,-5.4453,-5.4453,-5.4453,-5.4453,-5.4453,-5.4376,-5.353,-5.2933,-5.25,-5.2106,-5.1952,-5.1895,-5.1452,-5.1298,-5.1221,-5.0827,-5.0712,-5.0712,-5.0712,-5.0712,-5.0616,-5.0164,-5.0048,-4.9856,-4.8971,-4.8759,-4.8548,-4.7702,-4.7509,-4.7278,-4.6432,-4.624,-4.6124,-4.5691,-4.5594,-4.5594,-4.5594,-4.5594,-4.5594,-4.5594,-4.5594,-4.5594,-4.5594,-4.5594,-4.5594,-4.5594,-4.5594,-4.5594,-4.5594,-4.4797,-4.4297,-4.4297,-4.3547,-4.2893,-4.247,-4.245,-4.2258,-4.1816,-4.1797,-4.1797,-4.1797,-4.1797,-4.1797,-4.1777,-4.0931,-4.0315,0.0,0.0,0.0,0.0,0.0,0.0,0.0,-4.5594,-4.5594,-4.5594,-4.5594,-4.5652,-4.5825,-4.6432,-4.7,-4.7336,-4.8529,-4.951,-4.9837,-5.1048,-5.2019,-5.2365,-5.2404,-5.2673,-5.3376,-5.4222,-5.4722,-5.4722,-5.5318,-5.5703,-5.5703,-5.5703,-5.5703,-5.5703,-5.5703,-5.5703,-5.5703,-5.5703,-5.5703,-5.5703,-5.5703,-5.5703,-5.5703,-5.5703,-5.5703,-5.5703,-5.5703,-5.5703,-5.5703,-5.5703,-5.5703,-5.5645,-5.4991,-5.4299,-5.3645,-5.3318,-5.3203,-5.3106,-5.2404,-5.2154,-5.2038,-5.1395,-5.1068,-5.0933,-5.0933,-5.0827,-5.0712,-5.0712,-5.0712,-5.0539,-4.9817,-4.9644,-4.9433,-4.8567,-4.8355,-4.8125,-4.7317,-4.7135,-4.6874,-4.6009,-4.5845,-4.5806,-4.5633,-4.5594,-4.5594,-4.5594,-4.5594,-4.5594,-4.5594,-4.5594,-4.5594,-4.5594,-4.5594,-4.5594,-4.5594,-4.496,-4.4547,-4.4547,-4.3932,-4.3508,-4.3335,-4.3335,-4.3258,-4.3104,-4.3104,-4.3104,-4.3104,-4.3104,-4.3104,-4.3104,-4.3104,-4.272,-4.4345,-4.4931,-4.5169,-4.5169,-4.539,-4.5594,0.0,-4.5594,-4.5594,-4.5594,-4.5594,-4.5845,-4.6605,-4.6827,-4.7394,-4.8875,-4.9279,-4.9913,-5.1404,-5.1769,-5.2462,-5.403,-5.4203,-5.4241,-5.4357,-5.5088,-5.5568,-5.5568,-5.5645,-5.5703,-5.5703,-5.5703,-5.5703,-5.5703,-5.5703,-5.5703,-5.5703,-5.5703,-5.5703,-5.5703,-5.5703,-5.5703,-5.5703,-5.5703,-5.5703,-5.5703,-5.5703,-5.5703,-5.5703,-5.5703,-5.5703,-5.5684,-5.5588,-5.5511,-5.5241,-5.376,-5.3203,-5.3203,-5.3087,-5.3049,-5.3049,-5.2953,-5.2395,-5.1769,-5.1769,-5.1279,-5.0712,-5.0712,-5.0712,-5.0673,-5.0577,-5.0558,-5.0327,-4.9452,-4.924,-4.9029,-4.8144,-4.7971,-4.774,-4.6913,-4.6759,-4.6509,-4.5729,-4.5594,-4.5594,-4.5594,-4.5594,-4.5594,-4.5594,-4.5594,-4.5594,-4.5594,-4.5594,-4.5594,-4.5594,-4.5518,-4.546,-4.546,-4.5364,-4.4979,-4.4201,-4.4162,-4.3835,-4.3104,-4.3104,-4.3104,-4.3104,-4.3104,-4.3104,-4.3104,-4.3104,-4.3047,-4.4531,-4.4988,-4.5159,-4.5342,-4.5495,-4.5594,-4.5594,-4.5594,-4.5594,-4.5594,-4.599,-4.6471,-4.6827,-4.7702,-4.8586,-4.9279,-4.9817,-5.0567,-5.1731,-5.2327,-5.3126,-5.4357,-5.4914,-5.5203,-5.5203,-5.5491,-5.5703,-5.5703,-5.5703,-5.5703,-5.5703,-5.5703,-5.5703,-5.5703,-5.5703,-5.5703,-5.5703,-5.5703,-5.5703,-5.5703,-5.5703,-5.5703,-5.5703,-5.5703,-5.5703,-5.5703,-5.5703,-5.5703,-5.5703,-5.5703,-5.5703,-5.5703,-5.5703,-5.5703,-5.5607,-5.4914,-5.4645,-5.4587,-5.4126,-5.3953,-5.3876,-5.3356,-5.2953,-5.2654,-5.2654,-5.2068,-5.1395,-5.1395,-5.1048,-5.0712,-5.0712,-5.0712,-5.0616,-5.025,-5.0173,-4.9913,-4.9048,-4.8856,-4.8606,-4.7759,-4.7605,-4.7336,-4.6509,-4.6355,-4.6182,-4.5691,-4.5594,-4.5594,-4.5594,-4.5594,-4.5594,-4.5594,-4.5594,-4.5594,-4.5594,-4.5594,-4.5594,-4.5594,-4.5594,-4.5441,-4.5075,-4.5056,-4.4902,-4.4547,-4.4547,-4.4547,-4.4547,-4.4547,-4.4547,-4.4547,-4.4547,-4.4547,-4.4518,-4.4884,-4.5052,-4.539,-4.5522,-4.5594,-4.5594,-4.5594,-4.5594,-4.5594,-4.6297,-4.6962,-4.7192,-4.8413,-4.9471,-4.9721,-5.0289,-5.1048,-5.2096,-5.2799,-5.3606,-5.4703,-5.5338,-5.5703,-5.5703,-5.5703,-5.5703,-5.5703,-5.5703,-5.5703,-5.5703,-5.5703,-5.5703,-5.5703,-5.5703,-5.5703,-5.5703,-5.5703,-5.5703,-5.5703,-5.5703,-5.5703,-5.5703,-5.5703,-5.5703,-5.5703,-5.5703,-5.5703,-5.5703,-5.5703,-5.5703,-5.5703,-5.5703,-5.5703,-5.5703,-5.5703,-5.5703,-5.5607,-5.503,-5.4818,-5.4722,-5.4087,-5.3741,-5.3568,-5.3568,-5.2953,-5.2212,-5.1962,-5.1491,-5.0971,-5.077,-5.0712,-5.0712,-5.0712,-5.0712,-5.0539,-4.9894,-4.976,-4.949,-4.8625,-4.8471,-4.8202,-4.7375,-4.7231,-4.6951,-4.6086,-4.5951,-4.5874,-4.5633,-4.5594,-4.5594,-4.5594,-4.5594,-4.5594,-4.5594,-4.5594,-4.5594,-4.5594,-4.5594,-4.5594,-4.5594,-4.5594,-4.5594,-4.5594,-4.5594,-4.5594,-4.5594,-4.5594,-4.5594,-4.5594,-4.5594,-4.5594,-4.394,-4.4318,-4.4701,-4.5041,-4.5352,-4.5594,-4.5594,-4.5594,-4.5594,-4.5594,-4.6297,-4.7135,-4.7932,-4.8798,-4.9683,-5.0519,-5.0673,-5.1279,-5.2933,-5.3183,-5.3818,-5.5472,-5.5684,-5.5703,-5.5703,-5.5703,-5.5703,-5.5703,-5.5703,-5.5703,-5.5703,-5.5703,-5.5703,-5.5703,-5.5703,-5.5703,-5.5703,-5.5703,-5.5703,-5.5703,-5.5703,-5.5703,-5.5703,-5.5703,-5.5703,-5.5703,-5.5703,-5.5703,-5.5703,-5.5703,-5.5703,-5.5703,-5.5703,-5.5703,-5.5703,-5.5703,-5.5703,-5.5703,-5.5665,-5.5665,-5.5665,-5.5626,-5.5107,-5.4453,-5.4453,-5.3857,-5.2991,-5.2135,-5.1885,-5.1673,-5.0894,-5.0712,-5.0712,-5.0712,-5.0712,-5.0693,-5.0673,-5.0654,-5.0404,-4.9529,-4.9356,-4.9086,-4.8221,-4.8067,-4.7798,-4.6981,-4.6846,-4.6567,-4.571,-4.5594,-4.5594,-4.5594,-4.5594,-4.5594,-4.5594,-4.5594,-4.5594,-4.5594,-4.5594,-4.5594,-4.5594,-4.5594,-4.5594,-4.5594,-4.5594,-4.5594,-4.5594,-4.5594,-4.5594,-4.5594,-4.5594,-4.5594,-4.3912,-4.4087,-4.4346,-4.4954,-4.5191,-4.5322,-4.5559,-4.5594,-4.5594,-4.5594,-4.6297,-4.7154,-4.7952,-4.8817,-4.9683,-5.0558,-5.0712,-5.1279,-5.2972,-5.3203,-5.3818,-5.5491,-5.5703,-5.5703,-5.5703,-5.5703,-5.5703,-5.5703,-5.5703,-5.5703,-5.5703,-5.5703,-5.5703,-5.5703,-5.5435,-5.5306,-5.5306,-5.5034,-5.489,-5.4909,-5.5173,-5.5435,-5.5703,-5.5703,-5.5703,-5.5703,-5.5703,-5.5703,-5.5703,-5.5703,-5.5703,-5.5703,-5.5703,-5.5703,-5.5703,-5.5703,-5.5703,-5.5703,-5.5703,-5.5703,-5.5703,-5.5703,-5.5511,-5.5299,-5.5299,-5.4722,-5.3991,-5.3703,-5.3222,-5.2568,-5.1722,-5.151,-5.1356,-5.0827,-5.0712,-5.0712,-5.0712,-5.0712,-5.0616,-5.0327,-5.0269,-4.999,-4.9106,-4.8952,-4.8663,-4.7817,-4.6759,-4.5932,-4.5633,-4.5594,-4.5594,-4.5594,-4.5594,-4.5594,-4.5594,-4.5594,-4.5594,-4.5594,-4.5594,-4.5594,-4.5594,-4.5594,-4.5594,-4.5594,-4.5594,-4.5594,-4.5594,-4.5594,-4.5594,-4.5594,-4.5594,-4.5594,-4.3912,-4.4001,-4.4146,-4.4769,-4.4919,-4.5,-4.5342,-4.5332,-4.5303,-4.5559,-4.6176,-4.6887,-4.7548,-4.8625,-4.9586,-5.0144,-5.05,-5.1279,-5.2972,-5.3203,-5.3818,-5.5491,-5.5703,-5.5703,-5.5703,-5.5577,-5.5554,-5.5703,-5.5703,-5.564,-5.5489,-5.5489,-5.5423,-5.5282,-5.5021,-5.4895,-5.4895,-5.476,-5.4794,-5.4938,-5.5186,-5.5446,-5.5703,-5.5703,-5.5703,-5.5703,-5.5703,-5.5703,-5.5703,-5.5703,-5.5703,-5.5703,-5.5703,-5.5703,-5.5703,-5.5703,-5.5703,-5.5703,-5.5703,-5.5703,-5.5703,-5.5703,-5.5703,-5.5703,-5.5703,-5.5338,-5.4876,-5.4587,-5.4107,-5.3472,-5.2577,-5.2365,-5.2154,-5.1337,-5.1125,-5.1048,-5.077,-5.0712,-5.0712,-5.0712,-5.0712,-5.0519,-4.9952,-4.9606,-4.9202,-4.8644,-4.7375,-4.6394,-4.6105,-4.5787,-4.5594,-4.5594,-4.5594,-4.5594,-4.5594,-4.5594,-4.5594,-4.5594,-4.5594,-4.5594,-4.5594,-4.5594,-4.5594,-4.5594,-4.5594,-4.5594,-4.5594,-4.5594,-4.5594,-4.5594,-4.5594,-4.5594,-4.3896,-4.3971,-4.4076,-4.4474,-4.4567,-4.4657,-4.5007,-4.4837,-4.4769,-4.5419,-4.5896,-4.6356,-4.6791,-4.8154,-4.925,-4.9356,-5.0038,-5.1172,-5.2932,-5.3163,-5.3797,-5.547,-5.5662,-5.5662,-5.564,-5.5294,-5.5224,-5.5599,0.0,-5.5477,-5.5088,-5.5061,-5.4876,-5.4519,-5.4487,-5.4452,-5.4452,-5.4833,-5.5237,-5.564,-5.564,-5.5651,-5.5662,-5.5662,-5.5662,-5.5662,-5.5684,-5.5703,-5.5703,-5.5703,-5.5703,-5.5703,-5.5703,-5.5703,-5.5703,-5.5703,-5.5703,-5.5703,-5.5703,-5.5703,-5.5703,-5.5703,-5.5703,-5.5703,-5.5703,-5.5703,-5.553,-5.478,-5.4549,-5.4357,-5.3491,-5.328,-5.3049,-5.2173,-5.1962,-5.175,-5.0933,-5.077,-5.075,-5.0712,-5.0712,-5.0712,-5.0712,-5.001,-4.9471,-4.9471,-4.8721,-4.7875,-4.7058,-4.6201,-4.5671,-4.5671,-4.5633,-4.5594,-4.5594,-4.5594,-4.5594,-4.5594,-4.5594,-4.5594,-4.5594,-4.5594,-4.5594,-4.5594,-4.5594,-4.5594,-4.5594,-4.5594,-4.5594,-4.5594,-4.5594,-4.5594,-4.3595,-4.3631,-4.371,-4.4061,-4.4146,-4.4247,-4.4644,-4.4657,-4.4644,-4.4818,-4.4952,-4.5323,-4.6268,-4.6603,-4.7205,-4.8713,-4.8933,-4.9816,-5.2389,-5.2738,-5.3369,-5.5059,-5.5237,-5.5147,-5.4852,-5.4701,-5.4705,-5.4809,-5.4823,-5.4745,-5.4674,-5.464,-5.4613,-5.4503,-5.4153,-5.3977,-5.3977,-5.4082,-5.4369,-5.4823,-5.4823,-5.4966,-5.5237,-5.5237,-5.5237,-5.5282,-5.5577,-5.5703,-5.5703,-5.5703,-5.5703,-5.5703,-5.5703,-5.5703,-5.5703,-5.5703,-5.5703,-5.5703,-5.5703,-5.5703,-5.5703,-5.5703,-5.5703,-5.5703,-5.5703,-5.5703,-5.5665,-5.5453,-5.5395,-5.5203,-5.4376,-5.4164,-5.3953,-5.3087,-5.2876,-5.2626,-5.1779,-5.1587,-5.1414,-5.0827,-5.0712,-5.0712,-5.0712,-5.0519,-5.0366,-5.0366,-4.9625,-4.8759,-4.7894,-4.7086,-4.6567,-4.6567,-4.599,-4.5594,-4.5594,-4.5594,-4.5594,-4.5594,-4.5594,-4.5594,-4.5594,-4.5594,-4.5594,-4.5594,-4.5594,-4.5594,-4.5594,-4.5594,-4.5594,-4.5594,-4.5594,-4.5594,-4.3515,-4.3515,-4.3548,-4.3742,-4.3772,-4.3865,-4.4266,-4.4223,-4.4213,-4.4527,-4.4593,-4.4827,-4.5624,-4.5924,-4.6396,-4.7533,-4.8042,-4.9126,-5.1473,-5.2107,-5.2967,-5.4643,-5.4852,-5.4764,-5.4535,-5.4305,-5.4187,-5.4187,-5.4371,-5.4404,-5.4204,-5.4187,-5.4119,-5.3943,-5.3682,-5.3624,-5.3796,-5.3796,-5.4031,-5.4503,-5.4503,-5.4628,-5.4852,-5.4852,-5.4852,-5.4833,0.0,-5.5173,-5.5186,-5.5356,-5.5435,-5.5446,-5.564,-5.5703,-5.5703,-5.5703,-5.5703,-5.5703,-5.5703,-5.5703,-5.5703,-5.5703,-5.5703,-5.5703,-5.5703,-5.5703,-5.5703,-5.5703,-5.5703,-5.5588,-5.5145,-5.503,-5.4799,-5.3972,-5.378,-5.353,-5.2654,-5.2173,-5.1654,-5.0866,-5.0712,-5.0712,-5.0712,-5.0712,-5.0712,-5.0712,-5.0289,-4.9779,-4.9298,-4.8182,-4.7432,-4.7432,-4.699,-4.6547,-4.6201,-4.6163,-4.6009,-4.5614,-4.5594,-4.5594,-4.5594,-4.5594,-4.5594,-4.5594,-4.5594,-4.5594,-4.5594,-4.5594,-4.5594,-4.5594,-4.5594,-4.5594,-4.3515,-4.3515,-4.3515,-4.3515,-4.3515,-4.358,-4.3865,-4.371,-4.3679,-4.4323,-4.4487,-4.4631,-4.4966,-4.5571,-4.6054,-4.6203,-4.7224,-4.8591,-5.0312,-5.1348,-5.2501,-5.4065,-5.4347,-5.439,-5.434,-5.396,-5.372,-5.372,-5.4102,-5.4154,-5.3739,-5.372,-5.3546,-5.3206,-5.3185,-5.338,-5.372,-5.3777,-5.3995,-5.4423,-5.4423,-5.4423,-5.4423,-5.4423,-5.4423,-5.4404,-5.4487,-5.4503,-5.4535,-5.4881,-5.5021,-5.508,-5.5592,-5.5726,-5.564,-5.5808,-5.5799,-5.5703,-5.5703,-5.5703,-5.5703,-5.5703,-5.5703,-5.5703,-5.5703,-5.5703,-5.5703,-5.5703,-5.5703,-5.5703,-5.5703,-5.5703,-5.5511,-5.4818,-5.4664,-5.4414,-5.3568,-5.2596,-5.1692,-5.0991,-5.077,-5.0712,-5.0712,-5.0712,-5.0712,-5.0712,-5.0712,-5.0712,-5.0712,-4.9279,-4.8279,-4.8279,-4.8182,-4.7817,-4.7115,-4.7058,-4.674,-4.5979,-4.5941,-4.5941,-4.5941,-4.5941,-4.5941,-4.5941,-4.5941,-4.5883,-4.5768,-4.5768,-4.571,-4.5594,-4.5594,-4.5594,-4.3515,-4.3515,-4.3515,-4.3515,-4.3515,-4.3513,-4.3563,-4.3548,-4.3531,-4.3662,-4.3912,-4.4219,-4.4618,-4.4527,-4.4735,-4.5719,-4.6125,-4.7027,-4.9029,-5.0594,-5.185,-5.2821,-5.3513,-5.3796,-5.3462,-5.3339,-5.3295,-5.3295,-5.338,-5.338,-5.3316,-5.3295,-5.3272,-5.3206,-5.3185,-5.323,-5.3295,-5.3624,-5.3851,-5.3923,-5.3923,-5.3923,-5.3923,-5.3923,-5.3923,-5.3941,-5.4322,0.0,-5.4503,-5.4582,-5.4594,-5.4716,-5.5843,-5.5842,-5.5333,-5.6395,-5.6329,-5.5703,-5.5703,-5.5703,-5.5703,-5.5703,-5.5703,-5.5703,-5.5703,-5.5703,-5.5703,-5.5703,-5.5703,-5.5703,-5.5703,-5.5703,-5.5665,-5.553,-5.5491,-5.5261,-5.4453,-5.3029,-5.1865,-5.1712,-5.1144,-5.0712,-5.0712,-5.0712,-5.0712,-5.0712,-5.0712,-5.0712,-5.0712,-4.9798,-4.9163,-4.9163,-4.8529,-4.8048,-4.7894,-4.7894,-4.7836,-4.7682,-4.7663,-4.7663,-4.7663,-4.7663,-4.7663,-4.7663,-4.7663,-4.7336,-4.6682,-4.6682,-4.6297,-4.5594,-4.5594,-4.5594,-4.3515,-4.3515,-4.3515,-4.3515,-4.3515,-4.3515,-4.3515,-4.3515,-4.3515,-4.3515,-4.3775,-4.4058,-4.4247,-4.4117,-4.4188,-4.4776,-4.5099,-4.5919,-4.7754,-4.9436,-5.0935,-5.2137,-5.2986,-5.3422,-5.3227,-5.3185,-5.3185,-5.3185,-5.3185,-5.3185,-5.3185,-5.3185,-5.3185,-5.3185,-5.3185,-5.3185,-5.3185,-5.3381,-5.3504,-5.3504,-5.3504,-5.3504,-5.3504,-5.3504,-5.3504,-5.3504,-5.372,-5.3814,-5.387,-5.4498,-5.4755,-5.4883,-5.616,-5.6395,-5.6137,-5.6988,-5.6753,-5.605,-5.6283,-5.6069,-5.5703,-5.5703,-5.5703,-5.5703,-5.5703,-5.5703,-5.5703,-5.5703,-5.5703,-5.5703,-5.5703,-5.5703,-5.5703,-5.5703,-5.5703,-5.5357,-5.4107,-5.3164,-5.2318,-5.1433,-5.0952,-5.0712,-5.0712,-5.0712,-5.0712,-5.0712,-5.0712,-5.0712,-5.0712,-5.0346,-5.0067,-5.0067,-4.9702,-4.926,-4.8817,-4.8779,-4.8586,-4.8125,-4.8105,-4.8105,-4.8105,-4.8105,-4.8105,-4.8105,-4.8105,-4.7913,-4.7528,-4.7528,-4.7317,-4.6894,-4.6894,-4.6894,-4.3515,-4.3515,-4.3515,-4.3515,-4.3515,-4.3515,-4.3515,-4.3515,-4.3515,-4.3515,-4.3775,-4.4001,-4.4001,-4.4001,-4.4001,-4.4001,-4.4393,-4.5186,-4.6636,-4.8269,-4.9903,-5.1536,-5.2454,-5.3023,-5.3167,-5.3185,-5.3185,-5.3185,-5.3185,-5.3185,-5.3185,-5.3185,-5.3185,-5.3185,-5.3185,-5.3185,-5.3185,-5.3185,-5.3185,-5.3185,-5.3185,-5.3185,-5.3185,-5.3185,-5.3185,-5.3185,-5.3185,-5.3316,-5.3521,-5.447,-5.4982,-5.5262,-5.6535,-5.6901,-5.6822,-5.7468,-5.7106,-5.6341,-5.6712,-5.6352,-5.5703,-5.5703,-5.5703,-5.5703,-5.5703,-5.5703,-5.5703,-5.5703,-5.5703,-5.5703,-5.5703,-5.5703,-5.5703,-5.5703,-5.5703,-5.528,-5.3799,-5.3337,-5.276,-5.1241,-5.0827,-5.0712,-5.0712,-5.0712,-5.0712,-5.0712,-5.0712,-5.0712,-5.0712,-5.0712,-5.0712,-5.0712,-5.0712,-5.0423,-4.974,-4.9683,-4.9394,-4.8702,-4.8663,-4.8663,-4.8663,-4.8663,-4.8663,-4.8663,-4.8663,-4.8567,-4.8375,-4.8375,-4.8279,-4.8105,-4.8105,-4.8105,-4.3515,-4.3515,-4.3515,-4.3515,-4.3515,-4.3515,-4.3515,-4.3515,-4.3515,-4.3515,-4.3775,-4.4001,-4.4001,-4.4001,-4.4001,-4.4001,-4.4393,-4.5021,-4.5883,-4.7407,-4.904,-5.071,-5.161,-5.2399,-5.3133,-5.3185,-5.3185,-5.3185,-5.3185,-5.3185,-5.3185,-5.3185,-5.3185,-5.3185,-5.3185,-5.3185,-5.3185,-5.3185,-5.3185,-5.3185,-5.3185,-5.3185,-5.3185,-5.3185,-5.3185,-5.3185,-5.3185,-5.361,0.0,-5.4427,-5.489,-5.5671,-5.6935,-5.6945,-5.6406,-5.7611,-5.7305,-5.6314,-5.6341,-5.6076,-5.5703,-5.5703,-5.5703,-5.5703,-5.5703,-5.5703,-5.5703,-5.5703,-5.5703,-5.5703,-5.5703,-5.5703,-5.5703,-5.5703,-5.5703,-5.5453,-5.4568,-5.376,-5.2933,-5.1962,-5.1202,-5.0712,-5.0712,-5.0712,-5.0712,-5.0712,-5.0712,-5.0712,-5.0712,-5.0712,-5.0712,-5.0712,-5.0712,-5.0673,-5.0596,-5.0577,-5.0558,-5.0481,-5.0462,-5.0462,-5.0462,-5.0462,-5.0462,-5.0462,-5.0462,-5.0067,-4.9279,-4.9279,-4.8875,-4.8105,-4.8105,-4.8105,-4.3515,-4.3515,-4.3515,-4.3515,-4.3515,-4.3515,-4.3515,-4.3515,-4.3515,-4.3515,-4.3614,-4.3693,-4.3693,-4.3693,-4.3693,-4.3693,0.0,0.0,-4.5718,-4.6874,-4.8378,-5.0545,-5.1499,-5.2307,-5.3112,-5.3185,-5.3185,-5.3185,-5.3185,-5.3185,-5.3185,-5.3185,-5.3185,-5.3185,-5.3185,-5.3185,-5.3185,-5.3185,-5.3185,-5.3185,-5.3185,-5.3185,-5.3185,-5.3185,-5.3185,-5.3222,-5.372,-5.4106,0.0,-5.5445,-5.6033,-5.6422,-5.742,-5.7577,-5.7383,-5.816,-5.7527,-5.6327,-5.6886,-5.6313,-5.5387,-5.561,-5.5703,-5.5703,-5.5703,-5.5703,-5.5703,-5.5703,-5.5703,-5.5703,-5.5703,-5.5703,-5.5703,-5.5703,-5.5318,-5.4741,-5.3895,-5.3029,-5.2183,-5.1337,-5.0914,-5.0712,-5.0712,-5.0712,-5.0712,-5.0712,-5.0712,-5.0712,-5.0712,-5.0712,-5.0712,-5.0712,-5.0712,-5.0712,-5.0712,-5.0712,-5.0712,-5.0712,-5.0712,-5.0712,-5.0712,-5.0712,-5.0712,-5.0712,-5.0712,-5.0539,-5.0183,-5.0183,-4.999,-4.9663,-4.9663,-4.9663,-4.3515,-4.3515,-4.3515,-4.3515,-4.3515,-4.3515,-4.3515,-4.3515,-4.3515,-4.3515,-4.3515,-4.3515,-4.3515,-4.3515,-4.3515,0.0,0.0,-4.3992,-4.5351,-4.625,-4.7663,-5.0141,-5.1151,-5.205,-5.3093,-5.3185,-5.3185,-5.3185,-5.3185,-5.3185,-5.3185,-5.3185,-5.3185,-5.3185,-5.3185,-5.3185,-5.3185,-5.3185,-5.3185,-5.3185,-5.3185,-5.3185,-5.3185,-5.3185,-5.3185,-5.3243,-5.4051,-5.4546,0.0,-5.6235,-5.695,-5.7207,-5.7776,-5.7997,-5.8006,-5.8095,-5.7323,-5.6256,-5.6687,-5.6073,-5.5147,-5.5423,-5.5599,-5.5703,-5.5703,-5.5703,-5.5703,-5.5703,-5.5703,-5.5703,-5.5703,-5.5703,-5.5645,-5.5395,-5.4914,-5.4184,-5.3068,-5.2327,-5.1654,-5.0866,-5.0712,-5.0712,-5.0712,-5.0712,-5.0712,-5.0712,-5.0712,-5.0712,-5.0712,-5.0712,-5.0712,-5.0712,-5.0712,-5.0712,-5.0712,-5.0712,-5.0712,-5.0712,-5.0712,-5.0712,-5.0712,-5.0712,-5.0712,-5.0712,-5.0712,-5.0712,-5.0712,-5.0712,-5.0712,-5.0712,-5.0712,-5.0712,-4.3515,-4.3515,-4.3515,-4.3515,-4.3515,-4.3515,-4.3515,-4.3515,-4.3515,-4.3515,-4.3515,-4.3515,-4.3515,-4.3515,-4.3515,-4.3515,0.0,0.0,-4.4617,-4.5406,-4.6819,-4.9317,-5.0306,-5.1444,-5.3038,-5.3185,-5.3185,-5.3185,-5.3185,0.0,-5.3185,-5.3185,-5.3185,-5.3185,-5.3185,-5.3185,-5.3185,-5.3185,-5.3185,-5.3185,-5.3185,-5.3185,-5.3185,-5.3185,-5.3185,-5.3243,-5.4051,-5.484,0.0,-5.6455,-5.7281,-5.7997,-5.7997,-5.7997,-5.7905,-5.7116,-5.6565,-5.6104,-5.5285,-5.5063,-5.5088,-5.5101,-5.5387,-5.5703,-5.5703,-5.5703,-5.5703,-5.5703,-5.5703,-5.5703,-5.5703,-5.5703,-5.5491,-5.4703,-5.4511,-5.403,-5.2288,-5.1904,-5.1654,-5.0866,-5.0712,-5.0712,-5.0712,-5.0712,-5.0712,-5.0712,-5.0712,-5.0712,-5.0712,-5.0712,-5.0712,-5.0712,-5.0712,-5.0712,-5.0712,-5.0712,-5.0712,-5.0712,-5.0712,-5.0712,-5.0712,-5.0712,-5.0712,-5.0712,-5.0712,-5.0712,-5.0712,-5.0712,-5.0712,-5.0712,-5.0712,-5.0712,-4.3515,-4.3515,-4.3515,-4.3515,-4.3515,-4.3515,-4.3515,-4.3515,-4.3515,-4.3515,-4.3515,-4.3515,-4.3515,-4.3515,-4.3515,-4.3515,-4.3515,0.0,0.0,-4.5736,-4.7021,-5.005,-5.1628,-5.2656,-5.3148,-5.3185,-5.3185,-5.3185,-5.3185,-5.3185,-5.3185,-5.3185,-5.3185,-5.3185,-5.3185,-5.3185,-5.3185,-5.3185,-5.3185,-5.3185,-5.3185,-5.3185,-5.3185,-5.3185,-5.3185,-5.3277,-5.4638,-5.5354,-5.5724,-5.706,-5.7776,-5.7997,-5.7997,-5.7997,-5.7905,-5.7097,-5.6382,-5.5713,-5.5188,-5.4862,-5.475,-5.5007,-5.5356,-5.5703,-5.5703,-5.5703,-5.5703,-5.5703,-5.5703,-5.5703,-5.5703,-5.528,-5.4818,-5.4549,-5.3587,-5.2558,-5.2019,-5.1471,-5.0991,-5.075,-5.0712,-5.0712,-5.0712,-5.0712,-5.0712,-5.0712,-5.0712,-5.0712,-5.0712,-5.0712,-5.0712,-5.0712,-5.0712,-5.0712,-5.0712,-5.0712,-5.0712,-5.0712,-5.0712,-5.0712,-5.0712,-5.0712,-5.0712,-5.0712,-5.0712,-5.0712,-5.0712,-5.0712,-5.0712,-5.0712,-5.0712,-5.0712,-4.3515,-4.3515,-4.3515,-4.3515,-4.3515,-4.3515,-4.3515,-4.3515,-4.3515,-4.3515,-4.3515,-4.3515,-4.3515,-4.3515,-4.3515,-4.3515,-4.3515,-4.3956,-4.5259,-4.5718,-4.7113,-5.0417,-5.2234,-5.3185,-5.3185,-5.3185,-5.3185,-5.3185,-5.3185,-5.3185,-5.3185,-5.3185,-5.3185,-5.3185,-5.3185,-5.3185,-5.3185,-5.3185,-5.3185,-5.3185,-5.3185,-5.3185,-5.3185,-5.3185,-5.3185,-5.328,-5.4583,-5.5133,0.0,-5.6877,-5.7556,-5.7556,-5.7556,-5.7556,-5.7409,-5.6308,-5.5574,-5.5089,-5.4521,-5.428,-5.4305,-5.4731,-5.5256,-5.5662,-5.5512,-5.5577,-5.5703,-5.5703,-5.5703,-5.5703,-5.5703,-5.5107,-5.4414,-5.4087,-5.2933,-5.1808,-5.151,-5.1048,-5.0712,-5.0712,-5.0712,-5.0712,-5.0712,-5.0712,-5.0712,-5.0712,-5.0712,-5.0712,-5.0712,-5.0712,-5.0712,-5.0712,-5.0712,-5.0712,-5.0712,-5.0712,-5.0712,-5.0712,-5.0712,-5.0712,-5.0712,-5.0712,-5.0712,-5.0712,-5.0712,-5.0712,-5.0712,-5.0712,-5.0712,-5.0712,-5.0712,-5.0712,0.0,-4.3515,-4.3515,-4.3515,-4.3515,-4.3515,-4.3515,-4.3515,0.0,-4.3515,-4.3515,-4.3515,-4.3515,-4.3515,-4.3515,-4.3515,-4.3515,-4.3791,-4.4672,-4.5626,-4.737,-5.0435,-5.2234,-5.3185,-5.3185,-5.3185,-5.3185,-5.3185,-5.3185,-5.3185,-5.3185,-5.3185,-5.3185,-5.3185,-5.3185,-5.3185,-5.3185,-5.3185,-5.3185,-5.3185,-5.3185,-5.3185,-5.3185,-5.3185,-5.3185,0.0,-5.4051,-5.4399,-5.4528,-5.6069,-5.6712,-5.6712,-5.6712,-5.6712,-5.6528,-5.4968,-5.4399,-5.4289,-5.3482,-5.3464,-5.3869,-5.4371,-5.5048,-5.5588,-5.5256,-5.5399,-5.5703,-5.564,-5.5651,-5.5684,-5.5662,-5.5077,-5.428,-5.3414,-5.2519,-5.1673,-5.0856,-5.0712,-5.0712,-5.0712,-5.0712,-5.0712,-5.0712,-5.0712,-5.0712,-5.0712,-5.0712,-5.0712,-5.0712,-5.0712,-5.0712,-5.0712,-5.0712,-5.0712,-5.0712,-5.0712,-5.0712,-5.0712,-5.0712,-5.0712,-5.0712,-5.0712,-5.0712,-5.0712,-5.0712,-5.0712,-5.0712,-5.0712,-5.0712,-5.0712,-5.0712,-5.0712,-4.3515,0.0,-4.3515,-4.3515,-4.3515,-4.3515,0.0,-4.3515,-4.3515,-4.3515,-4.3515,-4.3515,-4.3515,-4.3515,-4.3515,-4.3515,-4.3515,-4.3993,-4.5424,-4.7939,-4.9939,-5.071,-5.2234,-5.3185,-5.3185,-5.3185,-5.3185,-5.3185,-5.3185,-5.3185,-5.3185,-5.3185,-5.3185,-5.3185,-5.3185,-5.3185,-5.3185,-5.3185,-5.3185,-5.3185,-5.3185,-5.3185,-5.3185,-5.3185,-5.3185,-5.3243,-5.4051,-5.4399,-5.4473,-5.5464,-5.5868,-5.5868,-5.5868,-5.5868,-5.5757,-5.4766,-5.4399,-5.4289,-5.3482,-5.3464,-5.3923,-5.4716,-5.5075,-5.5282,-5.5501,-5.5629,-5.5577,-5.4966,-5.5244,-5.564,-5.5319,-5.4864,-5.428,-5.3414,-5.2519,-5.1673,-5.0856,-5.0712,-5.0712,-5.0712,-5.0712,-5.0712,-5.0712,-5.0712,-5.0712,-5.0712,-5.0712,-5.0712,-5.0712,-5.0712,-5.0712,-5.0712,-5.0712,-5.0712,-5.0712,-5.0712,-5.0712,-5.0712,-5.0712,-5.0712,-5.0712,-5.0712,-5.0712,-5.0712,-5.0712,-5.0712,-5.0712,-5.0712,-5.0712,-5.0712,-5.0712,-5.0712,-4.3515,-4.3515,-4.3515,-4.3515,-4.3515,-4.3515,-4.3515,-4.3515,-4.3515,-4.3515,-4.3515,-4.3515,-4.3515,-4.3515,-4.3515,-4.3515,-4.3809,-4.4745,-4.6728,-4.9187,-5.0949,-5.1316,-5.2454,-5.3185,-5.3185,-5.3185,-5.3185,-5.3185,-5.3185,-5.3185,-5.3185,-5.3185,-5.3185,-5.3185,-5.3185,-5.3185,-5.3185,-5.3185,-5.3185,-5.3185,-5.3185,-5.3185,-5.3185,-5.3185,-5.3185,-5.3203,-5.3665,-5.3849,-5.3922,-5.4711,-5.5042,-5.5042,-5.5042,-5.5042,-5.495,-5.4161,-5.3849,-5.3794,-5.3353,-5.3464,-5.3905,-5.4591,-5.4952,-5.5121,-5.5147,-5.5282,-5.5331,-5.4909,-5.4966,-5.5088,-5.4895,-5.437,-5.3818,-5.3537,-5.2669,-5.1888,-5.1853,-5.1389,-5.1028,-5.1211,-5.0952,-5.0712,-5.0712,-5.0712,-5.0712,-5.0712,-5.0712,-5.0712,-5.0712,-5.0712,-5.0712,-5.0712,-5.0712,-5.0712,-5.0712,-5.0712,-5.0712,-5.0712,-5.0712,-5.0712,-5.0712,-5.0712,-5.0712,-5.0712,-5.0712,-5.0712,-5.0712,-5.0712,-5.0712,-5.0712,-5.0712,-5.0712,-4.3479,-4.3515,-4.3515,-4.3515,-4.3515,-4.3515,-4.3515,-4.3515,-4.3515,-4.3515,-4.3515,-4.3515,-4.3515,-4.3515,-4.3515,-4.3515,-4.4287,-4.5681,-4.7994,-4.9738,-5.1096,-5.1885,-5.2711,-5.3185,-5.3185,-5.3185,-5.3185,-5.3185,-5.3185,-5.3185,-5.3185,-5.3185,-5.3185,-5.3185,-5.3185,-5.3185,-5.3185,-5.3185,-5.3185,-5.3185,-5.3185,-5.3185,-5.3185,-5.3185,-5.3185,-5.3185,0.0,0.0,-5.324,-5.394,-5.4216,-5.4216,-5.4216,-5.4216,-5.4124,-5.3463,-5.3185,-5.3185,-5.3185,-5.3422,-5.3777,-5.4238,-5.4671,-5.4933,-5.4594,-5.475,-5.4993,-5.4919,-5.4701,-5.4487,-5.4404,-5.3892,-5.3452,-5.3655,-5.2882,-5.2256,-5.2874,-5.2148,-5.1522,-5.1932,-5.1343,-5.0806,-5.0875,-5.0789,-5.0712,-5.0712,-5.0712,-5.0712,-5.0712,-5.0712,-5.0712,-5.0712,-5.0712,-5.0712,-5.0712,-5.0712,-5.0712,-5.0712,-5.0712,-5.0712,-5.0712,-5.0712,-5.0712,-5.0712,-5.0712,-5.0712,-5.0712,-5.0712,-5.0712,-5.0712,-5.0712,-5.0712,-4.3375,-4.3515,-4.3515,-4.3515,-4.3515,-4.3515,-4.3515,-4.3515,-4.3515,-4.3515,-4.3515,-4.3515,-4.3515,-4.3515,-4.3515,-4.3515,-4.4745,-4.6324,-4.8067,-4.9738,-5.1096,-5.1885,-5.2711,-5.3185,-5.3185,-5.3185,-5.3185,-5.3185,-5.3185,-5.3185,-5.3185,-5.3185,-5.3185,-5.3185,-5.3185,-5.3185,-5.3185,-5.3185,-5.3185,-5.3185,-5.3185,-5.3185,-5.3185,-5.3185,-5.3185,-5.3185,0.0,-5.3185,-5.3203,-5.3335,-5.339,-5.339,-5.339,-5.339,-5.3369,-5.324,-5.3185,-5.3185,-5.3185,-5.323,-5.3359,-5.3777,-5.4221,-5.4582,-5.4519,-5.455,-5.45,-5.4099,-5.4238,-5.4404,-5.4013,-5.4093,-5.4126,-5.3455,-5.3141,-5.2843,-5.2227,-5.1952,-5.193,-5.2406,-5.1801,-5.1323,-5.1652,-5.1144,-5.0712,-5.0712,-5.0712,-5.0712,-5.0712,-5.0712,-5.0712,-5.0712,-5.0712,-5.0712,-5.0712,-5.0712,-5.0712,-5.0712,-5.0712,-5.0712,-5.0712,-5.0712,-5.0712,-5.0712,-5.0712,-5.0712,-5.0712,-5.0712,-5.0712,-5.0712,-5.0712,-5.0712,-4.2902,-4.3087,-4.3142,-4.3427,-4.3515,-4.3515,-4.3515,-4.3515,-4.3515,-4.3515,-4.3515,-4.3515,-4.3515,-4.3515,-4.3773,-4.4654,-4.5773,-4.7278,-4.937,-5.0325,-5.1261,-5.2509,-5.2986,-5.3185,-5.3185,-5.3185,-5.3185,-5.3185,-5.3185,-5.3185,-5.3185,-5.3185,-5.3185,-5.3185,-5.3185,-5.3185,-5.3185,-5.3185,-5.3185,-5.3185,-5.3185,-5.3185,-5.3185,-5.3185,-5.3185,-5.3185,0.0,-5.3185,-5.3185,-5.3185,-5.3185,-5.3185,-5.3185,-5.3185,-5.3185,-5.3185,-5.3185,-5.3185,-5.3185,-5.3185,-5.3272,-5.3682,-5.396,-5.4118,-5.4118,-5.4118,-5.4013,-5.3585,-5.3642,-5.3758,-5.3525,-5.3642,-5.3758,-5.3563,-5.3364,-5.3217,-5.3282,-5.2733,-5.2346,-5.2839,-5.2433,-5.2062,-5.2246,-5.1762,-5.1356,-5.1356,-5.0971,-5.0712,-5.0712,-5.0712,-5.0712,-5.0712,-5.0712,-5.0712,-5.0712,-5.0712,-5.0712,-5.0712,-5.0712,-5.0712,-5.0712,-5.0712,-5.0712,-5.0712,-5.0712,-5.0712,-5.0712,-5.0712,-5.0712,-5.0712,-5.0712,-5.0712,-4.25,-4.2711,-4.2826,-4.3375,-4.3515,-4.3515,-4.3515,-4.3515,-4.3515,-4.3515,-4.3515,-4.3515,-4.3515,-4.3662,-4.4305,-4.592,-4.6856,-4.8177,-5.049,-5.0967,-5.161,-5.302,-5.3185,-5.3185,-5.3185,-5.3185,-5.3185,-5.3185,-5.3185,-5.3185,-5.3185,-5.3185,-5.3185,-5.3185,-5.3185,-5.3185,-5.3185,-5.3185,-5.3185,-5.3185,-5.3185,-5.3185,-5.3185,-5.3185,-5.3185,-5.3185,-5.3185,-5.3185,-5.3185,-5.3185,-5.3185,-5.3185,-5.3185,-5.3185,-5.3185,-5.3185,-5.3185,-5.3185,-5.3185,-5.3185,-5.3251,-5.3546,-5.372,-5.3777,-5.3683,-5.372,-5.372,-5.3316,-5.3185,-5.3185,-5.3185,-5.3185,-5.3293,-5.3585,-5.3404,-5.338,-5.405,-5.3384,-5.2791,-5.3247,-5.2938,-5.2622,-5.2724,-5.2271,-5.1877,-5.177,-5.1235,-5.0805,-5.0721,-5.0712,-5.0712,-5.0712,-5.0712,-5.0712,-5.0712,-5.0712,-5.0712,-5.0712,-5.0712,-5.0712,-5.0712,-5.0712,-5.0712,-5.0712,-5.0712,-5.0789,-5.0971,-5.0971,-5.0971,-5.0971,-5.0971,-5.0875,-4.2382,-4.2711,-4.2826,-4.3375,-4.3515,-4.3515,-4.3515,-4.3515,-4.3515,-4.3515,-4.3515,-4.3515,-4.3515,-4.4103,-4.5131,-4.6746,-4.7681,-4.882,-5.0563,-5.1444,-5.2234,-5.3093,-5.3185,-5.3185,-5.3185,-5.3185,-5.3185,-5.3185,-5.3185,-5.3185,-5.3185,-5.3185,-5.3185,-5.3185,-5.3185,-5.3185,-5.3185,-5.3185,-5.3185,-5.3185,-5.3185,-5.3185,-5.3185,-5.3185,-5.3185,-5.3185,-5.3185,-5.3185,-5.3185,-5.3185,-5.3185,-5.3185,-5.3185,-5.3185,-5.3185,-5.3185,-5.3185,-5.3185,-5.3185,-5.3185,-5.3206,-5.323,-5.3504,-5.3739,-5.3359,-5.3505,-5.372,-5.3316,-5.3185,-5.3185,-5.3185,-5.3185,-5.3206,-5.3248,-5.3227,-5.3206,-5.3272,-5.3235,-5.3267,-5.3684,-5.3086,-5.2649,-5.3082,-5.2458,-5.176,-5.1409,-5.1287,-5.1109,-5.0749,-5.0712,-5.0712,-5.0712,-5.0712,-5.0712,-5.0712,-5.0712,-5.0712,-5.0712,-5.0712,-5.0712,-5.0712,-5.0712,-5.0712,-5.0712,-5.0712,-5.1068,-5.1808,-5.1808,-5.1808,-5.1808,-5.1808,-5.1414,-4.1358,-4.1578,-4.1729,-4.2306,-4.2715,-4.3087,-4.3427,-4.3515,-4.3515,-4.3515,-4.3901,-4.4397,-4.4892,-4.5663,-4.6379,-4.7003,-4.8233,-4.9499,-5.0637,-5.1481,-5.2289,-5.3093,-5.3185,-5.3185,-5.3185,-5.3185,-5.3185,-5.3185,-5.3185,-5.3185,-5.3185,-5.3185,-5.3185,-5.3185,-5.3185,-5.3185,-5.3185,-5.3185,-5.3185,-5.3185,-5.3185,-5.3185,-5.3185,-5.3185,-5.3185,-5.3185,-5.3185,-5.3185,-5.3185,-5.3185,-5.3185,-5.3185,-5.3185,-5.3185,-5.3185,-5.3185,-5.3185,-5.3185,-5.3185,-5.3185,-5.3185,-5.3185,-5.3295,-5.3402,-5.3248,-5.3295,-5.34,-5.323,-5.3185,-5.3185,-5.3185,-5.3185,-5.3185,-5.3185,-5.3185,-5.3185,-5.3185,-5.3185,-5.323,-5.3402,-5.3365,-5.3366,-5.3545,-5.3088,-5.267,-5.2498,-5.1811,-5.1261,-5.1094,-5.0841,-5.0712,-5.0712,-5.0712,-5.0712,-5.0712,-5.0712,-5.0712,-5.0712,-5.0712,-5.0712,-5.0712,-5.0712,-5.0712,-5.0712,-5.1183,-5.1606,-5.1904,-5.2442,-5.2712,-5.2712,-5.2712,-5.226,-4.0756,-4.0903,-4.1041,-4.1643,-4.2121,-4.2559,-4.3105,-4.3375,-4.357,-4.3828,-4.4525,-4.5333,-4.614,-4.6727,-4.7186,-4.7443,-4.8893,-5.016,-5.0729,-5.1701,-5.2582,-5.3133,-5.3185,-5.3185,-5.3185,-5.3185,-5.3185,-5.3185,-5.3185,-5.3185,-5.3185,-5.3185,-5.3185,-5.3185,-5.3185,-5.3185,-5.3185,-5.3185,-5.3185,-5.3185,-5.3185,-5.3185,-5.3185,-5.3185,-5.3185,-5.3185,-5.3185,-5.3185,-5.3185,-5.3185,-5.3185,-5.3185,-5.3185,-5.3185,-5.3185,-5.3185,-5.3185,-5.3185,-5.3185,-5.3185,-5.3185,-5.3185,-5.3185,-5.3185,-5.3185,-5.3185,-5.3185,-5.3185,-5.3185,-5.3185,-5.3185,-5.3185,-5.3185,-5.3185,-5.3185,-5.3185,-5.3185,-5.3185,-5.3185,-5.3185,-5.3422,-5.3624,-5.3624,-5.3385,-5.3148,-5.3001,-5.2239,-5.1628,-5.1524,-5.1032,-5.0645,-5.0513,-5.0624,-5.0712,-5.0712,-5.0712,-5.0712,-5.0712,-5.0712,-5.0712,-5.0712,-5.0712,-5.0712,-5.0712,-5.1491,-5.2038,-5.2308,-5.3203,-5.3606,-5.3606,-5.3606,-5.3145,-4.0733,-4.088,-4.1041,-4.1621,-4.1789,-4.1937,-4.2557,-4.3105,-4.3736,-4.4562,-4.5369,-4.6159,-4.6947,-4.7113,-4.7369,-4.8177,-4.9719,-5.0802,-5.0802,-5.2197,-5.3185,-5.3185,-5.3185,-5.3185,-5.3185,-5.3185,-5.3185,-5.3185,-5.3185,-5.3185,-5.3185,-5.3185,-5.3185,-5.3185,-5.3185,-5.3185,-5.3185,-5.3185,-5.3185,-5.3185,-5.3185,-5.3185,-5.3185,-5.3185,-5.3185,-5.3185,-5.3185,-5.3185,-5.3185,-5.3185,-5.3185,-5.3185,-5.3185,-5.3185,-5.3185,-5.3185,-5.3185,-5.3185,-5.3185,-5.3185,-5.3185,-5.3185,-5.3185,-5.3185,-5.3185,-5.3185,-5.3185,-5.3185,-5.3185,-5.3185,-5.3185,-5.3185,-5.3185,-5.3185,-5.3185,-5.3185,-5.3185,-5.3185,-5.3185,-5.3185,-5.3185,-5.3185,-5.3185,-5.3185,-5.3042,-5.2568,-5.2511,-5.2355,-5.1942,-5.1194,-5.0558,-5.0151,-5.0462,-5.0702,-5.0712,-5.0712,-5.0712,-5.0712,-5.0712,-5.0712,-5.0712,-5.0712,-5.0712,-5.0712,-5.151,-5.2327,-5.3203,-5.4087,-5.4511,-5.4511,-5.4511,-5.4049,-4.0286,-4.0336,-4.0368,-4.0546,-4.0891,-4.1363,-4.2116,-4.3063,-4.4287,-4.603,-4.6581,-4.6984,-4.7791,-4.7938,-4.8012,-4.8269,-4.9719,-5.0802,-5.0802,-5.2197,-5.3185,-5.3185,-5.3185,-5.3185,-5.3185,-5.3185,-5.3185,-5.3185,-5.3185,-5.3185,-5.3185,-5.3185,-5.3185,-5.3185,-5.3185,-5.3185,-5.3185,-5.3185,-5.3185,-5.3185,-5.2637,-5.2656,-5.3185,-5.3185,-5.3185,-5.3185,-5.3185,-5.3185,-5.3185,-5.3185,-5.3185,-5.3185,-5.3185,-5.3185,-5.3185,-5.3185,-5.3185,-5.3185,-5.3185,-5.3185,-5.3185,-5.3185,-5.3185,-5.3185,-5.3185,-5.3185,-5.3185,-5.3185,-5.3185,-5.3185,-5.3185,-5.3185,-5.3185,-5.3185,-5.3185,-5.3185,-5.3185,-5.3185,-5.3185,-5.3185,-5.3185,-5.3185,-5.3185,-5.3185,-5.3157,-5.3007,-5.2715,-5.2355,-5.1942,-5.1194,-5.0752,-5.0939,-5.0538,-5.0399,-5.0673,-5.0712,-5.0712,-5.0712,-5.0712,-5.0712,-5.0712,-5.0712,-5.0712,-5.0712,-5.2087,-5.2953,-5.3203,-5.4645,-5.5338,-5.5338,-5.5338,-5.4895,-4.0096,-4.0096,-4.0096,-4.0096,-4.0343,-4.0924,-4.2275,-4.3731,-4.5254,-4.678,-4.7351,-4.7718,-4.8214,-4.8306,-4.8306,-4.8306,-4.9719,-5.0802,-5.0802,-5.2197,-5.3185,-5.3185,-5.3185,-5.3185,-5.3185,-5.3185,-5.3185,-5.3185,-5.3185,-5.3185,-5.3185,-5.3185,-5.3185,-5.3185,-5.3185,-5.3185,-5.3185,-5.2894,-5.2729,-5.2711,-5.1903,-5.1775,-5.227,-5.2582,-5.2729,-5.2747,-5.3078,-5.3185,-5.3185,-5.3185,-5.3185,-5.3185,-5.3185,-5.3185,-5.3185,-5.3185,-5.3185,-5.3185,-5.3185,-5.3185,-5.3185,-5.3185,-5.3185,-5.3185,-5.3185,-5.3185,-5.3185,-5.3185,-5.3185,-5.3185,-5.3185,-5.3185,-5.3185,-5.3185,-5.3185,-5.3185,-5.3185,-5.3185,-5.3185,-5.3185,-5.3185,-5.3185,-5.3185,-5.3185,-5.3185,-5.3185,-5.2957,-5.2586,-5.2004,-5.1632,-5.1393,-5.1318,-5.119,-5.1061,-5.0958,-5.1084,-5.1029,-5.0731,-5.0712,-5.0712,-5.0712,-5.0712,-5.0712,-5.0712,-5.2356,-5.3203,-5.3203,-5.4876,-5.5703,-5.5703,-5.5703,-5.5434,-4.0096,-4.0096,-4.0096,-4.0096,-4.0197,-4.084,-4.2832,-4.4779,-4.6299,-4.6919,-4.7677,-4.821,-4.821,-4.8267,-4.8306,-4.8306,-4.9719,-5.0802,-5.0802,-5.2197,-5.3185,-5.3185,-5.3185,-5.3185,-5.3185,-5.3185,-5.3185,-5.3185,-5.3185,-5.3185,-5.3185,-5.3185,-5.3185,-5.3185,-5.3185,-5.3148,-5.3096,-5.2362,-5.1958,-5.1867,-5.1077,-5.0692,-5.0729,-5.1518,-5.1922,-5.2032,-5.2858,-5.3185,-5.3185,-5.3185,-5.3185,-5.3185,-5.3185,-5.3185,-5.3185,-5.3185,-5.3185,-5.3185,-5.3185,-5.3185,-5.3185,-5.3185,-5.3185,-5.3185,-5.3185,-5.3185,-5.3185,-5.3185,-5.3185,-5.3185,-5.3185,-5.3185,-5.3185,-5.3185,-5.3185,-5.3185,-5.3185,-5.3185,-5.3185,-5.3185,-5.3185,-5.3185,-5.3185,-5.3185,-5.3185,-5.3185,-5.3185,-5.2949,-5.2197,-5.2303,-5.2196,-5.147,-5.2047,-5.2182,-5.1485,-5.1751,-5.1672,-5.0971,-5.0943,-5.0904,-5.0865,-5.075,-5.0712,-5.0712,-5.2356,-5.3203,-5.3203,-5.4876,-5.5703,-5.5703,-5.5703,-5.5673,-4.0096,-4.0096,-4.0096,-4.0096,-4.0976,-4.209,-4.3074,-4.453,-4.5817,-4.6415,-4.7111,-4.7593,-4.7593,-4.7977,-4.8306,-4.8306,-4.9719,-5.0802,-5.0802,-5.2197,-5.3185,-5.3185,-5.3185,-5.3185,-5.3185,-5.3185,-5.3185,-5.3185,-5.3185,-5.3185,-5.3185,-5.3185,-5.3185,-5.3185,-5.3185,-5.2913,-5.2252,-5.2087,-5.1665,-5.1041,-5.0233,-4.9867,-4.9904,-5.0692,-5.1389,-5.2032,-5.2858,-5.3185,-5.3185,-5.3185,-5.3185,-5.3185,-5.3185,-5.3185,-5.3185,-5.3185,-5.3185,-5.3185,-5.3185,-5.3185,-5.3185,-5.3185,-5.3185,-5.3185,-5.3185,-5.3185,-5.3185,-5.3185,-5.3185,-5.3185,-5.3185,-5.3185,-5.3185,-5.3185,-5.3185,-5.3185,-5.3185,-5.3185,-5.3185,-5.3185,-5.3185,-5.3185,-5.3185,-5.3185,-5.3185,-5.3185,-5.3185,-5.3151,-5.2968,-5.2465,-5.2151,-5.2215,-5.185,-5.1776,-5.2284,-5.2399,-5.2518,-5.2644,-5.2664,-5.2521,-5.2212,-5.1233,-5.0712,-5.0712,-5.2356,-5.3203,-5.3203,-5.4876,-5.5703,-5.5703,-5.5703,-5.5524,-4.0096,-4.0096,-4.0096,-4.0096,-4.0933,-4.1952,-4.2663,-4.3674,-4.4705,-4.5399,-4.6542,-4.7406,-4.7406,-4.7897,-4.8306,-4.8306,-4.9719,-5.0802,-5.0802,-5.2197,-5.3185,-5.3185,-5.3185,-5.306,-5.2707,-5.2662,-5.2531,-5.2219,-5.2486,-5.2662,-5.2662,-5.302,-5.3185,-5.3185,-5.2839,-5.2417,-5.1995,-5.1244,-5.0657,-5.0215,-4.937,-4.8967,-4.9003,-4.9829,-5.0655,-5.1463,-5.2289,-5.2637,-5.2656,-5.3041,-5.3185,-5.3185,-5.3185,-5.3185,-5.3185,-5.3185,-5.3185,-5.3185,-5.3185,-5.3185,-5.3185,-5.3185,-5.3185,-5.3185,-5.3185,-5.3185,-5.3185,-5.3185,-5.3185,-5.3185,-5.3185,-5.3185,-5.3185,-5.3185,-5.3185,-5.3185,-5.3185,-5.3185,-5.3185,-5.3185,-5.3185,-5.3185,-5.3185,-5.3185,-5.3185,-5.3185,-5.3185,-5.3185,-5.3185,-5.2839,-5.2649,-5.2817,-5.2623,-5.2519,-5.2551,-5.2763,-5.2797,-5.2597,-5.2571,-5.2481,-5.2271,-5.163,-5.1274,-5.1274,-5.2533,-5.32,-5.32,-5.4491,-5.5134,-5.5134,-5.5134,-5.5007,-4.0096,-4.0096,-4.0096,-4.0096,-4.0646,-4.1373,-4.1965,-4.2777,-4.3606,-4.4248,-4.582,-4.7106,-4.7194,-4.7736,-4.8172,-4.8287,-4.9591,-5.0582,-5.0582,-5.1867,-5.2803,-5.2803,-5.2803,-5.255,-5.1943,-5.1872,-5.1634,-5.0969,-5.1421,-5.1724,-5.1697,-5.2284,-5.266,-5.2763,-5.2142,-5.172,-5.1573,-5.0271,-4.9519,-4.9372,-4.8636,-4.8306,-4.8324,-4.904,-4.9811,-5.0637,-5.1444,-5.1775,-5.1848,-5.2656,-5.3004,-5.3023,-5.3148,-5.3185,-5.3185,-5.3185,-5.3185,-5.3185,-5.3185,-5.3185,-5.3185,-5.3185,-5.3185,-5.3185,-5.3185,-5.3185,-5.3185,-5.3185,-5.3185,-5.3185,-5.3185,-5.3185,-5.3185,-5.3185,-5.3185,-5.3185,-5.3185,-5.3185,-5.3185,-5.3185,-5.3185,-5.3185,-5.3185,-5.3185,-5.3185,-5.3185,-5.3185,-5.3185,-5.3185,-5.3185,-5.3185,-5.3185,-5.3504,-5.3423,-5.279,-5.3069,-5.3034,-5.2382,-5.2344,-5.2313,-5.2234,-5.2234,-5.2202,-5.2121,-5.2827,-5.3208,-5.3208,-5.4072,-5.4503,-5.4503,-5.4503,-5.4471,-4.0096,-4.0096,-4.0096,-4.0096,-4.0646,-4.1238,-4.1322,-4.2422,-4.3426,-4.3527,-4.4724,-4.5908,-4.643,-4.7066,-4.7677,-4.8229,-4.9114,-4.9757,-4.9757,-5.0545,-5.1132,-5.1132,-5.1132,-5.1106,-5.1053,-5.1056,-5.0803,-5.0189,-5.0239,-5.0234,-5.011,-5.0204,-5.0522,-5.1094,-5.1022,-5.0618,-4.9941,-4.9721,-4.9225,-4.8471,-4.8361,-4.8306,-4.8306,-4.8416,-4.893,-4.9812,-5.06,-5.0967,-5.1022,-5.183,-5.216,-5.2234,-5.2931,-5.3185,-5.3185,-5.3185,-5.3185,-5.3185,-5.3185,-5.3185,-5.3185,-5.3185,-5.3185,-5.3185,-5.3185,-5.3185,-5.3185,-5.3185,-5.3185,-5.3185,-5.3185,-5.3185,-5.3185,-5.3185,-5.3185,-5.3185,-5.3185,-5.3185,-5.3185,-5.3185,-5.3185,-5.3185,-5.3185,-5.3185,-5.3185,-5.3185,-5.3185,-5.3185,-5.3185,-5.3185,-5.3185,-5.3185,-5.3251,-5.3367,-5.3609,-5.3665,-5.3824,-5.4132,-5.4163,-5.3967,-5.3551,-5.3552,-5.3386,-5.3027,-5.315,-5.3208,-5.3208,-5.4072,-5.4503,-5.4503,-5.4503,-5.4272,-4.0096,-4.0096,-4.0096,-4.0096,-4.035,-4.0679,-4.1119,-4.1711,-4.2405,-4.3223,-4.3885,-4.4663,-4.5695,-4.6407,-4.6932,-4.7198,-4.7965,-4.8546,-4.8546,-4.9212,-4.974,-4.974,-4.974,-4.9595,-4.9195,-4.9154,-4.8898,-4.8273,-4.8564,-4.8911,-4.9216,-4.9613,-5.0112,-5.0782,-5.0362,-4.9978,-4.961,-4.9114,-4.8673,-4.8306,-4.8306,-4.8306,-4.8306,-4.8306,-4.8508,-4.8912,-4.9756,-5.0123,-5.0178,-5.1004,-5.1334,-5.1353,-5.172,-5.2142,-5.2527,-5.2527,-5.2821,-5.3185,-5.3185,-5.3185,-5.3185,-5.3185,-5.3185,-5.3185,-5.3185,-5.3185,-5.3185,-5.3185,-5.3185,-5.3185,-5.3185,-5.3185,-5.3185,-5.3185,-5.3185,-5.3185,-5.3185,-5.3185,-5.3185,-5.3185,-5.3185,-5.3185,-5.3185,-5.3185,-5.3185,-5.3185,-5.3185,-5.3185,-5.3185,-5.3185,-5.3185,-5.3185,-5.3185,-5.3272,-5.3444,-5.3464,-5.3545,-5.3758,-5.3777,-5.3681,-5.3464,-5.3464,-5.338,-5.3206,-5.3211,-5.32,-5.32,-5.3572,-5.3777,-5.3777,-5.3777,-5.3662,-4.0096,-4.0096,-4.0096,-4.0096,-4.0096,-4.0248,-4.0798,-4.1068,-4.1508,-4.2598,-4.2997,-4.3498,-4.4732,-4.5618,-4.6216,-4.6383,-4.6944,-4.7357,-4.7357,-4.7902,-4.8256,-4.8256,-4.8256,-4.8055,-4.7559,-4.7496,-4.7203,-4.6556,-4.6976,-4.7453,-4.7927,-4.8591,-4.9238,-4.99,-4.9495,-4.928,-4.928,-4.8618,-4.8306,-4.8306,-4.8306,-4.8306,-4.8306,-4.8306,-4.8306,-4.8343,-4.8985,-4.928,-4.9335,-5.016,-5.049,-5.0508,-5.0729,-5.1169,-5.1701,-5.1701,-5.2197,-5.2913,-5.2913,-5.3041,-5.3185,-5.3185,-5.3185,-5.3185,-5.3185,-5.3185,-5.3185,-5.3185,-5.3185,-5.3185,-5.3185,-5.3185,-5.3185,-5.3185,-5.3185,-5.3185,-5.3185,-5.3185,-5.3185,-5.3185,-5.3185,-5.3185,-5.3185,-5.3185,-5.3185,-5.3185,-5.3185,-5.3185,-5.3185,-5.3185,-5.3185,-5.3185,-5.3185,-5.3185,-5.3185,-5.3185,-5.3185,-5.3185,-5.3185,-5.3185,-5.3185,-5.3185,-5.3185,-5.3185,-5.3185,-5.3185,-5.3185,-5.3185,-5.3185,-5.3185,-5.3185,-5.3185,-4.0096,-4.0096,-4.0096,-4.0096,-4.0096,-4.0113,-4.0146,-4.0696,-4.1221,-4.1305,-4.1863,-4.2574,-4.3362,-4.4627,-4.5732,-4.6312,-4.6442,-4.646,-4.646,-4.6495,-4.6531,-4.6531,-4.6531,-4.6572,-4.6655,-4.6645,-4.6402,-4.5811,-4.5783,-4.5766,-4.5693,-4.6242,-4.688,-4.7572,-4.8088,-4.8379,-4.8379,-4.8324,-4.8306,-4.8306,-4.8306,-4.8306,-4.8306,-4.8306,-4.8306,-4.8306,-4.8361,-4.8379,-4.8434,-4.9317,-4.9665,-4.9739,-5.0508,-5.0839,-5.0857,-5.0857,-5.1371,-5.205,-5.205,-5.2564,-5.3185,-5.3185,-5.3185,-5.3185,-5.3185,-5.3185,-5.3185,-5.3185,-5.3185,-5.3185,-5.3185,-5.3185,-5.3185,-5.3185,-5.3185,-5.3185,-5.3185,-5.3185,-5.3185,-5.3185,-5.3185,-5.3185,-5.3185,-5.3185,-5.3185,-5.3185,-5.3185,-5.3185,-5.3185,-5.3185,-5.3185,-5.3185,-5.3185,-5.3185,-5.3185,-5.3185,-5.3185,-5.3185,-5.3185,-5.3185,-5.3185,-5.3185,-5.3185,-5.3185,-5.3185,-5.3185,-5.3185,-5.3185,-5.3185,-5.3185,-5.3185,-5.3185,-4.0096,-4.0096,-4.0096,-4.0096,-4.0096,-4.0096,-4.0096,-4.0316,-4.0629,-4.1102,-4.1407,-4.183,-4.2557,-4.3501,-4.439,-4.5119,-4.5258,-4.5258,-4.5258,-4.5258,-4.5258,-4.5258,-4.5258,-4.5255,-4.532,-4.5326,-4.5233,-4.5004,-4.4976,-4.5141,-4.5477,-4.5707,-4.6112,-4.6733,-4.6977,-4.7302,-4.7715,-4.8113,-4.8306,-4.8306,-4.8306,-4.8306,-4.8306,-4.8306,-4.8306,-4.8306,-4.8306,-4.8306,-4.8324,-4.8636,-4.8765,-4.8783,-4.9077,-4.9536,-5.0013,-5.0013,-5.0527,-5.1224,-5.1224,-5.1426,-5.1665,-5.1665,-5.1665,-5.1756,-5.227,-5.2435,-5.2546,-5.3059,-5.3185,-5.3185,-5.3185,-5.3185,-5.3185,-5.3185,-5.3185,-5.3185,-5.3185,-5.3185,-5.3185,-5.3185,-5.3185,-5.3185,-5.3185,-5.3185,-5.3185,-5.3185,-5.3185,-5.3185,-5.3185,-5.3185,-5.3185,-5.3185,-5.3185,-5.3185,-5.3185,-5.3185,-5.3185,-5.3185,-5.3185,-5.3185,-5.3185,-5.3185,-5.3185,-5.3185,-5.3185,-5.3185,-5.3185,-5.3185,-5.3185,-5.3185,-5.3185,-5.3185,-4.0096,-4.0096,-4.0096,-4.0096,-4.0096,-4.0096,-4.0096,-4.0096,-4.0248,-4.073,-4.0832,-4.1052,-4.1779,-4.2337,-4.2929,-4.369,-4.4028,-4.4198,-4.4198,-4.4445,-4.4615,-4.4615,-4.4615,-4.4615,-4.4615,-4.4615,-4.4615,-4.4615,-4.4615,0.0,-4.5178,-4.5381,-4.5783,-4.6383,-4.6618,-4.6955,-4.7385,-4.8015,-4.8306,-4.8306,-4.8306,-4.8306,-4.8306,-4.8306,-4.8306,-4.8306,-4.8306,-4.8306,-4.8306,-4.8306,-4.8306,-4.8306,-4.8306,-4.8655,-4.915,-4.915,-4.9682,-5.0398,-5.0398,-5.0563,-5.0802,-5.0802,-5.0802,-5.0894,-5.1444,-5.1591,-5.1756,-5.2564,-5.2803,-5.2858,-5.3133,-5.3185,-5.3185,-5.3185,-5.3185,-5.3185,-5.3185,-5.3185,-5.3185,-5.3185,-5.3185,-5.3185,-5.3185,-5.3185,-5.3185,-5.3185,-5.3185,-5.3185,-5.3185,-5.3185,-5.3185,-5.3185,-5.3185,-5.3185,-5.3185,-5.3185,-5.3185,-5.3185,-5.3185,-5.3185,-5.3185,-5.3185,-5.3185,-5.3185,-5.3185,-5.3185,-5.3185,-5.3185,-5.3185,-5.3185,-5.3185,-5.3185,0.0,0.0,0.0,-4.0096,-4.0096,-4.0096,-4.0096,-4.0096,-4.0096,-4.0096,-4.0096,-4.0333,-4.1035,-4.117,-4.1407,-4.2117,-4.2878,-4.3358,-4.3358,-4.4045,-4.453,-4.453,-4.453,-4.4547,-4.4564,-4.4564,-4.4581,-4.4615,-4.4615,-4.4615,-4.4615,-4.5169,-4.5732,-4.6336,-4.6999,-4.7342,-4.7342,-4.7957,-4.8267,-4.8267,-4.8287,-4.8306,-4.8306,-4.8306,-4.8306,-4.8306,-4.8306,-4.8306,-4.8306,-4.8306,-4.8306,-4.8306,-4.8306,-4.8306,-4.8306,-4.8306,-4.8838,-4.9555,-4.9555,-5.0068,-5.0729,-5.0729,-5.0729,-5.0729,-5.0765,-5.0765,-5.093,-5.1738,-5.1958,-5.2142,-5.2968,-5.3167,-5.3185,-5.3185,-5.3185,-5.3185,-5.3185,-5.3185,-5.3185,-5.3185,-5.3185,-5.3185,-5.3185,-5.3185,-5.3185,-5.3185,-5.3185,-5.3185,-5.3185,-5.3185,-5.3185,-5.3185,-5.3185,-5.3185,-5.3185,-5.3185,-5.3185,-5.3185,-5.3185,-5.3185,-5.3185,-5.3185,-5.3185,-5.3185,-5.3185,-5.3185,-5.3185,-5.3185,-5.3185,-5.3185,-5.3185,-5.3185,-4.0096,0.0,0.0,0.0,0.0,0.0,-4.0096,-4.0096,-4.0096,-4.0096,-4.0096,-4.0163,-4.0383,-4.0417,-4.0485,-4.0688,-4.1779,-4.2591,-4.2591,-4.2794,-4.2956,-4.2956,-4.2956,-4.3132,-4.369,-4.3741,-4.3978,0.0,-4.4615,-4.4615,-4.4615,-4.4776,-4.4934,-4.5089,-4.5699,-4.6032,-4.6032,-4.7106,-4.7635,-4.7656,-4.8094,-4.8306,-4.8306,-4.8306,-4.8306,-4.8306,-4.8306,-4.8306,-4.8306,-4.8306,-4.8306,-4.8306,-4.8306,-4.8306,-4.8306,-4.8306,-4.8453,-4.8655,-4.8655,-4.882,-4.9003,-4.9003,-4.9003,-4.9114,-4.9738,-4.9941,-5.0106,-5.0912,-5.1132,-5.1316,-5.2123,-5.2766,-5.3185,-5.3185,-5.3185,-5.3185,-5.3185,-5.3185,-5.3185,-5.3185,-5.3185,-5.3185,-5.3185,-5.3185,-5.3185,-5.3185,-5.3185,-5.3185,-5.3185,-5.3185,-5.3185,-5.3185,-5.3185,-5.3185,-5.3185,-5.3185,-5.3185,-5.3185,-5.3185,-5.3185,-5.3185,-5.3185,-5.3185,-5.3185,-5.3185,-5.3185,-5.3185,-5.3185,-5.3185,-5.3185,-5.3185,-5.3185,0.0,0.0,0.0,-4.0096,0.0,0.0,-4.0096,-4.0096,-4.0096,-4.0096,-4.0096,-4.0096,-4.0096,-4.0096,-4.0096,-4.0096,-4.0823,-4.1474,-4.1796,-4.21,-4.2286,-4.2286,-4.2286,-4.2472,-4.2912,-4.2946,-4.3149,-4.3616,-4.365,-4.3758,-4.4079,-4.4429,-4.4615,-4.4615,-4.5178,-4.5622,-4.5865,-4.6887,-4.753,-4.7777,-4.8114,-4.8306,-4.8306,-4.8306,-4.8306,-4.8306,-4.8306,-4.8306,-4.8306,-4.8306,-4.8306,-4.8306,-4.8306,-4.8306,-4.8306,-4.8306,-4.8306,-4.8306,-4.8306,-4.8306,-4.8306,-4.8306,-4.8306,-4.8398,-4.8893,-4.9058,-4.9224,-5.0068,-5.0784,-5.1408,-5.1867,-5.2601,-5.3185,-5.3185,-5.3185,-5.3185,-5.3185,-5.3185,-5.3185,-5.3185,-5.3185,-5.3185,-5.3185,-5.3185,-5.3185,-5.3185,-5.3185,-5.3185,-5.3185,-5.3185,-5.3185,-5.3185,-5.3185,-5.3185,-5.3185,-5.3185,-5.3185,-5.3185,-5.3185,-5.3185,-5.3185,-5.3185,-5.3185,-5.3185,-5.3185,-5.3185,-5.3185,-5.3185,-5.3185,-5.3185,-5.3185,-5.3185,0.0,0.0,0.0,0.0,-4.0096,0.0,-4.0096,-4.0096,-4.0096,-4.0096,-4.0096,-4.0096,-4.0096,-4.0096,-4.0096,-4.0096,-4.0096,-4.0333,-4.0984,-4.1644,-4.2049,-4.2049,-4.2049,-4.2083,-4.2168,-4.2168,-4.2202,-4.2286,-4.2286,-4.2591,-4.3223,-4.4028,-4.4479,-4.4479,-4.5064,-4.5673,-4.6192,-4.6932,-4.7572,-4.8094,-4.823,-4.8306,-4.8306,-4.8306,-4.8306,-4.8306,-4.8306,-4.8306,-4.8306,-4.8306,-4.8306,-4.8306,-4.8306,-4.8306,-4.8306,-4.8306,-4.8306,-4.8306,-4.8306,-4.8306,-4.8306,-4.8306,-4.8306,-4.8306,-4.8306,-4.8306,-4.8471,-4.9243,-5.0565,-5.1738,-5.183,-5.2454,-5.3096,-5.3167,-5.3185,-5.3185,-5.3185,-5.3185,-5.3185,-5.3185,-5.3185,-5.3185,-5.3185,-5.3185,-5.3185,-5.3185,-5.3185,-5.3185,-5.3185,-5.3185,-5.3185,-5.3185,-5.3185,-5.3185,-5.3185,-5.3185,-5.3185,-5.3185,-5.3185,-5.3185,-5.3185,-5.3185,-5.3185,-5.3185,-5.3185,-5.3185,-5.3185,-5.3185,-5.3185,-5.3185,-5.3185,-5.3185,0.0,0.0,0.0,0.0,-4.0096,0.0,-4.0096,-4.0096,-4.0096,-4.0096,-4.0096,-4.0096,-4.0096,-4.0096,-4.0096,-4.0096,-4.0096,-4.0146,-4.0299,-4.0451,-4.0536,-4.0536,-4.0536,-4.0773,-4.1356,-4.1407,-4.166,-4.2252,-4.2286,-4.2354,-4.2506,-4.3234,-4.3639,-4.3639,-4.437,-4.4841,-4.4944,-4.6039,-4.6664,-4.6778,-4.7818,-4.8306,-4.8306,-4.8306,-4.8306,-4.8306,-4.8306,-4.8306,-4.8306,-4.8306,-4.8306,-4.8306,-4.8306,-4.8306,-4.8306,-4.8306,-4.8306,-4.8306,-4.8306,-4.8306,-4.8306,-4.8306,-4.8306,-4.8306,-4.8306,-4.8306,-4.8343,-4.8508,-4.9242,-5.0141,-5.0857,-5.1628,-5.2399,-5.3059,-5.3185,-5.3185,-5.3185,-5.3185,-5.3185,-5.3185,-5.3185,-5.3185,-5.3185,-5.3185,-5.3185,-5.3185,-5.3185,-5.3185,-5.3185,-5.3185,-5.3185,-5.3185,-5.3185,-5.3185,-5.3185,-5.3185,-5.3185,-5.3185,-5.3185,-5.3185,-5.3185,-5.3185,-5.3185,-5.3185,-5.3185,-5.3185,-5.3185,-5.3185,-5.3185,-5.3185,-5.3185,-5.3185,0.0,0.0,0.0,-4.0096,0.0,0.0,0.0,-4.0096,-4.0096,-4.0096,-4.0096,-4.0096,-4.0096,-4.0096,-4.0096,-4.0096,-4.0096,-4.0096,-4.0096,-4.0096,-4.0096,-4.0096,-4.0096,-4.0248,-4.0612,-4.0646,-4.0781,-4.1153,-4.1542,-4.1745,-4.1745,-4.2455,-4.3031,-4.3375,-4.3792,-4.4357,-4.5035,-4.594,-4.6571,-4.691,-4.7838,-4.8306,-4.8306,-4.8306,-4.8306,-4.8306,-4.8306,-4.8306,-4.8306,-4.8306,-4.8306,-4.8306,-4.8306,-4.8306,-4.8306,-4.8306,-4.8306,-4.8306,-4.8306,-4.8306,-4.8306,-4.8306,-4.8306,-4.8306,-4.8306,-4.8306,-4.8306,-4.8306,-4.8875,-4.9701,-5.0563,-5.1389,-5.2197,-5.3023,-5.3185,-5.3185,-5.3185,-5.3185,-5.3185,-5.3185,-5.3185,-5.3185,-5.3185,-5.3185,-5.3185,-5.3185,-5.3185,-5.3185,-5.3185,-5.3185,-5.3185,-5.3185,-5.3185,-5.3185,-5.3185,-5.3185,-5.3185,-5.3185,-5.3185,-5.3185,-5.3185,-5.3185,-5.3185,-5.3185,-5.3185,-5.3185,-5.3185,-5.3185,-5.3185,-5.3185,-5.3185,-5.3185,0.0,0.0,0.0,0.0,0.0,-4.0096,0.0,0.0,0.0,-4.0096,-4.0096,-4.0096,-4.0096,-4.0096,0.0,-4.0096,0.0,0.0,0.0,-4.0096,0.0,-4.0096,-4.0096,-4.0096,-4.0096,-4.0096,-4.0096,-4.0096,-4.0646,-4.0984,-4.0984,-4.1677,-4.2354,-4.2953,-4.324,-4.3946,-4.5079,-4.5845,-4.6501,-4.7039,-4.7777,-4.8132,-4.8132,-4.8248,-4.8306,-4.8306,-4.8306,-4.8306,-4.8306,-4.8306,-4.8306,-4.8306,-4.8306,-4.8306,-4.8306,-4.8306,-4.8306,-4.8306,-4.8306,-4.8306,-4.8306,-4.8306,-4.8306,-4.8306,-4.8306,-4.8306,-4.8306,-4.8306,-4.8765,-4.9499,-5.0527,-5.1279,-5.2013,-5.2986,-5.3185,-5.3185,-5.3185,-5.3185,-5.3185,-5.3185,-5.3185,-5.3185,-5.3185,-5.3185,-5.3185,-5.3185,-5.3185,-5.3185,-5.3185,-5.3185,-5.3185,-5.3185,-5.3185,-5.3185,-5.3185,-5.3185,-5.3185,-5.3185,-5.3185,-5.3185,-5.3185,-5.3185,-5.3185,-5.3185,-5.3185,-5.3185,-5.3185,-5.3185,-5.3185,-5.3185,-5.3185,-5.3185,0.0,0.0,0.0,0.0,-4.0096,0.0,-4.0096,0.0,-4.0096,-4.0096,0.0,-4.0096,-4.0096,0.0,0.0,0.0,0.0,0.0,-4.0096,-4.0096,-4.0096,-4.0096,-4.0096,-4.0096,-4.0096,-4.0096,-4.0096,-4.0096,-4.018,-4.0231,-4.0231,-4.0916,-4.1373,-4.1457,-4.2716,-4.3481,-4.3647,-4.4949,-4.5648,-4.5732,-4.6932,-4.7491,-4.753,-4.8055,-4.8306,-4.8306,-4.8306,-4.8306,-4.8306,-4.8306,-4.8306,-4.8306,-4.8306,-4.8306,-4.8306,-4.8306,-4.8306,-4.8306,-4.8306,-4.8306,-4.8306,-4.8306,-4.8306,-4.8306,-4.8306,-4.8306,-4.8306,-4.8306,-4.8379,-4.8802,-5.0398,-5.0875,-5.1316,-5.2858,-5.3185,-5.3185,-5.3185,-5.3185,-5.3185,-5.3185,-5.3185,-5.3185,-5.3185,-5.3185,-5.3185,-5.3185,-5.3185,-5.3185,-5.3185,-5.3185,-5.3185,-5.3185,-5.3185,-5.3185,-5.3185,-5.3185,-5.3185,-5.3185,-5.3185,-5.3185,-5.3185,-5.3185,-5.3185,-5.3185,-5.3185,-5.3185,-5.3185,-5.3185,-5.3185,-5.3185,-5.3185,-5.3185,0.0,0.0,0.0,0.0,0.0,0.0,-4.0096,0.0,-4.0096,0.0,0.0,0.0,0.0,0.0,0.0,0.0,-4.0096,-4.0096,0.0,0.0,-4.0096,-4.0096,0.0,0.0,-4.0096,-4.0096,-4.0096,-4.0096,-4.0096,-4.0096,-4.0096,-4.0375,-4.0747,-4.1187,-4.1813,-4.2513,-4.3375,-4.4362,-4.5086,-4.5511,-4.6796,-4.7406,-4.7428,-4.8017,-4.8306,-4.8287,-4.7937,-4.7995,-4.8267,-4.7917,-4.7977,-4.8306,-4.8306,-4.8306,-4.8306,-4.8306,-4.8306,-4.8306,-4.8306,-4.8306,-4.8306,-4.8306,-4.8306,-4.8306,-4.8306,-4.8306,-4.8306,-4.8306,-4.8306,-4.8691,-5.0362,-5.0802,-5.1206,-5.2818,-5.3185,-5.3185,-5.3185,-5.3185,-5.3185,-5.3185,-5.3185,-5.3185,-5.3185,-5.3185,-5.3185,-5.3185,-5.3185,-5.3185,-5.3185,-5.3185,-5.3185,-5.3185,-5.3185,-5.3185,-5.3185,-5.3185,-5.3185,-5.3185,-5.3185,-5.3185,-5.3185,-5.3185,-5.3185,-5.3185,-5.3185,-5.3185,-5.3185,-5.3185,-5.3185,-5.3185,-5.3185,-5.3185,-3.9833,0.0,0.0,0.0,0.0,0.0,0.0,0.0,0.0,0.0,0.0,0.0,0.0,0.0,0.0,0.0,0.0,-4.0096,0.0,-4.0096,0.0,-4.0096,0.0,0.0,0.0,-4.0096,-4.0096,-4.0096,-4.0096,-4.0096,-4.0096,-4.0096,-4.0367,-4.0882,-4.1085,-4.1711,-4.2784,-4.3682,-4.4406,-4.4931,-4.6247,-4.6864,-4.6927,-4.7677,-4.8055,-4.8035,-4.7756,-4.7897,-4.8249,-4.7635,-4.7756,-4.8287,-4.8114,-4.8134,-4.8306,-4.8306,-4.8306,-4.8306,-4.8306,-4.8306,-4.8306,-4.8306,-4.8306,-4.8306,-4.8306,-4.8306,-4.8306,-4.8306,-4.8471,-4.8985,-5.0435,-5.0967,-5.1481,-5.2876,-5.3185,-5.3185,-5.3185,-5.3185,-5.3185,-5.3185,-5.3185,-5.3185,-5.3185,-5.3185,-5.3185,-5.3185,-5.3185,-5.3185,-5.3185,-5.3185,-5.3185,-5.3185,-5.3185,-5.3185,-5.3185,-5.3185,-5.3185,-5.3185,-5.3185,-5.3185,-5.3185,-5.3185,-5.3185,-5.3185,-5.3185,-5.3185,-5.3185,-5.3185,-5.3185,-5.3185,-5.3185,-5.3185,0.0,0.0,0.0,-3.9139,0.0,0.0,0.0,0.0,-4.0096,0.0,0.0,0.0,0.0,0.0,0.0,0.0,0.0,0.0,0.0,-4.0096,-4.0096,-4.0096,-4.0096,0.0,0.0,-4.0096,-4.0096,-4.0096,-4.0096,-4.0096,-4.0096,-4.0096,-4.0113,-4.013,-4.0832,-4.1221,-4.1271,-4.2692,-4.3447,-4.3481,-4.4879,-4.5545,-4.5597,-4.6864,-4.7428,-4.7449,-4.8035,-4.8287,-4.8249,-4.7635,-4.7756,-4.823,-4.7674,-4.7777,-4.8306,-4.8306,-4.8306,-4.8306,-4.8306,-4.8306,-4.8306,-4.8306,-4.8306,-4.8306,-4.8306,-4.8306,-4.8306,-4.8306,-4.8912,-4.9757,-5.0582,-5.1371,-5.216,-5.3004,-5.3185,-5.3185,-5.3185,-5.3185,-5.3185,-5.3185,-5.3185,-5.3185,-5.3185,-5.3185,-5.3185,-5.3185,-5.3185,-5.3185,-5.3185,-5.3185,-5.3185,-5.3185,-5.3185,-5.3185,-5.3185,-5.3185,-5.3185,-5.3185,-5.3185,-5.3185,-5.3185,-5.3185,-5.3185,-5.3185,-5.3185,-5.3185,-5.3185,-5.3185,-5.3185,-5.3185,-5.3185,-5.3185,0.0,0.0,-4.0045,-3.9756,0.0,0.0,0.0,0.0,0.0,0.0,0.0,0.0,0.0,0.0,0.0,0.0,0.0,0.0,0.0,-4.0096,-4.0096,-4.0096,-4.0096,-4.0096,0.0,0.0,-4.0096,-4.0096,-4.0096,-4.0096,-4.0096,-4.0096,-4.0096,-4.0096,-4.035,-4.0696,-4.1204,-4.1694,-4.2412,-4.342,-4.4337,-4.5034,-4.5537,-4.6359,-4.6977,-4.7385,-4.7132,-4.7302,-4.7695,-4.747,-4.753,-4.7736,-4.7917,-4.8114,-4.8306,-4.8306,-4.8306,-4.8306,-4.8306,-4.8306,-4.8306,-4.8306,-4.8306,-4.8306,-4.8306,-4.8691,-4.917,-4.917,-4.9756,-5.0582,-5.1389,-5.1793,-5.2197,-5.3023,-5.3185,-5.3185,-5.3185,-5.3185,-5.3185,-5.3185,-5.3185,-5.3185,-5.3185,-5.3185,-5.3185,-5.3185,-5.3185,-5.3185,-5.3185,-5.3185,-5.3185,-5.3185,-5.3185,-5.3185,-5.3185,-5.3185,-5.3185,-5.3185,-5.3185,-5.3185,-5.3185,-5.3185,-5.2959,-5.2468,-5.2468,-5.2468,-5.2468,-5.2036,-5.2036,-5.2468,-5.2012,-5.206,-3.8908,-3.9289,0.0,-3.9662,-3.9901,0.0,-4.0096,0.0,-4.0096,0.0,0.0,0.0,0.0,0.0,0.0,0.0,0.0,0.0,0.0,-4.0096,-4.0096,-4.0096,-4.0096,-4.0096,-4.0096,-4.0096,-4.0096,-4.0096,-4.0096,-4.0096,-4.0096,-4.0096,-4.0096,-4.0096,-4.0096,-4.0333,-4.0798,-4.1068,-4.1813,-4.3014,-4.3715,-4.4422,-4.5205,-4.579,-4.6329,-4.6728,-4.6751,-4.6864,-4.7044,-4.7299,-4.7406,-4.7428,-4.7818,-4.8094,-4.8306,-4.8306,-4.8306,-4.8306,-4.8306,-4.8306,-4.8306,-4.8306,-4.8306,-4.8361,-4.8673,-4.9132,-4.961,-4.961,-5.038,-5.1279,-5.1499,-5.1995,-5.2564,-5.3096,-5.3185,-5.3185,-5.3185,-5.3185,-5.3185,-5.3185,-5.3185,-5.3185,-5.3185,-5.3185,-5.3185,-5.3185,-5.3185,-5.3185,-5.3185,-5.3185,-5.3185,-5.3185,-5.3185,-5.3185,-5.3185,-5.3185,-5.3082,-5.2831,-5.2809,-5.2702,-5.2463,-5.244,-5.2219,-5.1741,-5.1741,-5.1741,-5.1741,-5.1317,-5.1317,-5.1716,-5.1292,-5.1189]},{"header":{"parameterUnit":"m.s-1","parameterCategory":1,"la1":30.6,"la2":29.2853,"lo1":-89.7004,"lo2":-87.6739,"dy":0.0162,"dx":0.0183,"nx":112,"ny":82,"refTime":"2023-11-04T18:00:00:Z","depth":0,"parameterNumber":3,"parameterNumberName":"V-component_of_WINDS"},"data":[0.0,0.0,0.0,0.0,0.0,0.0,0.0,0.0,0.0,0.0,0.0,0.0,0.0,0.0,0.0,0.0,0.0,0.0,0.0,0.0,0.0,0.0,0.0,0.0,0.0,0.0,0.0,0.0,0.0,0.0,0.0,0.0,0.0,0.0,0.0,0.0,0.0,0.0,0.0,0.0,0.0,0.0,0.0,0.0,0.0,0.0,0.0,0.0,0.0,0.0,0.0,0.0,0.0,0.0,0.0,0.0,0.0,0.0,0.0,0.0,0.0,0.0,0.0,0.0,0.0,0.0,0.0,0.0,0.0,0.0,0.0,0.0,0.0,0.0,0.0,0.0,0.0,0.0,0.0,0.0,0.0,0.0,0.0,0.0,0.0,0.0,0.0,0.0,0.0,0.0,0.5783,0.5739,0.5545,0.5395,0.5395,0.5395,0.5395,0.5395,0.0,0.0,0.0,0.0,0.0,0.0,0.0,0.0,0.0,0.0,0.0,0.0,0.0,0.0,0.0,0.0,0.0,0.0,0.0,0.0,0.0,0.0,0.0,0.0,0.0,0.0,0.0,0.0,0.0,0.0,0.0,0.0,0.0,0.0,0.0,0.0,0.0,0.0,0.0,0.0,0.0,0.0,0.0,0.0,0.0,0.0,0.0,0.0,0.0,0.0,0.0,0.0,0.0,0.0,0.0,0.0,0.0,0.0,0.0,0.0,0.0,0.0,0.0,0.0,0.0,0.0,0.0,0.0,0.0,0.0,0.0,0.0,0.0,0.0,0.0,0.0,0.0,0.0,0.0,0.0,0.0,0.0,0.0,0.0,0.0,0.0,0.0,0.0,0.0,0.0,0.0,0.0,0.0,0.0,0.0,0.0,0.0,0.0,0.0,0.0,0.0,0.0,0.0,0.0,0.5705,0.5487,0.5423,0.5395,0.5395,0.5395,0.5395,0.5395,0.0,0.0,0.0,0.0,0.0,0.0,0.0,0.0,0.0,0.0,0.0,0.0,0.0,0.0,0.0,0.0,0.0,0.0,0.0,0.0,0.0,0.0,0.0,0.0,0.0,0.0,0.0,0.0,0.0,0.0,0.0,0.0,0.0,0.0,0.0,0.0,0.0,0.0,0.0,0.0,0.0,0.0,0.0,0.0,0.0,0.0,0.0,0.0,0.0,0.0,0.0,0.0,0.0,0.0,0.0,0.0,0.0,0.0,0.0,0.0,0.0,0.0,0.0,0.0,0.0,0.0,0.0,0.0,0.0,0.0,0.0,0.0,0.0,0.0,0.0,0.0,0.0,0.0,0.0,0.0,0.0,0.0,0.0,0.0,0.0,0.0,0.0,0.0,0.0,0.0,0.0,0.0,0.0,0.0,0.0,0.0,0.0,0.0,0.0,0.0,0.0,0.0,0.0,0.5304,0.5722,0.5542,0.5443,0.5395,0.5395,0.5395,0.5395,0.5395,0.5395,0.0,0.0,0.0,0.0,0.0,0.0,0.0,0.0,0.0,0.0,0.0,0.0,0.0,0.0,0.0,0.0,0.0,0.0,0.0,0.0,0.0,0.0,0.0,0.0,0.0,0.0,0.0,0.0,0.0,0.0,0.0,0.0,0.0,0.0,0.0,0.0,0.0,0.0,0.0,0.0,0.0,0.0,0.0,0.0,0.0,0.0,0.0,0.0,0.0,0.0,0.0,0.0,0.0,0.0,0.0,0.0,0.0,0.0,0.0,0.0,0.0,0.0,0.0,0.0,0.0,0.0,0.0,0.0,0.0,0.0,0.0,0.0,0.0,0.0,0.0,0.0,0.0,0.0,0.0,0.0,0.0,0.0,0.0,0.0,0.0,0.0,0.0,0.0,0.0,0.0,0.0,0.0,0.0,0.0,0.0,0.0,0.0,0.0,0.0,0.0,0.0,0.0,0.5442,0.58,0.5654,0.5539,0.545,0.545,0.5416,0.5395,0.5395,0.5395,0.0,0.0,0.0,0.0,0.0,0.0,0.0,0.0,0.0,0.0,0.0,0.0,0.0,0.0,0.0,0.0,0.0,0.0,0.0,0.0,0.0,0.0,0.0,0.0,0.0,0.0,0.0,0.0,0.0,0.0,0.0,0.0,0.0,0.0,0.0,0.0,0.0,0.0,0.0,0.0,0.0,0.0,0.0,0.0,0.0,0.0,0.0,0.0,0.0,0.0,0.0,0.0,0.0,0.0,0.0,0.0,0.0,0.0,0.0,0.0,0.0,0.0,0.0,0.0,0.0,0.0,0.0,0.0,0.0,0.0,0.0,0.0,0.0,0.0,0.0,0.0,0.0,0.0,0.0,0.0,0.0,0.0,0.0,0.0,0.0,0.0,0.0,0.0,0.0,0.0,0.0,0.0,0.0,0.0,0.0,0.0,0.0,0.0,0.0,0.0,0.0,0.0,0.5946,0.5919,0.5803,0.5657,0.5576,0.5576,0.5477,0.5395,0.5395,0.5395,0.0,0.0,0.0,0.0,0.0,0.0,0.0,0.0,0.0,0.0,0.0,0.0,0.0,0.0,0.0,0.0,0.0,0.0,0.0,0.0,0.0,0.0,0.0,0.0,0.0,0.0,0.0,0.0,0.0,0.0,0.0,0.0,0.0,0.0,0.0,0.0,0.0,0.0,0.0,0.0,0.0,0.0,0.0,0.0,0.0,0.0,0.0,0.0,0.0,0.0,0.0,0.0,0.0,0.0,0.0,0.0,0.0,0.0,0.0,0.0,0.0,0.0,0.0,0.0,0.0,0.0,0.0,0.0,0.0,0.0,0.0,0.0,0.0,0.0,0.0,0.0,0.0,0.0,0.0,0.0,0.0,0.0,0.0,0.0,0.0,0.0,0.0,0.0,0.0,0.0,0.0,0.0,0.0,0.0,0.0,0.0,0.0,0.0,0.0,0.0,0.0,0.0,0.5667,0.5969,0.5912,0.581,0.5688,0.5596,0.5538,0.5498,0.5399,0.0,0.0,0.0,0.0,0.0,0.0,0.0,0.0,0.0,0.0,0.0,0.0,0.0,0.0,0.0,0.0,0.0,0.0,0.0,0.0,0.0,0.0,0.0,0.0,0.0,0.0,0.0,0.0,0.0,0.0,0.0,0.0,0.0,0.0,0.0,0.0,0.0,0.0,0.0,0.0,0.0,0.0,0.0,0.0,0.0,0.0,0.0,0.0,0.0,0.0,0.0,0.0,0.0,0.0,0.0,0.0,0.0,0.0,0.0,0.0,0.0,0.0,0.0,0.0,0.0,0.0,0.0,0.0,0.0,0.0,0.0,0.0,0.0,0.0,0.0,0.0,0.0,0.0,0.0,0.0,0.0,0.0,0.0,0.0,0.0,0.0,0.0,0.0,0.0,0.0,0.0,0.0,0.0,0.0,0.0,0.0,0.0,0.0,0.0,0.0,0.0,0.0,0.5276,0.574,0.6101,0.6101,0.5966,0.5817,0.5671,0.5616,0.5559,0.5405,0.0,0.0,0.0,0.0,0.0,0.0,0.0,0.0,0.0,0.0,0.0,0.0,0.0,0.0,0.0,0.0,0.0,0.0,0.0,0.0,0.0,0.0,0.0,0.0,0.0,0.0,0.0,0.0,0.0,0.0,0.0,0.0,0.0,0.0,0.0,0.0,0.0,0.0,0.0,0.0,0.0,0.0,0.0,0.0,0.0,0.0,0.0,0.0,0.0,0.0,0.0,0.0,0.0,0.0,0.0,0.0,0.0,0.0,0.0,0.0,0.0,0.0,0.0,0.0,0.0,0.0,0.0,0.0,0.0,0.0,0.0,0.0,0.0,0.0,0.0,0.0,0.0,0.0,0.0,0.0,0.0,0.0,0.0,0.0,0.0,0.0,0.0,0.0,0.0,0.0,0.0,0.0,0.0,0.0,0.0,0.0,0.0,0.0,0.0,0.0,0.0,0.0,0.618,0.63,0.63,0.63,0.6125,0.5932,0.5817,0.5674,0.5562,0.0,0.0,0.0,0.0,0.0,0.0,0.0,0.0,0.0,0.0,0.0,0.0,0.0,0.0,0.0,0.0,0.0,0.0,0.0,0.0,0.0,0.0,0.0,0.0,0.0,0.0,0.0,0.0,0.0,0.0,0.0,0.0,0.0,0.0,0.0,0.0,0.0,0.0,0.0,0.0,0.0,0.0,0.0,0.0,0.0,0.0,0.0,0.0,0.0,0.0,0.0,0.0,0.0,0.0,0.0,0.0,0.0,0.0,0.0,0.0,0.0,0.0,0.0,0.0,0.0,0.0,0.0,0.0,0.0,0.0,0.0,0.0,0.0,0.0,0.0,0.0,0.0,0.0,0.0,0.0,0.0,0.0,0.0,0.0,0.0,0.0,0.0,0.0,0.0,0.0,0.0,0.0,0.0,0.0,0.0,0.0,0.0,0.0,0.0,0.0,0.0,0.0,0.0,0.6261,0.63,0.63,0.63,0.6259,0.6129,0.5939,0.5827,0.5677,0.5532,0.0,0.0,0.0,0.0,0.0,0.0,0.0,0.0,0.0,0.0,0.0,0.0,0.0,0.0,0.0,0.0,0.0,0.0,0.0,0.0,0.0,0.0,0.0,0.0,0.0,0.0,0.0,0.0,0.0,0.0,0.0,0.0,0.0,0.0,0.0,0.0,0.0,0.0,0.0,0.0,0.0,0.0,0.0,0.0,0.0,0.0,0.0,0.0,0.0,0.0,0.0,0.0,0.0,0.0,0.0,0.0,0.0,0.0,0.0,0.0,0.0,0.0,0.0,0.0,0.0,0.0,0.0,0.0,0.0,0.0,0.0,0.0,0.0,0.0,0.0,0.0,0.0,0.0,0.0,0.0,0.0,0.0,0.0,0.0,0.0,0.0,0.0,0.0,0.0,0.0,0.0,0.0,0.0,0.0,0.0,0.0,0.0,0.0,0.0,0.0,0.0,0.0,0.63,0.63,0.63,0.63,0.63,0.6238,0.6003,0.5909,0.5806,0.5603,0.0,0.0,0.0,0.0,0.0,0.0,0.0,0.0,0.0,0.0,0.0,0.0,0.0,0.0,0.0,0.0,0.0,0.0,0.0,0.0,0.0,0.0,0.0,0.0,0.0,0.0,0.0,0.0,0.0,0.0,0.0,0.0,0.0,0.0,0.0,0.0,0.0,0.0,0.0,0.0,0.0,0.0,0.0,0.0,0.0,0.0,0.0,0.0,0.0,0.0,0.0,0.0,0.0,0.0,0.0,0.0,0.0,0.0,0.0,0.0,0.0,0.0,0.0,0.0,0.0,0.0,0.0,0.0,0.0,0.0,0.0,0.0,0.0,0.0,0.0,0.0,0.0,0.0,0.0,0.0,0.0,0.0,0.0,0.0,0.0,0.0,0.0,0.0,0.0,0.0,0.0,0.0,0.0,0.0,0.0,0.0,0.0,0.0,0.0,0.0,0.0,0.0,0.63,0.63,0.63,0.63,0.63,0.6242,0.6027,0.6,0.5878,0.5647,0.0,0.0,0.0,0.0,0.0,0.0,0.0,0.0,0.0,0.0,0.0,0.0,0.0,0.0,0.0,0.0,0.0,0.0,0.0,0.0,0.0,0.0,0.0,0.0,0.0,0.0,0.0,0.0,0.0,0.0,0.0,0.0,0.0,0.0,0.0,0.0,0.0,0.0,0.0,0.0,0.0,0.0,0.0,0.0,0.0,0.0,0.0,0.0,0.0,0.0,0.0,0.0,0.0,0.0,0.0,0.0,0.0,0.0,0.0,0.0,0.68,0.0,0.0,0.0,0.0,0.0,0.0,0.0,0.0,0.0,0.0,0.0,0.0,0.0,0.0,0.0,0.0,0.0,0.0,0.0,0.0,0.0,0.0,0.0,0.0,0.0,0.0,0.0,0.0,0.0,0.0,0.0,0.0,0.0,0.0,0.0,0.0,0.0,0.0,0.0,0.0,0.0,0.63,0.63,0.63,0.63,0.63,0.6286,0.6252,0.6098,0.5966,0.5902,0.5718,0.0,0.0,0.0,0.0,0.0,0.0,0.0,0.0,0.0,0.0,0.0,0.0,0.0,0.0,0.0,0.0,0.0,0.0,0.0,0.0,0.0,0.0,0.0,0.0,0.0,0.0,0.0,0.0,0.0,0.0,0.0,0.0,0.0,0.0,0.0,0.0,0.0,0.0,0.0,0.0,0.0,0.0,0.0,0.0,0.0,0.0,0.0,0.0,0.0,0.0,0.0,0.0,0.0,0.0,0.0,0.0,0.0,0.0,0.0,0.0,0.6912,0.0,0.0,0.0,0.0,0.0,0.0,0.0,0.0,0.0,0.0,0.0,0.0,0.0,0.0,0.0,0.0,0.0,0.0,0.0,0.0,0.0,0.0,0.0,0.0,0.0,0.0,0.0,0.0,0.0,0.0,0.0,0.0,0.0,0.0,0.0,0.0,0.0,0.0,0.0,0.0,0.63,0.63,0.63,0.63,0.63,0.63,0.63,0.6186,0.6108,0.5996,0.5884,0.0,0.0,0.0,0.0,0.0,0.0,0.0,0.0,0.0,0.0,0.0,0.0,0.0,0.0,0.0,0.0,0.0,0.0,0.0,0.0,0.0,0.0,0.0,0.0,0.0,0.0,0.0,0.0,0.0,0.0,0.0,0.0,0.0,0.0,0.0,0.0,0.0,0.0,0.0,0.0,0.0,0.0,0.0,0.0,0.0,0.0,0.0,0.0,0.0,0.0,0.0,0.0,0.0,0.735,0.7456,0.746,0.7543,0.76,0.7587,0.7287,0.7162,0.7132,0.7105,0.0,0.0,0.0,0.0,0.0,0.0,0.0,0.0,0.0,0.0,0.0,0.0,0.0,0.0,0.0,0.0,0.0,0.0,0.0,0.0,0.0,0.0,0.0,0.0,0.6463,0.6378,0.6378,0.0,0.0,0.0,0.0,0.0,0.0,0.0,0.0,0.0,0.0,0.0,0.6375,0.6378,0.6378,0.6378,0.6378,0.6364,0.6337,0.6337,0.6272,0.6078,0.6006,0.5936,0.0,0.0,0.0,0.0,0.0,0.0,0.0,0.0,0.0,0.0,0.0,0.0,0.0,0.0,0.0,0.0,0.0,0.0,0.0,0.0,0.0,0.0,0.0,0.0,0.0,0.0,0.0,0.0,0.0,0.0,0.0,0.0,0.7045,0.7065,0.0,0.0,0.0,0.0,0.0,0.0,0.0,0.0,0.0,0.0,0.0,0.0,0.0,0.7539,0.7539,0.7539,0.7539,0.7539,0.756,0.757,0.757,0.759,0.76,0.7597,0.7556,0.0,0.7329,0.7149,0.0,0.0,0.0,0.0,0.0,0.0,0.0,0.0,0.0,0.0,0.0,0.0,0.0,0.0,0.0,0.0,0.0,0.0,0.0,0.0,0.0,0.0,0.6671,0.6671,0.6658,0.6641,0.0,0.648,0.63,0.63,0.63,0.0,0.0,0.0,0.0,0.0,0.0,0.0,0.6624,0.6641,0.6641,0.6641,0.6641,0.6586,0.6497,0.6484,0.6422,0.6279,0.6105,0.5983,0.5963,0.5854,0.0,0.0,0.0,0.0,0.0,0.0,0.0,0.0,0.0,0.0,0.0,0.0,0.0,0.0,0.0,0.0,0.0,0.0,0.0,0.0,0.0,0.0,0.0,0.0,0.0,0.0,0.0,0.0,0.0,0.7095,0.7095,0.7095,0.7095,0.7095,0.0,0.0,0.0,0.0,0.0,0.0,0.0,0.0,0.0,0.7499,0.7563,0.76,0.76,0.76,0.76,0.76,0.7682,0.7719,0.7723,0.7807,0.7848,0.7841,0.7756,0.7682,0.7607,0.7461,0.7397,0.7397,0.0,0.0,0.0,0.0,0.7397,0.7397,0.7397,0.7397,0.7397,0.7397,0.0,0.0,0.0,0.0,0.0,0.0,0.0,0.0,0.0,0.0,0.7078,0.7078,0.6949,0.6827,0.6827,0.6661,0.6508,0.0,0.6508,0.6508,0.6508,0.0,0.0,0.0,0.0,0.6624,0.6692,0.6702,0.6702,0.6702,0.6702,0.6675,0.6607,0.66,0.6536,0.6429,0.6315,0.624,0.6162,0.601,0.5898,0.0,0.0,0.0,0.0,0.0,0.0,0.0,0.0,0.0,0.0,0.0,0.0,0.0,0.0,0.0,0.0,0.0,0.0,0.0,0.0,0.0,0.0,0.0,0.0,0.0,0.0,0.0,0.0,0.7095,0.7109,0.7149,0.72,0.7169,0.0,0.0,0.0,0.0,0.0,0.0,0.7594,0.7634,0.7655,0.7655,0.7692,0.7733,0.777,0.777,0.779,0.7828,0.7933,0.7984,0.7987,0.8099,0.8153,0.8143,0.7994,0.7929,0.7913,0.7692,0.76,0.76,0.76,0.76,0.76,0.76,0.76,0.76,0.76,0.76,0.76,0.76,0.76,0.76,0.76,0.0,0.0,0.0,0.0,0.76,0.76,0.7516,0.7431,0.7431,0.7261,0.7099,0.7099,0.701,0.6885,0.0,0.6702,0.6702,0.6702,0.0,0.0,0.0,0.0,0.6773,0.6807,0.6814,0.6814,0.6814,0.6814,0.68,0.6763,0.6759,0.6695,0.6539,0.6535,0.6463,0.6358,0.6169,0.6071,0.5993,0.0,0.0,0.0,0.0,0.0,0.0,0.0,0.0,0.0,0.0,0.0,0.0,0.0,0.0,0.0,0.0,0.0,0.0,0.0,0.0,0.0,0.0,0.0,0.0,0.0,0.0,0.0,0.0,0.0,0.7343,0.7405,0.0,0.0,0.0,0.0,0.7587,0.7587,0.759,0.76,0.7726,0.7801,0.7801,0.7891,0.8089,0.8286,0.8289,0.8303,0.8438,0.8445,0.8448,0.8448,0.8455,0.8459,0.8452,0.8309,0.8299,0.8265,0.7777,0.76,0.76,0.76,0.76,0.76,0.76,0.76,0.76,0.76,0.76,0.76,0.76,0.76,0.76,0.76,0.76,0.0,0.0,0.76,0.76,0.76,0.7594,0.7587,0.7587,0.7577,0.7567,0.7567,0.756,0.7383,0.0,0.6702,0.6702,0.6702,0.0,0.6749,0.6852,0.6873,0.6923,0.7058,0.7071,0.7071,0.7071,0.7071,0.7018,0.6886,0.6873,0.6851,0.6698,0.6552,0.6508,0.6501,0.6364,0.6179,0.5996,0.5986,0.0,0.0,0.0,0.0,0.0,0.0,0.0,0.0,0.0,0.0,0.0,0.0,0.0,0.0,0.0,0.0,0.0,0.0,0.0,0.0,0.0,0.0,0.0,0.0,0.0,0.0,0.0,0.0,0.7499,0.7519,0.0,0.7594,0.76,0.7638,0.7729,0.7828,0.7926,0.8028,0.8167,0.8245,0.8245,0.8296,0.835,0.8408,0.8408,0.8431,0.8482,0.8482,0.8482,0.8482,0.8482,0.8482,0.8479,0.8428,0.8408,0.8394,0.8235,0.8055,0.7833,0.7833,0.7833,0.7833,0.7833,0.7833,0.7833,0.7833,0.7833,0.7833,0.7833,0.7833,0.7833,0.7833,0.7833,0.7833,0.7833,0.7833,0.7833,0.7833,0.7833,0.7833,0.7833,0.7807,0.7736,0.7736,0.7665,0.7536,0.7322,0.7278,0.7248,0.7149,0.7132,0.7115,0.7028,0.7021,0.7041,0.7088,0.7095,0.7095,0.7095,0.7095,0.7075,0.7024,0.7021,0.696,0.6858,0.6797,0.6722,0.6624,0.6515,0.6412,0.6315,0.6224,0.6101,0.0,0.0,0.0,0.0,0.0,0.0,0.0,0.0,0.0,0.0,0.0,0.0,0.0,0.0,0.0,0.0,0.0,0.0,0.0,0.0,0.0,0.0,0.0,0.0,0.0,0.746,0.7502,0.7651,0.7672,0.7712,0.7814,0.7824,0.7885,0.8028,0.8133,0.8235,0.8336,0.8431,0.8482,0.8482,0.8482,0.8506,0.856,0.856,0.8584,0.8635,0.8635,0.8635,0.8635,0.8635,0.8635,0.8632,0.8581,0.856,0.8557,0.8503,0.8367,0.8187,0.8187,0.8187,0.8187,0.8187,0.8187,0.818,0.8133,0.8116,0.8109,0.8008,0.7988,0.7988,0.7988,0.7988,0.7988,0.7988,0.7988,0.7988,0.7988,0.7988,0.7988,0.7988,0.7914,0.7889,0.7889,0.7814,0.7746,0.7746,0.7668,0.7567,0.7465,0.7448,0.7414,0.7309,0.725,0.725,0.725,0.725,0.725,0.725,0.7248,0.7217,0.7217,0.7125,0.7055,0.6964,0.6913,0.6839,0.678,0.663,0.6549,0.6549,0.6446,0.6296,0.6108,0.0,0.0,0.0,0.0,0.0,0.0,0.0,0.0,0.0,0.0,0.0,0.0,0.0,0.0,0.0,0.0,0.0,0.0,0.0,0.0,0.0,0.0,0.0,0.7453,0.7512,0.7662,0.7807,0.7824,0.7943,0.8299,0.833,0.8385,0.8472,0.8489,0.8496,0.8496,0.8506,0.8509,0.8509,0.8509,0.8581,0.873,0.873,0.8804,0.8898,0.8898,0.8895,0.8892,0.8892,0.8888,0.8875,0.8781,0.8716,0.8706,0.8557,0.8496,0.8496,0.8486,0.8482,0.8482,0.8482,0.8482,0.8462,0.8378,0.833,0.8252,0.8102,0.8005,0.8005,0.8005,0.8005,0.8002,0.7998,0.7995,0.7995,0.7992,0.7988,0.7988,0.7988,0.7988,0.7988,0.7988,0.7988,0.7988,0.7988,0.7807,0.7611,0.7607,0.7607,0.7604,0.76,0.76,0.0,0.76,0.76,0.76,0.76,0.7465,0.7426,0.7426,0.7238,0.7102,0.7102,0.697,0.6893,0.6893,0.679,0.6705,0.6702,0.6556,0.6453,0.6313,0.0,0.0,0.0,0.0,0.0,0.0,0.0,0.0,0.0,0.0,0.0,0.0,0.0,0.0,0.0,0.0,0.0,0.0,0.0,0.0,0.0,0.778,0.7865,0.7712,0.7726,0.7851,0.8113,0.8147,0.8218,0.8408,0.8425,0.8438,0.8479,0.8686,0.8815,0.8815,0.9018,0.9133,0.9133,0.9133,0.9154,0.9195,0.9198,0.9218,0.9259,0.9259,0.9201,0.9093,0.9093,0.9035,0.8881,0.8841,0.8821,0.8817,0.8828,0.8815,0.8791,0.8567,0.8482,0.8482,0.8482,0.8482,0.8476,0.8438,0.8425,0.8418,0.8374,0.836,0.836,0.836,0.836,0.834,0.8238,0.8208,0.818,0.8019,0.7988,0.7988,0.7988,0.7988,0.7988,0.7988,0.7988,0.7988,0.7988,0.7924,0.7882,0.7773,0.7753,0.7719,0.7614,0.76,0.0,0.76,0.76,0.76,0.76,0.7563,0.7536,0.7536,0.7397,0.7309,0.7309,0.7166,0.7038,0.7038,0.69,0.6814,0.6702,0.6658,0.6617,0.0,0.0,0.0,0.0,0.0,0.0,0.0,0.0,0.0,0.0,0.0,0.0,0.0,0.0,0.0,0.0,0.0,0.0,0.0,0.0,0.0,0.0,0.798,0.8106,0.8014,0.8004,0.8092,0.833,0.836,0.8418,0.8564,0.8635,0.8699,0.8815,0.8988,0.9123,0.9123,0.9286,0.9381,0.9381,0.9381,0.9381,0.9381,0.9381,0.9381,0.9381,0.9381,0.9334,0.9306,0.9306,0.9205,0.9123,0.9123,0.9123,0.9123,0.9123,0.9123,0.0,0.0,0.0,0.0,0.0,0.8672,0.8665,0.8601,0.8577,0.8567,0.8503,0.8482,0.8482,0.8482,0.8482,0.8465,0.8381,0.836,0.8326,0.8174,0.8136,0.8119,0.8005,0.7988,0.7988,0.7988,0.7988,0.7988,0.7988,0.7988,0.0,0.7874,0.7906,0.7879,0.7797,0.7784,0.7784,0.7784,0.7784,0.7784,0.7784,0.7726,0.7689,0.7689,0.7553,0.0,0.0,0.0,0.7207,0.7098,0.7018,0.0,0.0,0.0,0.6763,0.6702,0.0,0.0,0.0,0.6403,0.6396,0.0,0.0,0.0,0.0,0.0,0.0,0.0,0.0,0.0,0.0,0.0,0.0,0.0,0.0,0.0,0.0,0.818,0.8333,0.8316,0.8319,0.8367,0.8492,0.8523,0.8594,0.8747,0.8899,0.9042,0.9224,0.932,0.9408,0.9408,0.0,0.0,0.0,0.0,0.9432,0.9432,0.9432,0.9432,0.9432,0.9432,0.9422,0.9408,0.9408,0.9398,0.9381,0.9381,0.9381,0.9381,0.9381,0.9381,0.9354,0.9072,0.8908,0.8905,0.8888,0.8885,0.8865,0.8781,0.0,0.0,0.8577,0.8533,0.8533,0.8533,0.8533,0.853,0.8513,0.8509,0.8476,0.8333,0.8347,0.8255,0.8102,0.8015,0.8012,0.7992,0.7988,0.7988,0.7988,0.7988,0.7988,0.7988,0.7988,0.7988,0.7988,0.7988,0.7988,0.7988,0.7988,0.7988,0.7988,0.0,0.0,0.7838,0.7706,0.7567,0.7477,0.7453,0.7329,0.7129,0.7122,0.7055,0.6913,0.691,0.6885,0.6749,0.6749,0.6749,0.6749,0.6715,0.6702,0.0,0.0,0.0,0.0,0.0,0.0,0.0,0.0,0.0,0.0,0.0,0.0,0.0,0.0,0.0,0.8204,0.8252,0.8353,0.8591,0.8625,0.8635,0.8662,0.8774,0.8906,0.9108,0.9205,0.9306,0.9337,0.9479,0.9564,0.9564,0.9673,0.9737,0.9737,0.9737,0.9737,0.9737,0.9737,0.9737,0.9737,0.0,0.0,0.9564,0.9564,0.9496,0.9381,0.9381,0.9381,0.9381,0.9381,0.9381,0.9364,0.9181,0.9169,0.9096,0.8981,0.8885,0.8878,0.8851,0.8841,0.8834,0.8804,0.8797,0.8797,0.8797,0.8797,0.0,0.8703,0.8665,0.8632,0.8479,0.8442,0.8404,0.8258,0.8225,0.8194,0.8015,0.7988,0.7988,0.7988,0.7988,0.7988,0.7988,0.7988,0.7988,0.7988,0.7988,0.7988,0.7988,0.7988,0.7988,0.7988,0.7965,0.7944,0.7944,0.7855,0.7756,0.7729,0.7617,0.7489,0.7333,0.7326,0.7255,0.7058,0.7055,0.7041,0.7011,0.7011,0.7011,0.7004,0.681,0.6702,0.0,0.0,0.0,0.0,0.0,0.0,0.0,0.0,0.0,0.0,0.0,0.7988,0.7988,0.0,0.818,0.831,0.8394,0.854,0.8689,0.8838,0.893,0.893,0.9001,0.9103,0.9309,0.9405,0.9496,0.9496,0.9632,0.9717,0.9717,0.9781,0.9822,0.9822,0.9822,0.9822,0.9822,0.9822,0.9822,0.9822,0.9822,0.9785,0.9717,0.9717,0.9673,0.9602,0.9602,0.9602,0.9602,0.9602,0.9602,0.9588,0.9439,0.9334,0.9316,0.9188,0.9161,0.915,0.9072,0.9045,0.9032,0.8905,0.8885,0.8885,0.8885,0.8885,0.8868,0.8845,0.8825,0.8791,0.8635,0.8598,0.856,0.8411,0.8377,0.8336,0.8187,0.8153,0.8133,0.8005,0.7988,0.7988,0.7988,0.7988,0.7988,0.7988,0.7988,0.7988,0.7988,0.7988,0.7988,0.7988,0.7988,0.7988,0.7988,0.7899,0.7811,0.7811,0.7678,0.7563,0.7489,0.7485,0.7451,0.7373,0.737,0.737,0.737,0.737,0.737,0.7366,0.7217,0.7109,0.0,0.0,0.0,0.0,0.0,0.0,0.0,0.7988,0.7988,0.7988,0.7988,0.7998,0.8029,0.8187,0.834,0.8347,0.8557,0.873,0.8788,0.9001,0.9231,0.9292,0.9299,0.9347,0.9412,0.9561,0.9649,0.9649,0.9754,0.9822,0.9822,0.9822,0.9822,0.9822,0.9822,0.9822,0.9822,0.9822,0.9822,0.9822,0.9822,0.9822,0.9822,0.9822,0.9822,0.9822,0.9822,0.9822,0.9822,0.9822,0.9822,0.9812,0.9696,0.9574,0.9459,0.9401,0.9381,0.9364,0.9299,0.9255,0.9234,0.9062,0.9005,0.8981,0.8981,0.8905,0.8885,0.8885,0.8885,0.8854,0.8784,0.8754,0.8716,0.8564,0.8526,0.8486,0.8343,0.8364,0.8265,0.8113,0.8032,0.8025,0.7995,0.7988,0.7988,0.7988,0.7988,0.7988,0.7988,0.7988,0.7988,0.7988,0.7988,0.7988,0.7988,0.7877,0.7855,0.7855,0.7746,0.7672,0.7641,0.7641,0.7628,0.76,0.76,0.76,0.76,0.76,0.76,0.76,0.76,0.7533,1.1057,1.0632,0.9756,0.9756,0.8874,0.7988,0.0,0.7988,0.7988,0.7988,0.7988,0.8032,0.8218,0.831,0.8357,0.8618,0.8689,0.8801,0.9122,0.9187,0.9309,0.9527,0.9557,0.9564,0.9585,0.9713,0.9798,0.9798,0.9812,0.9822,0.9822,0.9822,0.9822,0.9822,0.9822,0.9822,0.9822,0.9822,0.9822,0.9822,0.9822,0.9822,0.9822,0.9822,0.9822,0.9822,0.9822,0.9822,0.9822,0.9822,0.9822,0.9819,0.9802,0.9788,0.9741,0.9479,0.9381,0.9381,0.9361,0.9354,0.9354,0.9337,0.9239,0.9187,0.9187,0.9042,0.8885,0.8885,0.8885,0.8878,0.8861,0.8858,0.8817,0.872,0.8682,0.8645,0.8489,0.8459,0.8418,0.8272,0.8245,0.8201,0.8012,0.7988,0.7988,0.7988,0.7988,0.7988,0.7988,0.7988,0.7988,0.7988,0.7988,0.7988,0.7988,0.7975,0.7965,0.7965,0.7948,0.788,0.7794,0.7787,0.7729,0.76,0.76,0.76,0.76,0.76,0.76,0.76,0.76,0.759,1.0794,1.0386,0.9805,0.9019,0.8432,0.7988,0.7988,0.7988,0.7988,0.7988,0.8109,0.8194,0.831,0.8411,0.8567,0.8689,0.8784,0.8916,0.918,0.9286,0.9367,0.9585,0.9683,0.9734,0.9734,0.9785,0.9822,0.9822,0.9822,0.9822,0.9822,0.9822,0.9822,0.9822,0.9822,0.9822,0.9822,0.9822,0.9822,0.9822,0.9822,0.9822,0.9822,0.9822,0.9822,0.9822,0.9822,0.9822,0.9822,0.9822,0.9822,0.9822,0.9822,0.9822,0.9805,0.9683,0.9635,0.9625,0.9544,0.9513,0.95,0.9408,0.9337,0.9344,0.9344,0.9181,0.9062,0.9062,0.9001,0.8885,0.8885,0.8885,0.8868,0.8804,0.879,0.8801,0.8648,0.8615,0.857,0.8421,0.8394,0.8347,0.8201,0.8174,0.8143,0.8005,0.7988,0.7988,0.7988,0.7988,0.7988,0.7988,0.7988,0.7988,0.7988,0.7988,0.7988,0.7988,0.7988,0.7961,0.7897,0.7894,0.7867,0.7855,0.7855,0.7855,0.7855,0.7855,0.7855,0.7855,0.7855,0.7855,1.141,1.0828,1.0194,0.8874,0.8283,0.7988,0.7988,0.7988,0.7988,0.7988,0.8163,0.8333,0.8374,0.8537,0.8723,0.8767,0.8811,0.9001,0.9245,0.931,0.9452,0.9646,0.9758,0.9822,0.9822,0.9822,0.9822,0.9822,0.9822,0.9822,0.9822,0.9822,0.9822,0.9822,0.9822,0.9822,0.9822,0.9822,0.9822,0.9822,0.9822,0.9822,0.9822,0.9822,0.9822,0.9822,0.9822,0.9822,0.9822,0.9822,0.9822,0.9822,0.9822,0.9822,0.9822,0.9822,0.9822,0.9805,0.9703,0.9666,0.9649,0.9537,0.9476,0.9445,0.9445,0.9337,0.9265,0.9221,0.9079,0.8988,0.8895,0.8885,0.8885,0.8885,0.8885,0.8854,0.8798,0.8774,0.8726,0.8574,0.8547,0.8499,0.8353,0.8381,0.8279,0.8126,0.8102,0.8089,0.7995,0.7988,0.7988,0.7988,0.7988,0.7988,0.7988,0.7988,0.7988,0.7988,0.7988,0.7988,0.7988,0.7988,0.7988,0.7988,0.7988,0.7988,0.7988,0.7988,0.7988,0.7988,0.7988,0.7988,1.4118,1.2813,1.156,1.0243,0.897,0.7988,0.7988,0.7988,0.7988,0.7988,0.8163,0.8364,0.8452,0.8604,0.876,0.8851,0.8878,0.9042,0.9334,0.9378,0.949,0.9781,0.9819,0.9822,0.9822,0.9822,0.9822,0.9822,0.9822,0.9822,0.9822,0.9822,0.9822,0.9822,0.9822,0.9822,0.9822,0.9822,0.9822,0.9822,0.9822,0.9822,0.9822,0.9822,0.9822,0.9822,0.9822,0.9822,0.9822,0.9822,0.9822,0.9822,0.9822,0.9822,0.9822,0.9822,0.9822,0.9822,0.9815,0.9815,0.9815,0.9808,0.9717,0.9602,0.9602,0.9496,0.9344,0.9251,0.9207,0.9169,0.8974,0.8885,0.8885,0.8885,0.8885,0.8881,0.8878,0.8875,0.8831,0.8733,0.8703,0.8655,0.8503,0.8476,0.8428,0.8337,0.8313,0.8211,0.8008,0.7988,0.7988,0.7988,0.7988,0.7988,0.7988,0.7988,0.7988,0.7988,0.7988,0.7988,0.7988,0.7988,0.7988,0.7988,0.7988,0.7988,0.7988,0.7988,0.7988,0.7988,0.7988,0.7988,1.4268,1.3584,1.2716,1.0534,0.9657,0.9118,0.8187,0.7988,0.7988,0.7988,0.8163,0.8368,0.8455,0.8608,0.876,0.8858,0.8885,0.9042,0.934,0.9381,0.949,0.9785,0.9822,0.9822,0.9822,0.9822,0.9822,0.9822,0.9822,0.9822,0.9822,0.9822,0.9822,0.9822,1.0838,1.1378,1.1378,1.2453,1.2988,1.2993,1.1916,1.0838,0.9822,0.9822,0.9822,0.9822,0.9822,0.9822,0.9822,0.9822,0.9822,0.9822,0.9822,0.9822,0.9822,0.9822,0.9822,0.9822,0.9822,0.9822,0.9822,0.9822,0.9788,0.9751,0.9751,0.9649,0.952,0.9469,0.9384,0.9269,0.912,0.9083,0.9055,0.8905,0.8885,0.8885,0.8885,0.8885,0.8868,0.8817,0.8807,0.8815,0.8659,0.8632,0.8581,0.8431,0.8245,0.8099,0.7995,0.7988,0.7988,0.7988,0.7988,0.7988,0.7988,0.7988,0.7988,0.7988,0.7988,0.7988,0.7988,0.7988,0.7988,0.7988,0.7988,0.7988,0.7988,0.7988,0.7988,0.7988,0.7988,0.7988,1.4268,1.3926,1.3392,1.1214,1.0681,1.0337,0.9019,0.9069,0.9114,0.8187,0.8506,0.8849,0.8491,0.8574,0.8743,0.8842,0.8848,0.9042,0.934,0.9381,0.949,0.9785,0.9822,0.9822,0.9822,1.0301,1.0422,0.9822,0.9822,1.0061,1.066,1.066,1.0899,1.1499,1.2513,1.3053,1.3053,1.3526,1.3471,1.2873,1.1856,1.0778,0.9822,0.9822,0.9822,0.9822,0.9822,0.9822,0.9822,0.9822,0.9822,0.9822,0.9822,0.9822,0.9822,0.9822,0.9822,0.9822,0.9822,0.9822,0.9822,0.9822,0.9822,0.9822,0.9822,0.9758,0.9676,0.9625,0.954,0.9429,0.933,0.9292,0.9255,0.9052,0.9015,0.9001,0.8895,0.8885,0.8885,0.8885,0.8885,0.8851,0.8808,0.8747,0.8676,0.8577,0.8353,0.818,0.813,0.8022,0.7988,0.7988,0.7988,0.7988,0.7988,0.7988,0.7988,0.7988,0.7988,0.7988,0.7988,0.7988,0.7988,0.7988,0.7988,0.7988,0.7988,0.7988,0.7988,0.7988,0.7988,0.7988,1.4316,1.4022,1.3686,1.2334,1.1994,1.1653,1.0391,1.1023,1.1214,0.8726,0.9338,0.9906,0.8619,0.8653,0.885,0.8814,0.8992,0.9196,0.9452,0.9494,0.9607,0.9906,0.994,0.994,1.0061,1.1438,1.1675,1.0179,0.0,1.0721,1.2213,1.2333,1.3048,1.4545,1.4663,1.4718,1.4718,1.3228,1.1615,1.0061,1.0061,1.0001,0.994,0.994,0.994,0.994,0.9819,0.9822,0.9822,0.9822,0.9822,0.9822,0.9822,0.9822,0.9822,0.9822,0.9822,0.9822,0.9822,0.9822,0.9822,0.9822,0.9822,0.9822,0.9822,0.9822,0.9791,0.9659,0.9618,0.9585,0.9432,0.9395,0.9354,0.9258,0.9221,0.9183,0.8981,0.8895,0.8892,0.8885,0.8885,0.8885,0.8885,0.8818,0.8723,0.8723,0.8591,0.8442,0.835,0.8147,0.8002,0.8002,0.7995,0.7988,0.7988,0.7988,0.7988,0.7988,0.7988,0.7988,0.7988,0.7988,0.7988,0.7988,0.7988,0.7988,0.7988,0.7988,0.7988,0.7988,0.7988,0.7988,1.5384,1.5343,1.4997,1.3734,1.3392,1.3054,1.1702,1.1653,1.1702,1.1019,1.1208,1.109,0.994,1.0599,1.1115,1.0465,1.1185,1.1615,1.1016,1.097,1.1101,1.1515,1.1615,1.2037,1.3232,1.3765,1.383,1.3412,1.3352,1.3586,1.3949,1.4004,1.4187,1.4604,1.5784,1.6374,1.6374,1.5956,1.495,1.3352,1.3352,1.2753,1.1615,1.1615,1.1615,1.1499,1.0301,0.9822,0.9822,0.9822,0.9822,0.9822,0.9822,0.9822,0.9822,0.9822,0.9822,0.9822,0.9822,0.9822,0.9822,0.9822,0.9822,0.9822,0.9822,0.9822,0.9815,0.9778,0.9768,0.9734,0.9588,0.9551,0.9513,0.9361,0.9323,0.9279,0.913,0.9096,0.9066,0.8905,0.8885,0.8885,0.8885,0.8851,0.8824,0.8824,0.875,0.8598,0.8445,0.8303,0.8211,0.8211,0.8109,0.7988,0.7988,0.7988,0.7988,0.7988,0.7988,0.7988,0.7988,0.7988,0.7988,0.7988,0.7988,0.7988,0.7988,0.7988,0.7988,0.7988,0.7988,0.7988,1.5784,1.5784,1.5635,1.4902,1.4752,1.4411,1.306,1.3204,1.3307,1.2139,1.1896,1.1541,1.0324,1.0761,1.1139,1.0647,1.1811,1.2705,1.2417,1.245,1.2716,1.3182,1.3232,1.3591,1.4485,1.5252,1.5666,1.5666,1.5015,1.4896,1.5607,1.5666,1.5967,1.6685,1.7572,1.7683,1.7026,1.7026,1.6197,1.4604,1.4604,1.4128,1.3232,1.3232,1.3232,1.3228,0.0,1.1916,1.1856,1.1137,1.0838,1.0778,1.0061,0.9822,0.9822,0.9822,0.9822,0.9822,0.9822,0.9822,0.9822,0.9822,0.9822,0.9822,0.9822,0.9822,0.9822,0.9822,0.9822,0.9802,0.9724,0.9703,0.9663,0.9517,0.9483,0.9439,0.9344,0.9258,0.9166,0.8912,0.8885,0.8885,0.8885,0.8885,0.8885,0.8885,0.8811,0.8777,0.8693,0.8496,0.8364,0.8364,0.8286,0.8208,0.8147,0.814,0.8113,0.7992,0.7988,0.7988,0.7988,0.7988,0.7988,0.7988,0.7988,0.7988,0.7988,0.7988,0.7988,0.7988,0.7988,0.7988,1.5784,1.5784,1.5784,1.5784,1.5784,1.5486,1.4411,1.4997,1.5146,1.2866,1.2285,1.175,1.0485,1.0468,1.0632,1.0508,1.2103,1.3419,1.3717,1.3999,1.4375,1.4803,1.488,1.502,1.5198,1.6497,1.7325,1.7325,1.6026,1.5849,1.7267,1.7325,1.7981,1.9366,1.9424,1.8706,1.7325,1.7085,1.6315,1.4901,1.4901,1.4901,1.4901,1.4901,1.4901,1.4896,1.4663,1.4604,1.4485,1.3112,1.2513,1.2337,1.0743,1.014,1.0061,0.9903,0.9839,0.9822,0.9822,0.9822,0.9822,0.9822,0.9822,0.9822,0.9822,0.9822,0.9822,0.9822,0.9822,0.9822,0.9822,0.9822,0.9788,0.9666,0.9639,0.9595,0.9445,0.9333,0.9173,0.8991,0.8895,0.8885,0.8885,0.8885,0.8885,0.8885,0.8885,0.8885,0.8885,0.8689,0.8513,0.8513,0.8496,0.8431,0.8361,0.835,0.8241,0.8056,0.8049,0.8049,0.8049,0.8049,0.8049,0.8049,0.8049,0.8039,0.8019,0.8019,0.8008,0.7988,0.7988,0.7988,1.5784,1.5784,1.5784,1.5784,1.5784,1.573,1.5534,1.5635,1.5683,1.5194,1.4268,1.3151,1.1799,1.2506,1.2986,1.2144,1.4267,1.5735,1.499,1.5348,1.5852,1.6149,1.6424,1.7091,1.8409,1.8823,1.9004,1.9004,1.8706,1.8706,1.8946,1.9004,1.9127,1.9366,1.9424,1.9243,1.9004,1.7683,1.685,1.655,1.655,1.655,1.655,1.655,1.655,1.6492,1.5192,0.0,1.4604,1.4307,1.4183,1.4023,1.2508,1.187,1.1635,1.0389,0.9869,0.9822,0.9822,0.9822,0.9822,0.9822,0.9822,0.9822,0.9822,0.9822,0.9822,0.9822,0.9822,0.9822,0.9822,0.9822,0.9815,0.9791,0.9785,0.9744,0.9602,0.9351,0.9204,0.9176,0.9018,0.8885,0.8885,0.8885,0.8885,0.8885,0.8885,0.8885,0.8885,0.8781,0.8669,0.8669,0.8557,0.8472,0.8445,0.8445,0.8435,0.8408,0.8404,0.8404,0.8404,0.8404,0.8404,0.8404,0.8404,0.8347,0.8231,0.8231,0.8163,0.7988,0.7988,0.7988,1.5784,1.5784,1.5784,1.5784,1.5784,1.5784,1.5784,1.5784,1.5784,1.5784,1.4806,1.368,1.3054,1.3488,1.3721,1.3263,1.5035,1.643,1.6268,1.6721,1.7228,1.7698,1.8051,1.8525,1.9307,1.9424,1.9424,1.9424,1.9424,1.9424,1.9424,1.9424,1.9424,1.9424,1.9424,1.9424,1.9424,1.8642,1.8227,1.8227,1.8227,1.8227,1.8227,1.8227,1.8227,1.8227,1.7455,1.7097,1.705,1.6337,1.6089,1.5932,1.4524,1.3995,1.3737,1.2113,1.1418,1.1149,1.0241,0.9886,0.9822,0.9822,0.9822,0.9822,0.9822,0.9822,0.9822,0.9822,0.9822,0.9822,0.9822,0.9822,0.9822,0.9822,0.9822,0.9761,0.954,0.9374,0.9225,0.9069,0.8984,0.8885,0.8885,0.8885,0.8885,0.8885,0.8885,0.8885,0.8885,0.8821,0.8828,0.8828,0.8764,0.8686,0.8608,0.8601,0.8567,0.8486,0.8482,0.8482,0.8482,0.8482,0.8482,0.8482,0.8482,0.8448,0.8381,0.8381,0.8343,0.8269,0.8269,0.8269,1.5784,1.5784,1.5784,1.5784,1.5784,1.5784,1.5784,1.5784,1.5784,1.5784,1.4806,1.3926,1.3926,1.3926,1.3926,1.3926,1.5232,1.6502,1.7032,1.7569,1.8163,1.8758,1.9092,1.9299,1.9417,1.9424,1.9424,1.9424,1.9424,1.9424,1.9424,1.9424,1.9424,1.9424,1.9424,1.9424,1.9424,1.9424,1.9424,1.9424,1.9424,1.9424,1.9424,1.9424,1.9424,1.9424,1.9424,1.9406,1.9414,1.8358,1.7931,1.7889,1.6545,1.6048,1.5825,1.4129,1.3118,1.2426,1.1024,1.019,0.9822,0.9822,0.9822,0.9822,0.9822,0.9822,0.9822,0.9822,0.9822,0.9822,0.9822,0.9822,0.9822,0.9822,0.9822,0.9747,0.9486,0.9405,0.9303,0.9035,0.8905,0.8885,0.8885,0.8885,0.8885,0.8885,0.8885,0.8885,0.8885,0.8885,0.8885,0.8885,0.8885,0.8834,0.8771,0.876,0.871,0.8587,0.8581,0.8581,0.8581,0.8581,0.8581,0.8581,0.8581,0.8564,0.853,0.853,0.8513,0.8482,0.8482,0.8482,1.5784,1.5784,1.5784,1.5784,1.5784,1.5784,1.5784,1.5784,1.5784,1.5784,1.4806,1.3926,1.3926,1.3926,1.3926,1.3926,1.5232,1.6386,1.67,1.7255,1.7849,1.8457,1.8784,1.9072,1.9339,1.9424,1.9424,1.9424,1.9424,1.9424,1.9424,1.9424,1.9424,1.9424,1.9424,1.9424,1.9424,1.9424,1.9424,1.9424,1.9424,1.9424,1.9424,1.9424,1.9424,1.9424,1.9424,1.9512,0.0,1.9608,1.9707,1.9783,1.8431,1.7818,1.7514,1.5977,1.4221,1.2549,1.2426,1.1218,0.9822,0.9822,0.9822,0.9822,0.9822,0.9822,0.9822,0.9822,0.9822,0.9822,0.9822,0.9822,0.9822,0.9822,0.9822,0.9778,0.9622,0.9479,0.9334,0.9221,0.9028,0.8885,0.8885,0.8885,0.8885,0.8885,0.8885,0.8885,0.8885,0.8885,0.8885,0.8885,0.8885,0.8878,0.8865,0.8861,0.8858,0.8844,0.8841,0.8841,0.8841,0.8841,0.8841,0.8841,0.8841,0.8828,0.8689,0.8689,0.8618,0.8482,0.8482,0.8482,1.5784,1.5784,1.5784,1.5784,1.5784,1.5784,1.5784,1.5784,1.5784,1.5784,1.5391,1.5045,1.5045,1.5045,1.5045,1.5045,0.0,0.0,1.664,1.7061,1.7668,1.8397,1.8744,1.9038,1.9397,1.9424,1.9424,1.9424,1.9424,1.9424,1.9424,1.9424,1.9424,1.9424,1.9424,1.9424,1.9424,1.9424,1.9424,1.9424,1.9424,1.9424,1.9424,1.9424,1.9424,1.9437,1.9553,1.9693,0.0,2.018,2.0394,2.0466,2.0052,1.9896,1.9619,1.799,1.67,1.5489,1.346,1.2098,1.108,1.0119,0.9822,0.9822,0.9822,0.9822,0.9822,0.9822,0.9822,0.9822,0.9822,0.9822,0.9822,0.9822,0.9754,0.9652,0.9503,0.9351,0.9201,0.9052,0.8977,0.8885,0.8885,0.8885,0.8885,0.8885,0.8885,0.8885,0.8885,0.8885,0.8885,0.8885,0.8885,0.8885,0.8885,0.8885,0.8885,0.8885,0.8885,0.8885,0.8885,0.8885,0.8885,0.8885,0.8885,0.8854,0.8849,0.8849,0.8815,0.8757,0.8757,0.8757,1.5784,1.5784,1.5784,1.5784,1.5784,1.5784,1.5784,1.5784,1.5784,1.5784,1.5784,1.5784,1.5784,1.5784,1.5784,0.0,0.0,1.5957,1.6506,1.6834,1.7407,1.825,1.8617,1.8945,1.939,1.9424,1.9424,1.9424,1.9424,1.9424,1.9424,1.9424,1.9424,1.9424,1.9424,1.9424,1.9424,1.9424,1.9424,1.9424,1.9424,1.9424,1.9424,1.9424,1.9424,1.9379,1.9673,1.9853,0.0,2.0468,2.0728,2.0822,2.1029,2.1109,2.0969,1.965,1.8625,1.7535,1.5057,1.3333,1.2037,1.0899,1.0179,0.9822,0.9822,0.9822,0.9822,0.9822,0.9822,0.9822,0.9822,0.9822,0.9812,0.9768,0.9683,0.9554,0.9357,0.9286,0.9166,0.8912,0.8885,0.8885,0.8885,0.8885,0.8885,0.8885,0.8885,0.8885,0.8885,0.8885,0.8885,0.8885,0.8885,0.8885,0.8885,0.8885,0.8885,0.8885,0.8885,0.8885,0.8885,0.8885,0.8885,0.8885,0.8885,0.8885,0.8885,0.8885,0.8885,0.8885,0.8885,0.8885,1.5784,1.5784,1.5784,1.5784,1.5784,1.5784,1.5784,1.5784,1.5784,1.5784,1.5784,1.5784,1.5784,1.5784,1.5784,1.5784,0.0,0.0,1.6239,1.6526,1.7041,1.7889,1.831,1.8724,1.937,1.9424,1.9424,1.9424,1.9424,0.0,1.9424,1.9424,1.9424,1.9424,1.9424,1.9424,1.9424,1.9424,1.9424,1.9424,1.9424,1.9424,1.9424,1.9424,1.9424,1.9379,1.9673,1.996,0.0,2.0548,2.0848,2.1109,2.1109,2.1109,2.1076,2.0788,1.9477,1.7824,1.7498,1.5076,1.2213,1.2153,1.108,0.9822,0.9822,0.9822,0.9822,0.9822,0.9822,0.9822,0.9822,0.9822,0.9785,0.9646,0.9612,0.9527,0.9279,0.921,0.9166,0.8912,0.8885,0.8885,0.8885,0.8885,0.8885,0.8885,0.8885,0.8885,0.8885,0.8885,0.8885,0.8885,0.8885,0.8885,0.8885,0.8885,0.8885,0.8885,0.8885,0.8885,0.8885,0.8885,0.8885,0.8885,0.8885,0.8885,0.8885,0.8885,0.8885,0.8885,0.8885,0.8885,1.5784,1.5784,1.5784,1.5784,1.5784,1.5784,1.5784,1.5784,1.5784,1.5784,1.5784,1.5784,1.5784,1.5784,1.5784,1.5784,1.5784,0.0,0.0,1.6647,1.7114,1.8217,1.8791,1.9165,1.941,1.9424,1.9424,1.9424,1.9424,1.9424,1.9424,1.9424,1.9424,1.9424,1.9424,1.9424,1.9424,1.9424,1.9424,1.9424,1.9424,1.9424,1.9424,1.9424,1.9424,1.9457,1.9887,2.0147,2.0213,2.0768,2.1029,2.1109,2.1109,2.1109,2.1076,2.0782,2.0174,1.9251,1.7865,1.5861,1.3651,1.2573,1.1137,0.9822,0.9822,0.9822,0.9822,0.9822,0.9822,0.9822,0.9822,0.9747,0.9666,0.9618,0.9449,0.9326,0.9231,0.9076,0.8991,0.8892,0.8885,0.8885,0.8885,0.8885,0.8885,0.8885,0.8885,0.8885,0.8885,0.8885,0.8885,0.8885,0.8885,0.8885,0.8885,0.8885,0.8885,0.8885,0.8885,0.8885,0.8885,0.8885,0.8885,0.8885,0.8885,0.8885,0.8885,0.8885,0.8885,0.8885,0.8885,0.8885,1.5784,1.5784,1.5784,1.5784,1.5784,1.5784,1.5784,1.5784,1.5784,1.5784,1.5784,1.5784,1.5784,1.5784,1.5784,1.5784,1.5784,1.5999,1.6473,1.664,1.7148,1.835,1.9011,1.9424,1.9424,1.9424,1.9424,1.9424,1.9424,1.9424,1.9424,1.9424,1.9424,1.9424,1.9424,1.9424,1.9424,1.9424,1.9424,1.9424,1.9424,1.9424,1.9424,1.9424,1.9424,1.9392,1.9867,2.0067,0.0,2.0702,2.0949,2.0949,2.0949,2.0949,2.0895,2.0494,2.0227,1.9847,1.8574,1.6984,1.5252,1.3646,1.1619,0.994,1.0539,1.0301,0.9822,0.9822,0.9822,0.9822,0.9822,0.9717,0.9595,0.9537,0.9334,0.9193,0.9083,0.9001,0.8885,0.8885,0.8885,0.8885,0.8885,0.8885,0.8885,0.8885,0.8885,0.8885,0.8885,0.8885,0.8885,0.8885,0.8885,0.8885,0.8885,0.8885,0.8885,0.8885,0.8885,0.8885,0.8885,0.8885,0.8885,0.8885,0.8885,0.8885,0.8885,0.8885,0.8885,0.8885,0.8885,0.8885,0.0,1.5784,1.5784,1.5784,1.5784,1.5784,1.5784,1.5784,0.0,1.5784,1.5784,1.5784,1.5784,1.5784,1.5784,1.5784,1.5784,1.5939,1.6259,1.6607,1.7241,1.8357,1.9011,1.9424,1.9424,1.9424,1.9424,1.9424,1.9424,1.9424,1.9424,1.9424,1.9424,1.9424,1.9424,1.9424,1.9424,1.9424,1.9424,1.9424,1.9424,1.9424,1.9424,1.9424,1.9424,0.0,1.9673,1.98,1.9846,2.0408,2.0641,2.0641,2.0641,2.0641,2.0575,2.0007,1.98,1.976,1.9466,1.8344,1.6727,1.5015,1.2393,1.024,1.1619,1.102,0.9822,1.0061,1.0001,0.9819,0.994,0.9774,0.9571,0.9418,0.932,0.9169,0.8967,0.8885,0.8885,0.8885,0.8885,0.8885,0.8885,0.8885,0.8885,0.8885,0.8885,0.8885,0.8885,0.8885,0.8885,0.8885,0.8885,0.8885,0.8885,0.8885,0.8885,0.8885,0.8885,0.8885,0.8885,0.8885,0.8885,0.8885,0.8885,0.8885,0.8885,0.8885,0.8885,0.8885,0.8885,0.8885,1.5784,0.0,1.5784,1.5784,1.5784,1.5784,0.0,1.5784,1.5784,1.5784,1.5784,1.5784,1.5784,1.5784,1.5784,1.5784,1.5784,1.6012,1.6533,1.7448,1.8176,1.8457,1.9011,1.9424,1.9424,1.9424,1.9424,1.9424,1.9424,1.9424,1.9424,1.9424,1.9424,1.9424,1.9424,1.9424,1.9424,1.9424,1.9424,1.9424,1.9424,1.9424,1.9424,1.9424,1.9424,1.9379,1.9673,1.98,1.9826,2.0187,2.0334,2.0334,2.0334,2.0334,2.0294,1.9933,1.98,1.976,1.9466,1.8344,1.655,1.3706,1.2273,1.1499,1.06,1.0122,1.0301,1.2753,1.1679,1.0061,1.1318,1.0602,0.9571,0.9418,0.932,0.9169,0.8967,0.8885,0.8885,0.8885,0.8885,0.8885,0.8885,0.8885,0.8885,0.8885,0.8885,0.8885,0.8885,0.8885,0.8885,0.8885,0.8885,0.8885,0.8885,0.8885,0.8885,0.8885,0.8885,0.8885,0.8885,0.8885,0.8885,0.8885,0.8885,0.8885,0.8885,0.8885,0.8885,0.8885,0.8885,0.8885,1.5784,1.5784,1.5784,1.5784,1.5784,1.5784,1.5784,1.5784,1.5784,1.5784,1.5784,1.5784,1.5784,1.5784,1.5784,1.5784,1.5945,1.6286,1.7007,1.7903,1.8544,1.8677,1.9092,1.9424,1.9424,1.9424,1.9424,1.9424,1.9424,1.9424,1.9424,1.9424,1.9424,1.9424,1.9424,1.9424,1.9424,1.9424,1.9424,1.9424,1.9424,1.9424,1.9424,1.9424,1.9424,1.943,1.9533,1.9599,1.9626,1.9913,2.0034,2.0034,2.0034,2.0034,2.0,1.9713,1.9599,1.9579,1.9419,1.8344,1.6609,1.4118,1.2813,1.2157,1.2037,1.1499,1.1257,1.2993,1.2753,1.2213,1.3053,1.2552,1.1623,1.0771,1.1015,1.1029,0.9493,0.964,0.9861,0.9203,0.8984,0.8885,0.8885,0.8885,0.8885,0.8885,0.8885,0.8885,0.8885,0.8885,0.8885,0.8885,0.8885,0.8885,0.8885,0.8885,0.8885,0.8885,0.8885,0.8885,0.8885,0.8885,0.8885,0.8885,0.8885,0.8885,0.8885,0.8885,0.8885,0.8885,0.8885,0.8885,1.5825,1.5784,1.5784,1.5784,1.5784,1.5784,1.5784,1.5784,1.5784,1.5784,1.5784,1.5784,1.5784,1.5784,1.5784,1.5784,1.6119,1.6627,1.7468,1.8103,1.8597,1.8885,1.9185,1.9424,1.9424,1.9424,1.9424,1.9424,1.9424,1.9424,1.9424,1.9424,1.9424,1.9424,1.9424,1.9424,1.9424,1.9424,1.9424,1.9424,1.9424,1.9424,1.9424,1.9424,1.9424,1.9424,0.0,0.0,1.9444,1.9633,1.9733,1.9733,1.9733,1.9733,1.97,1.9459,1.9424,1.9424,1.9424,1.8525,1.7085,1.5488,1.3885,1.2808,1.4183,1.3651,1.2633,1.2868,1.3765,1.4663,1.4896,1.4693,1.4073,1.2696,1.3308,1.3393,1.0697,1.1025,1.1422,0.9918,0.9458,0.9245,0.8971,0.8898,0.8885,0.8885,0.8885,0.8885,0.8885,0.8885,0.8885,0.8885,0.8885,0.8885,0.8885,0.8885,0.8885,0.8885,0.8885,0.8885,0.8885,0.8885,0.8885,0.8885,0.8885,0.8885,0.8885,0.8885,0.8885,0.8885,0.8885,0.8885,1.6109,1.5784,1.5784,1.5784,1.5784,1.5784,1.5784,1.5784,1.5784,1.5784,1.5784,1.5784,1.5784,1.5784,1.5784,1.5784,1.6286,1.686,1.7495,1.8103,1.8597,1.8885,1.9185,1.9424,1.9424,1.9424,1.9424,1.9424,1.9424,1.9424,1.9424,1.9424,1.9424,1.9424,1.9424,1.9424,1.9424,1.9424,1.9424,1.9424,1.9424,1.9424,1.9424,1.9424,1.9424,1.9424,0.0,1.9424,1.943,1.9412,1.9432,1.9432,1.9432,1.9432,1.9491,1.9444,1.9424,1.9424,1.9424,1.9243,1.8765,1.7149,1.5548,1.4307,1.4545,1.4426,1.454,1.5897,1.5488,1.4896,1.6256,1.5639,1.4503,1.4136,1.4177,1.4159,1.3507,1.3557,1.3249,1.1678,1.1247,1.0675,0.9398,0.9018,0.8885,0.8885,0.8885,0.8885,0.8885,0.8885,0.8885,0.8885,0.8885,0.8885,0.8885,0.8885,0.8885,0.8885,0.8885,0.8885,0.8885,0.8885,0.8885,0.8885,0.8885,0.8885,0.8885,0.8885,0.8885,0.8885,0.8885,0.8885,1.7171,1.681,1.6669,1.5967,1.5784,1.5784,1.5784,1.5784,1.5784,1.5784,1.5784,1.5784,1.5784,1.5784,1.5932,1.6253,1.666,1.7208,1.7969,1.8317,1.8657,1.9112,1.9285,1.9424,1.9424,1.9424,1.9424,1.9424,1.9424,1.9424,1.9424,1.9424,1.9424,1.9424,1.9424,1.9424,1.9424,1.9424,1.9424,1.9424,1.9424,1.9424,1.9424,1.9424,1.9424,1.9424,0.0,1.9424,1.9424,1.9424,1.9424,1.9424,1.9424,1.9424,1.9424,1.9424,1.9424,1.9424,1.9424,1.9424,1.9127,1.7507,1.6497,1.5902,1.5902,1.5902,1.6256,1.7864,1.7753,1.7337,1.8104,1.7753,1.695,1.6057,1.6442,1.6588,1.4776,1.4997,1.5072,1.3481,1.2346,1.1423,1.0748,0.9769,0.9055,0.9055,0.8988,0.8885,0.8885,0.8885,0.8885,0.8885,0.8885,0.8885,0.8885,0.8885,0.8885,0.8885,0.8885,0.8885,0.8885,0.8885,0.8885,0.8885,0.8885,0.8885,0.8885,0.8885,0.8885,0.8885,0.8885,0.8885,1.8095,1.7692,1.7412,1.6109,1.5784,1.5784,1.5784,1.5784,1.5784,1.5784,1.5784,1.5784,1.5784,1.5838,1.6126,1.6714,1.7112,1.7594,1.8377,1.8551,1.8784,1.9363,1.9424,1.9424,1.9424,1.9424,1.9424,1.9424,1.9424,1.9424,1.9424,1.9424,1.9424,1.9424,1.9424,1.9424,1.9424,1.9424,1.9424,1.9424,1.9424,1.9424,1.9424,1.9424,1.9424,1.9424,1.9424,1.9424,1.9424,1.9424,1.9424,1.9424,1.9424,1.9424,1.9424,1.9424,1.9424,1.9424,1.9424,1.9424,1.9185,1.7981,1.7325,1.7085,1.7443,1.7325,1.7325,1.8946,1.9424,1.9424,1.9424,1.9424,1.9068,1.7864,1.8519,1.8706,1.6267,1.6576,1.6898,1.5331,1.3876,1.2816,1.2475,1.1289,1.0201,0.9829,0.9612,0.9359,0.8944,0.8885,0.8885,0.8885,0.8885,0.8885,0.8885,0.8885,0.8885,0.8885,0.8885,0.8885,0.8885,0.8885,0.8885,0.8885,0.8885,0.8898,0.8988,0.8988,0.8988,0.8988,0.8988,0.8971,1.8319,1.7692,1.7412,1.6109,1.5784,1.5784,1.5784,1.5784,1.5784,1.5784,1.5784,1.5784,1.5784,1.6052,1.6482,1.7072,1.7414,1.7769,1.8404,1.8724,1.9011,1.939,1.9424,1.9424,1.9424,1.9424,1.9424,1.9424,1.9424,1.9424,1.9424,1.9424,1.9424,1.9424,1.9424,1.9424,1.9424,1.9424,1.9424,1.9424,1.9424,1.9424,1.9424,1.9424,1.9424,1.9424,1.9424,1.9424,1.9424,1.9424,1.9424,1.9424,1.9424,1.9424,1.9424,1.9424,1.9424,1.9424,1.9424,1.9424,1.9366,1.9243,1.8227,1.7267,1.8765,1.8163,1.7325,1.8946,1.9424,1.9424,1.9424,1.9424,1.9366,1.9249,1.9307,1.9366,1.9127,1.9113,1.8732,1.712,1.6547,1.5908,1.4472,1.3934,1.3205,1.1574,1.1311,1.0747,0.912,0.8885,0.8885,0.8885,0.8885,0.8885,0.8885,0.8885,0.8885,0.8885,0.8885,0.8885,0.8885,0.8885,0.8885,0.8885,0.8885,0.9005,0.9193,0.9193,0.9193,0.9193,0.9193,0.9066,2.0395,1.9943,1.9625,1.8395,1.7529,1.6756,1.5967,1.5784,1.5784,1.5784,1.5979,1.6159,1.6339,1.662,1.6938,1.7166,1.7555,1.8016,1.843,1.8738,1.9032,1.939,1.9424,1.9424,1.9424,1.9424,1.9424,1.9424,1.9424,1.9424,1.9424,1.9424,1.9424,1.9424,1.9424,1.9424,1.9424,1.9424,1.9424,1.9424,1.9424,1.9424,1.9424,1.9424,1.9424,1.9424,1.9424,1.9424,1.9424,1.9424,1.9424,1.9424,1.9424,1.9424,1.9424,1.9424,1.9424,1.9424,1.9424,1.9424,1.9424,1.9424,1.9004,1.8583,1.9249,1.9004,1.8648,1.9243,1.9424,1.9424,1.9424,1.9424,1.9424,1.9424,1.9424,1.9424,1.9424,1.9424,1.9243,1.8583,1.7597,1.6698,1.6115,1.5035,1.4051,1.3394,1.226,1.1247,1.0628,0.9595,0.8885,0.8885,0.8885,0.8885,0.8885,0.8885,0.8885,0.8885,0.8885,0.8885,0.8885,0.8885,0.8885,0.8885,0.9025,0.91,0.921,0.9306,0.9354,0.9354,0.9354,0.9215,2.1614,2.1293,2.1025,1.9807,1.8864,1.7956,1.6709,1.6109,1.5804,1.5952,1.6206,1.65,1.6794,1.7065,1.7233,1.7326,1.7796,1.8257,1.8464,1.8818,1.9138,1.9339,1.9424,1.9424,1.9424,1.9424,1.9424,1.9424,1.9424,1.9424,1.9424,1.9424,1.9424,1.9424,1.9424,1.9424,1.9424,1.9424,1.9424,1.9424,1.9424,1.9424,1.9424,1.9424,1.9424,1.9424,1.9424,1.9424,1.9424,1.9424,1.9424,1.9424,1.9424,1.9424,1.9424,1.9424,1.9424,1.9424,1.9424,1.9424,1.9424,1.9424,1.9424,1.9424,1.9424,1.9424,1.9424,1.9424,1.9424,1.9424,1.9424,1.9424,1.9424,1.9424,1.9424,1.9424,1.9424,1.9424,1.9424,1.9424,1.8525,1.7747,1.7747,1.6768,1.5806,1.5198,1.3997,1.2932,1.237,1.1197,1.0189,0.9647,0.9154,0.8885,0.8885,0.8885,0.8885,0.8885,0.8885,0.8885,0.8885,0.8885,0.8885,0.8885,0.9079,0.9234,0.9282,0.9381,0.9452,0.9452,0.9452,0.9371,2.1658,2.1337,2.1025,1.9852,1.9542,1.9222,1.801,1.6763,1.5919,1.6219,1.6513,1.68,1.7146,1.7206,1.73,1.7535,1.8096,1.849,1.849,1.8998,1.9424,1.9424,1.9424,1.9424,1.9424,1.9424,1.9424,1.9424,1.9424,1.9424,1.9424,1.9424,1.9424,1.9424,1.9424,1.9424,1.9424,1.9424,1.9424,1.9424,1.9424,1.9424,1.9424,1.9424,1.9424,1.9424,1.9424,1.9424,1.9424,1.9424,1.9424,1.9424,1.9424,1.9424,1.9424,1.9424,1.9424,1.9424,1.9424,1.9424,1.9424,1.9424,1.9424,1.9424,1.9424,1.9424,1.9424,1.9424,1.9424,1.9424,1.9424,1.9424,1.9424,1.9424,1.9424,1.9424,1.9424,1.9424,1.9424,1.9424,1.9424,1.9424,1.9424,1.9424,1.8783,1.7017,1.6683,1.6069,1.4344,1.3897,1.3016,1.1291,0.9809,0.894,0.8885,0.8885,0.8885,0.8885,0.8885,0.8885,0.8885,0.8885,0.8885,0.8885,0.9083,0.9286,0.9381,0.9537,0.9612,0.9612,0.9612,0.953,2.2677,2.2589,2.2492,2.2129,2.14,2.0736,2.0712,1.9004,1.7334,1.6981,1.7012,1.7159,1.7454,1.7507,1.7534,1.7569,1.8096,1.849,1.849,1.8998,1.9424,1.9424,1.9424,1.9424,1.9424,1.9424,1.9424,1.9424,1.9424,1.9424,1.9424,1.9424,1.9424,1.9424,1.9424,1.9424,1.9424,1.9424,1.9424,1.9424,1.9158,1.9165,1.9424,1.9424,1.9424,1.9424,1.9424,1.9424,1.9424,1.9424,1.9424,1.9424,1.9424,1.9424,1.9424,1.9424,1.9424,1.9424,1.9424,1.9424,1.9424,1.9424,1.9424,1.9424,1.9424,1.9424,1.9424,1.9424,1.9424,1.9424,1.9424,1.9424,1.9424,1.9424,1.9424,1.9424,1.9424,1.9424,1.9424,1.9424,1.9424,1.9424,1.9424,1.9424,1.9216,1.8706,1.751,1.6069,1.4344,1.3897,1.3125,1.1526,1.08,1.0025,0.8992,0.8885,0.8885,0.8885,0.8885,0.8885,0.8885,0.8885,0.8885,0.8885,0.9184,0.9337,0.9381,0.9635,0.9758,0.9758,0.9758,0.968,2.3091,2.3091,2.3091,2.3091,2.2536,2.2047,2.2124,2.0276,1.8284,1.7374,1.7293,1.7427,1.7549,1.7582,1.7582,1.7582,1.8096,1.849,1.849,1.8998,1.9424,1.9424,1.9424,1.9424,1.9424,1.9424,1.9424,1.9424,1.9424,1.9424,1.9424,1.9424,1.9424,1.9424,1.9424,1.9424,1.9424,1.9252,1.9192,1.9185,1.8891,1.8844,1.9025,1.9138,1.9192,1.9199,1.9319,1.9424,1.9424,1.9424,1.9424,1.9424,1.9424,1.9424,1.9424,1.9424,1.9424,1.9424,1.9424,1.9424,1.9424,1.9424,1.9424,1.9424,1.9424,1.9424,1.9424,1.9424,1.9424,1.9424,1.9424,1.9424,1.9424,1.9424,1.9424,1.9424,1.9424,1.9424,1.9424,1.9424,1.9424,1.9424,1.9424,1.9424,1.9424,1.9424,1.8494,1.734,1.6148,1.5355,1.4494,1.3511,1.2172,1.097,1.0021,0.9353,0.8998,0.8888,0.8885,0.8885,0.8885,0.8885,0.8885,0.8885,0.9232,0.9381,0.9381,0.9676,0.9822,0.9822,0.9822,0.9774,2.3091,2.3091,2.3091,2.3091,2.3149,2.3047,2.2535,2.094,1.9237,1.7893,1.7707,1.7786,1.7786,1.7687,1.7582,1.7582,1.8096,1.849,1.849,1.8998,1.9424,1.9424,1.9424,1.9424,1.9424,1.9424,1.9424,1.9424,1.9424,1.9424,1.9424,1.9424,1.9424,1.9424,1.9424,1.941,1.9325,1.9058,1.8911,1.8878,1.8591,1.845,1.8464,1.8751,1.8898,1.8938,1.9239,1.9424,1.9424,1.9424,1.9424,1.9424,1.9424,1.9424,1.9424,1.9424,1.9424,1.9424,1.9424,1.9424,1.9424,1.9424,1.9424,1.9424,1.9424,1.9424,1.9424,1.9424,1.9424,1.9424,1.9424,1.9424,1.9424,1.9424,1.9424,1.9424,1.9424,1.9424,1.9424,1.9424,1.9424,1.9424,1.9424,1.9424,1.9424,1.9424,1.9424,1.9272,1.8998,1.7754,1.6771,1.6414,1.3885,1.2047,1.1591,1.0235,0.9286,0.8988,0.8925,0.9033,0.9141,0.9006,0.8885,0.8885,0.9232,0.9381,0.9381,0.9676,0.9822,0.9822,0.9822,0.9879,2.3091,2.3091,2.3091,2.3091,2.3598,2.3813,2.2662,2.2567,2.2347,2.103,1.9876,1.9169,1.9169,1.8297,1.7582,1.7582,1.8096,1.849,1.849,1.8998,1.9424,1.9424,1.9424,1.9424,1.9424,1.9424,1.9424,1.9424,1.9424,1.9424,1.9424,1.9424,1.9424,1.9424,1.9424,1.9259,1.9018,1.8958,1.8804,1.8577,1.8283,1.8089,1.8102,1.845,1.8704,1.8938,1.9239,1.9424,1.9424,1.9424,1.9424,1.9424,1.9424,1.9424,1.9424,1.9424,1.9424,1.9424,1.9424,1.9424,1.9424,1.9424,1.9424,1.9424,1.9424,1.9424,1.9424,1.9424,1.9424,1.9424,1.9424,1.9424,1.9424,1.9424,1.9424,1.9424,1.9424,1.9424,1.9424,1.9424,1.9424,1.9424,1.9424,1.9424,1.9424,1.9424,1.9424,1.9345,1.9279,1.8772,1.7957,1.684,1.5852,1.4359,1.1951,1.1437,1.0685,0.9401,0.9286,0.9853,1.1098,0.9727,0.8885,0.8885,0.9232,0.9381,0.9381,0.9676,0.9822,0.9822,0.9822,1.0479,2.3091,2.3091,2.3091,2.3091,2.3633,2.3977,2.3467,2.3898,2.421,2.3696,2.1456,1.9576,1.9576,1.8506,1.7582,1.7582,1.8096,1.849,1.849,1.8998,1.9424,1.9424,1.9424,1.9707,2.0364,2.0479,2.0759,2.143,2.0873,2.0479,2.0479,1.9758,1.9424,1.9424,1.9232,1.9078,1.8925,1.8588,1.8375,1.8277,1.7969,1.7822,1.7836,1.8136,1.8437,1.8731,1.9032,1.9158,1.9165,1.9305,1.9424,1.9424,1.9424,1.9424,1.9424,1.9424,1.9424,1.9424,1.9424,1.9424,1.9424,1.9424,1.9424,1.9424,1.9424,1.9424,1.9424,1.9424,1.9424,1.9424,1.9424,1.9424,1.9424,1.9424,1.9424,1.9424,1.9424,1.9424,1.9424,1.9424,1.9424,1.9424,1.9424,1.9424,1.9424,1.9424,1.9424,1.9424,1.9424,1.9232,1.8838,1.8122,1.7225,1.5932,1.4266,1.3461,1.2675,1.1721,1.1655,1.2056,1.2851,1.192,1.1367,1.1367,1.1646,1.1794,1.1794,1.2018,1.2097,1.2097,1.2097,1.2573,2.3091,2.3091,2.3091,2.3091,2.3467,2.3887,2.4228,2.4697,2.5176,2.5547,2.2783,2.0238,2.0033,1.8864,1.7891,1.7635,1.805,1.841,1.841,1.8878,1.9219,1.9219,1.9219,1.9844,2.1383,2.1553,2.2117,2.3564,2.2559,2.1756,2.1414,2.0266,1.9493,1.9269,1.8978,1.8824,1.8771,1.8235,1.7962,1.7909,1.7702,1.7582,1.7589,1.7849,1.813,1.843,1.8724,1.8844,1.8871,1.9165,1.9292,1.9299,1.941,1.9424,1.9424,1.9424,1.9424,1.9424,1.9424,1.9424,1.9424,1.9424,1.9424,1.9424,1.9424,1.9424,1.9424,1.9424,1.9424,1.9424,1.9424,1.9424,1.9424,1.9424,1.9424,1.9424,1.9424,1.9424,1.9424,1.9424,1.9424,1.9424,1.9424,1.9424,1.9424,1.9424,1.9424,1.9424,1.9424,1.9424,1.9424,1.9424,1.8227,1.7229,1.6771,1.5594,1.4645,1.4219,1.4209,1.4323,1.4609,1.4609,1.4722,1.5007,1.4588,1.4381,1.4381,1.4552,1.4604,1.4604,1.4604,1.4723,2.3091,2.3091,2.3091,2.3091,2.3467,2.3809,2.3857,2.4492,2.5135,2.5194,2.4094,2.2826,2.1651,2.0282,1.8961,1.7793,1.7876,1.8049,1.8049,1.8397,1.8611,1.8611,1.8611,1.9299,2.1082,2.1279,2.1827,2.3204,2.3094,2.23,2.0756,2.0475,1.9838,1.866,1.8571,1.8424,1.8115,1.8035,1.7856,1.7642,1.7602,1.7582,1.7582,1.7622,1.7809,1.8069,1.8417,1.8551,1.8571,1.8865,1.8985,1.9011,1.9265,1.9424,1.9424,1.9424,1.9424,1.9424,1.9424,1.9424,1.9424,1.9424,1.9424,1.9424,1.9424,1.9424,1.9424,1.9424,1.9424,1.9424,1.9424,1.9424,1.9424,1.9424,1.9424,1.9424,1.9424,1.9424,1.9424,1.9424,1.9424,1.9424,1.9424,1.9424,1.9424,1.9424,1.9424,1.9424,1.9424,1.9424,1.9424,1.9424,1.9185,1.8506,1.7096,1.6792,1.6071,1.4631,1.4513,1.5157,1.6564,1.6628,1.7282,1.8648,1.587,1.4381,1.4381,1.4552,1.4604,1.4604,1.4604,1.537,2.3091,2.3091,2.3091,2.3091,2.3237,2.3486,2.374,2.4082,2.4482,2.5018,2.4766,2.4124,2.3032,2.1702,2.059,1.9973,2.0113,2.0295,2.0295,2.0573,2.073,2.073,2.073,2.1372,2.3071,2.3248,2.3783,2.5196,2.4545,2.3395,2.1848,2.0932,1.9866,1.8546,1.833,1.8129,1.7995,1.7876,1.7716,1.7582,1.7582,1.7582,1.7582,1.7582,1.7655,1.7802,1.811,1.8243,1.8263,1.8564,1.8684,1.8691,1.8824,1.8978,1.9118,1.9118,1.9225,1.9424,1.9424,1.9424,1.9424,1.9424,1.9424,1.9424,1.9424,1.9424,1.9424,1.9424,1.9424,1.9424,1.9424,1.9424,1.9424,1.9424,1.9424,1.9424,1.9424,1.9424,1.9424,1.9424,1.9424,1.9424,1.9424,1.9424,1.9424,1.9424,1.9424,1.9424,1.9424,1.9424,1.9424,1.9424,1.9424,1.9127,1.8402,1.8344,1.8046,1.7337,1.7279,1.7636,1.8344,1.8344,1.8706,1.9366,1.7933,1.7222,1.7222,1.7277,1.7279,1.7279,1.7279,1.7695,2.3091,2.3091,2.3091,2.3091,2.3091,2.3179,2.3555,2.3711,2.3965,2.4656,2.4824,2.4735,2.4161,2.3056,2.2106,2.1752,2.189,2.202,2.202,2.2146,2.231,2.231,2.231,2.2921,2.4494,2.4659,2.5297,2.6744,2.5839,2.4571,2.3053,2.1571,2.0206,1.8843,1.8198,1.7876,1.7876,1.7695,1.7582,1.7582,1.7582,1.7582,1.7582,1.7582,1.7582,1.7595,1.7829,1.7876,1.7896,1.8257,1.8377,1.8384,1.8464,1.8624,1.8818,1.8818,1.8998,1.9259,1.9259,1.9305,1.9424,1.9424,1.9424,1.9424,1.9424,1.9424,1.9424,1.9424,1.9424,1.9424,1.9424,1.9424,1.9424,1.9424,1.9424,1.9424,1.9424,1.9424,1.9424,1.9424,1.9424,1.9424,1.9424,1.9424,1.9424,1.9424,1.9424,1.9424,1.9424,1.9424,1.9424,1.9424,1.9424,1.9424,1.9424,1.9424,1.9424,1.9424,1.9424,1.9424,1.9424,1.9424,1.9424,1.9424,1.9424,1.9424,1.9424,1.9424,1.9424,1.9424,1.9424,1.9424,2.3091,2.3091,2.3091,2.3091,2.3091,2.3101,2.312,2.3496,2.3799,2.3848,2.417,2.458,2.4972,2.4231,2.3176,2.1904,2.1718,2.1726,2.1726,2.1743,2.1759,2.1759,2.1759,2.2401,2.4158,2.4347,2.4932,2.6316,2.6366,2.5564,2.3723,2.2367,2.0995,1.9583,1.8279,1.7609,1.7609,1.7589,1.7582,1.7582,1.7582,1.7582,1.7582,1.7582,1.7582,1.7582,1.7602,1.7609,1.7629,1.7889,1.8015,1.8042,1.8384,1.8504,1.851,1.851,1.8698,1.8945,1.8945,1.9132,1.9424,1.9424,1.9424,1.9424,1.9424,1.9424,1.9424,1.9424,1.9424,1.9424,1.9424,1.9424,1.9424,1.9424,1.9424,1.9424,1.9424,1.9424,1.9424,1.9424,1.9424,1.9424,1.9424,1.9424,1.9424,1.9424,1.9424,1.9424,1.9424,1.9424,1.9424,1.9424,1.9424,1.9424,1.9424,1.9424,1.9424,1.9424,1.9424,1.9424,1.9424,1.9424,1.9424,1.9424,1.9424,1.9424,1.9424,1.9424,1.9424,1.9424,1.9424,1.9424,2.3091,2.3091,2.3091,2.3091,2.3091,2.3091,2.3091,2.3218,2.3457,2.373,2.3906,2.415,2.457,2.4612,2.4542,2.4307,2.4254,2.4254,2.4254,2.4254,2.4254,2.4254,2.4254,2.4507,2.5121,2.5189,2.5397,2.5918,2.5967,2.528,2.38,2.3226,2.2366,2.099,2.0487,1.9775,1.8916,1.8048,1.7582,1.7582,1.7582,1.7582,1.7582,1.7582,1.7582,1.7582,1.7582,1.7582,1.7589,1.7702,1.7749,1.7756,1.7862,1.8029,1.8203,1.8203,1.839,1.8644,1.8644,1.8718,1.8804,1.8804,1.8804,1.8838,1.9025,1.9085,1.9125,1.9312,1.9424,1.9424,1.9424,1.9424,1.9424,1.9424,1.9424,1.9424,1.9424,1.9424,1.9424,1.9424,1.9424,1.9424,1.9424,1.9424,1.9424,1.9424,1.9424,1.9424,1.9424,1.9424,1.9424,1.9424,1.9424,1.9424,1.9424,1.9424,1.9424,1.9424,1.9424,1.9424,1.9424,1.9424,1.9424,1.9424,1.9424,1.9424,1.9424,1.9424,1.9424,1.9424,1.9424,1.9424,2.3091,2.3091,2.3091,2.3091,2.3091,2.3091,2.3091,2.3091,2.3179,2.3516,2.3574,2.3701,2.4121,2.4443,2.4785,2.5225,2.542,2.5518,2.5518,2.5596,2.5693,2.5693,2.5693,2.5693,2.5693,2.5693,2.5693,2.5693,2.5693,0.0,2.4402,2.3939,2.3076,2.1752,2.1245,2.0538,1.9627,1.8251,1.7582,1.7582,1.7582,1.7582,1.7582,1.7582,1.7582,1.7582,1.7582,1.7582,1.7582,1.7582,1.7582,1.7582,1.7582,1.7709,1.7889,1.7889,1.8083,1.8343,1.8343,1.8404,1.849,1.849,1.849,1.8524,1.8724,1.8778,1.8838,1.9132,1.9219,1.9239,1.9339,1.9424,1.9424,1.9424,1.9424,1.9424,1.9424,1.9424,1.9424,1.9424,1.9424,1.9424,1.9424,1.9424,1.9424,1.9424,1.9424,1.9424,1.9424,1.9424,1.9424,1.9424,1.9424,1.9424,1.9424,1.9424,1.9424,1.9424,1.9424,1.9424,1.9424,1.9424,1.9424,1.9424,1.9424,1.9424,1.9424,1.9424,1.9424,1.9424,1.9424,1.9424,0.0,0.0,0.0,2.3091,2.3091,2.3091,2.3091,2.3091,2.3091,2.3091,2.3091,2.3227,2.3691,2.3769,2.3906,2.4316,2.4756,2.5096,2.5096,2.543,2.5645,2.5645,2.5645,2.5654,2.5664,2.5664,2.5674,2.5693,2.5693,2.5693,2.5693,2.4461,2.3176,2.1853,2.0436,1.9731,1.9731,1.8349,1.7687,1.7687,1.7635,1.7582,1.7582,1.7582,1.7582,1.7582,1.7582,1.7582,1.7582,1.7582,1.7582,1.7582,1.7582,1.7582,1.7582,1.7582,1.7776,1.7975,1.7975,1.8223,1.8464,1.8464,1.8464,1.8464,1.8477,1.8477,1.8537,1.8831,1.8911,1.8978,1.9279,1.9417,1.9424,1.9424,1.9424,1.9424,1.9424,1.9424,1.9424,1.9424,1.9424,1.9424,1.9424,1.9424,1.9424,1.9424,1.9424,1.9424,1.9424,1.9424,1.9424,1.9424,1.9424,1.9424,1.9424,1.9424,1.9424,1.9424,1.9424,1.9424,1.9424,1.9424,1.9424,1.9424,1.9424,1.9424,1.9424,1.9424,1.9424,1.9424,1.9424,1.9424,2.3091,0.0,0.0,0.0,0.0,0.0,2.3091,2.3091,2.3091,2.3091,2.3091,2.313,2.3257,2.3276,2.3315,2.3432,2.4121,2.459,2.459,2.4707,2.4738,2.4738,2.4738,2.4902,2.5225,2.5254,2.5391,0.0,2.5693,2.5693,2.5693,2.5333,2.4971,2.4609,2.3285,2.2576,2.2576,2.0238,1.9065,1.9013,1.8042,1.7582,1.7582,1.7582,1.7582,1.7582,1.7582,1.7582,1.7582,1.7582,1.7582,1.7582,1.7582,1.7582,1.7582,1.7582,1.7635,1.7709,1.7709,1.7769,1.7836,1.7836,1.7836,1.7876,1.8103,1.8115,1.8175,1.8531,1.8611,1.8677,1.8971,1.9205,1.9424,1.9424,1.9424,1.9424,1.9424,1.9424,1.9424,1.9424,1.9424,1.9424,1.9424,1.9424,1.9424,1.9424,1.9424,1.9424,1.9424,1.9424,1.9424,1.9424,1.9424,1.9424,1.9424,1.9424,1.9424,1.9424,1.9424,1.9424,1.9424,1.9424,1.9424,1.9424,1.9424,1.9424,1.9424,1.9424,1.9424,1.9424,1.9424,1.9424,0.0,0.0,0.0,2.3091,0.0,0.0,2.3091,2.3091,2.3091,2.3091,2.3091,2.3091,2.3091,2.3091,2.3091,2.3091,2.351,2.3945,2.4131,2.4307,2.4414,2.4414,2.4414,2.4521,2.4775,2.4795,2.4912,2.5118,2.5138,2.5264,2.5449,2.5586,2.5693,2.5693,2.4402,2.3434,2.2868,2.0692,1.9324,1.876,1.7989,1.7582,1.7582,1.7582,1.7582,1.7582,1.7582,1.7582,1.7582,1.7582,1.7582,1.7582,1.7582,1.7582,1.7582,1.7582,1.7582,1.7582,1.7582,1.7582,1.7582,1.7582,1.7582,1.7615,1.7796,1.7856,1.7916,1.8223,1.8484,1.8711,1.8878,1.9145,1.9424,1.9424,1.9424,1.9424,1.9424,1.9424,1.9424,1.9424,1.9424,1.9424,1.9424,1.9424,1.9424,1.9424,1.9424,1.9424,1.9424,1.9424,1.9424,1.9424,1.9424,1.9424,1.9424,1.9424,1.9424,1.9424,1.9424,1.9424,1.9424,1.9424,1.9424,1.9424,1.9424,1.9424,1.9424,1.9424,1.9424,1.9424,1.9424,1.9424,0.0,0.0,0.0,0.0,2.3091,0.0,2.3091,2.3091,2.3091,2.3091,2.3091,2.3091,2.3091,2.3091,2.3091,2.3091,2.3091,2.3227,2.3662,2.4043,2.4277,2.4277,2.4277,2.4297,2.4346,2.4346,2.4365,2.4414,2.4414,2.459,2.5018,2.542,2.5615,2.5615,2.4531,2.3335,2.2156,2.059,1.922,1.8042,1.7733,1.7582,1.7582,1.7582,1.7582,1.7582,1.7582,1.7582,1.7582,1.7582,1.7582,1.7582,1.7582,1.7582,1.7582,1.7582,1.7582,1.7582,1.7582,1.7582,1.7582,1.7582,1.7582,1.7582,1.7582,1.7582,1.7642,1.7862,1.8342,1.8831,1.8865,1.9092,1.9325,1.9417,1.9424,1.9424,1.9424,1.9424,1.9424,1.9424,1.9424,1.9424,1.9424,1.9424,1.9424,1.9424,1.9424,1.9424,1.9424,1.9424,1.9424,1.9424,1.9424,1.9424,1.9424,1.9424,1.9424,1.9424,1.9424,1.9424,1.9424,1.9424,1.9424,1.9424,1.9424,1.9424,1.9424,1.9424,1.9424,1.9424,1.9424,1.9424,0.0,0.0,0.0,0.0,2.3091,0.0,2.3091,2.3091,2.3091,2.3091,2.3091,2.3091,2.3091,2.3091,2.3091,2.3091,2.3091,2.312,2.3208,2.3296,2.3344,2.3344,2.3344,2.3481,2.3877,2.3906,2.4053,2.4394,2.4414,2.4453,2.4541,2.4961,2.5195,2.5195,2.5295,2.5177,2.4913,2.2517,2.1143,2.0888,1.8655,1.7582,1.7582,1.7582,1.7582,1.7582,1.7582,1.7582,1.7582,1.7582,1.7582,1.7582,1.7582,1.7582,1.7582,1.7582,1.7582,1.7582,1.7582,1.7582,1.7582,1.7582,1.7582,1.7582,1.7582,1.7582,1.7595,1.7655,1.7923,1.825,1.851,1.8791,1.9072,1.9312,1.9424,1.9424,1.9424,1.9424,1.9424,1.9424,1.9424,1.9424,1.9424,1.9424,1.9424,1.9424,1.9424,1.9424,1.9424,1.9424,1.9424,1.9424,1.9424,1.9424,1.9424,1.9424,1.9424,1.9424,1.9424,1.9424,1.9424,1.9424,1.9424,1.9424,1.9424,1.9424,1.9424,1.9424,1.9424,1.9424,1.9424,1.9424,0.0,0.0,0.0,2.3091,0.0,0.0,0.0,2.3091,2.3091,2.3091,2.3091,2.3091,2.3091,2.3091,2.3091,2.3091,2.3091,2.3091,2.3091,2.3091,2.3091,2.3091,2.3091,2.3179,2.3447,2.3467,2.3545,2.376,2.3984,2.4102,2.4102,2.4512,2.4844,2.5106,2.5283,2.516,2.4707,2.2717,2.1347,2.0641,1.8603,1.7582,1.7582,1.7582,1.7582,1.7582,1.7582,1.7582,1.7582,1.7582,1.7582,1.7582,1.7582,1.7582,1.7582,1.7582,1.7582,1.7582,1.7582,1.7582,1.7582,1.7582,1.7582,1.7582,1.7582,1.7582,1.7582,1.7582,1.7789,1.809,1.8404,1.8704,1.8998,1.9299,1.9424,1.9424,1.9424,1.9424,1.9424,1.9424,1.9424,1.9424,1.9424,1.9424,1.9424,1.9424,1.9424,1.9424,1.9424,1.9424,1.9424,1.9424,1.9424,1.9424,1.9424,1.9424,1.9424,1.9424,1.9424,1.9424,1.9424,1.9424,1.9424,1.9424,1.9424,1.9424,1.9424,1.9424,1.9424,1.9424,1.9424,1.9424,0.0,0.0,0.0,0.0,0.0,2.3091,0.0,0.0,0.0,2.3091,2.3091,2.3091,2.3091,2.3091,0.0,2.3091,0.0,0.0,0.0,2.3091,0.0,2.3091,2.3091,2.3091,2.3091,2.3091,2.3091,2.3091,2.3467,2.3662,2.3662,2.4062,2.4453,2.4861,2.5028,2.4737,2.3969,2.2733,2.1499,2.0392,1.876,1.7996,1.7996,1.774,1.7582,1.7582,1.7582,1.7582,1.7582,1.7582,1.7582,1.7582,1.7582,1.7582,1.7582,1.7582,1.7582,1.7582,1.7582,1.7582,1.7582,1.7582,1.7582,1.7582,1.7582,1.7582,1.7582,1.7582,1.7749,1.8016,1.839,1.8664,1.8931,1.9285,1.9424,1.9424,1.9424,1.9424,1.9424,1.9424,1.9424,1.9424,1.9424,1.9424,1.9424,1.9424,1.9424,1.9424,1.9424,1.9424,1.9424,1.9424,1.9424,1.9424,1.9424,1.9424,1.9424,1.9424,1.9424,1.9424,1.9424,1.9424,1.9424,1.9424,1.9424,1.9424,1.9424,1.9424,1.9424,1.9424,1.9424,1.9424,0.0,0.0,0.0,0.0,2.3091,0.0,2.3091,0.0,2.3091,2.3091,0.0,2.3091,2.3091,0.0,0.0,0.0,0.0,0.0,2.3091,2.3091,2.3091,2.3091,2.3091,2.3091,2.3091,2.3091,2.3091,2.3091,2.314,2.3169,2.3169,2.3623,2.3887,2.3935,2.4724,2.504,2.4946,2.3963,2.3384,2.3176,2.059,1.9369,1.9324,1.8146,1.7582,1.7582,1.7582,1.7582,1.7582,1.7582,1.7582,1.7582,1.7582,1.7582,1.7582,1.7582,1.7582,1.7582,1.7582,1.7582,1.7582,1.7582,1.7582,1.7582,1.7582,1.7582,1.7582,1.7582,1.7609,1.7762,1.8343,1.8517,1.8677,1.9239,1.9424,1.9424,1.9424,1.9424,1.9424,1.9424,1.9424,1.9424,1.9424,1.9424,1.9424,1.9424,1.9424,1.9424,1.9424,1.9424,1.9424,1.9424,1.9424,1.9424,1.9424,1.9424,1.9424,1.9424,1.9424,1.9424,1.9424,1.9424,1.9424,1.9424,1.9424,1.9424,1.9424,1.9424,1.9424,1.9424,1.9424,1.9424,0.0,0.0,0.0,0.0,0.0,0.0,2.3091,0.0,2.3091,0.0,0.0,0.0,0.0,0.0,0.0,0.0,2.3091,2.3091,0.0,0.0,2.3091,2.3091,0.0,0.0,2.3091,2.3091,2.3091,2.3091,2.3091,2.3091,2.3091,2.331,2.3525,2.3779,2.4141,2.4607,2.5106,2.3899,2.3408,2.3692,2.0896,1.9576,1.9524,1.8192,1.7582,1.7635,1.8401,1.8304,1.7687,1.8454,1.8297,1.7582,1.7582,1.7582,1.7582,1.7582,1.7582,1.7582,1.7582,1.7582,1.7582,1.7582,1.7582,1.7582,1.7582,1.7582,1.7582,1.7582,1.7582,1.7722,1.833,1.849,1.8637,1.929,1.9424,1.9424,1.9424,1.9424,1.9424,1.9424,1.9424,1.9424,1.9424,1.9424,1.9424,1.9424,1.9424,1.9424,1.9424,1.9424,1.9424,1.9424,1.9424,1.9424,1.9424,1.9424,1.9424,1.9424,1.9424,1.9424,1.9424,1.9424,1.9424,1.9424,1.9424,1.9424,1.9424,1.9424,1.9424,1.9424,1.9424,1.9424,2.3464,0.0,0.0,0.0,0.0,0.0,0.0,0.0,0.0,0.0,0.0,0.0,0.0,0.0,0.0,0.0,0.0,2.3091,0.0,2.3091,0.0,2.3091,0.0,0.0,0.0,2.3091,2.3091,2.3091,2.3091,2.3091,2.3091,2.3091,2.3247,2.3603,2.3721,2.4082,2.4763,2.3965,2.3736,2.4079,2.1812,2.0743,2.0649,1.8961,1.8146,1.8199,1.8812,1.8506,1.7681,1.9065,1.8812,1.7635,1.7989,1.7937,1.7582,1.7582,1.7582,1.7582,1.7582,1.7582,1.7582,1.7582,1.7582,1.7582,1.7582,1.7582,1.7582,1.7582,1.7642,1.7829,1.8357,1.8551,1.8738,1.9245,1.9424,1.9424,1.9424,1.9424,1.9424,1.9424,1.9424,1.9424,1.9424,1.9424,1.9424,1.9424,1.9424,1.9424,1.9424,1.9424,1.9424,1.9424,1.9424,1.9424,1.9424,1.9424,1.9424,1.9424,1.9424,1.9424,1.9424,1.9424,1.9424,1.9424,1.9424,1.9424,1.9424,1.9424,1.9424,1.9424,1.9424,1.9424,0.0,0.0,0.0,2.4457,0.0,0.0,0.0,0.0,2.3091,0.0,0.0,0.0,0.0,0.0,0.0,0.0,0.0,0.0,0.0,2.3091,2.3091,2.3091,2.3091,0.0,0.0,2.3091,2.3091,2.3091,2.3091,2.3091,2.3091,2.3091,2.3101,2.311,2.3574,2.3799,2.3828,2.4648,2.5021,2.504,2.4051,2.3583,2.3484,2.0743,1.9524,1.9472,1.8199,1.7635,1.7681,1.9065,1.8812,1.7733,1.902,1.876,1.7582,1.7582,1.7582,1.7582,1.7582,1.7582,1.7582,1.7582,1.7582,1.7582,1.7582,1.7582,1.7582,1.7582,1.7802,1.8049,1.841,1.8698,1.8985,1.9292,1.9424,1.9424,1.9424,1.9424,1.9424,1.9424,1.9424,1.9424,1.9424,1.9424,1.9424,1.9424,1.9424,1.9424,1.9424,1.9424,1.9424,1.9424,1.9424,1.9424,1.9424,1.9424,1.9424,1.9424,1.9424,1.9424,1.9424,1.9424,1.9424,1.9424,1.9424,1.9424,1.9424,1.9424,1.9424,1.9424,1.9424,1.9424,0.0,0.0,2.3178,2.3594,0.0,0.0,0.0,0.0,0.0,0.0,0.0,0.0,0.0,0.0,0.0,0.0,0.0,0.0,0.0,2.3091,2.3091,2.3091,2.3091,2.3091,0.0,0.0,2.3091,2.3091,2.3091,2.3091,2.3091,2.3091,2.3091,2.3091,2.3237,2.3496,2.3789,2.4072,2.4548,2.5068,2.3823,2.3381,2.3642,2.1803,2.0487,1.9627,2.0128,1.9775,1.8968,1.942,1.9324,1.8864,1.8454,1.7989,1.7582,1.7582,1.7582,1.7582,1.7582,1.7582,1.7582,1.7582,1.7582,1.7582,1.7582,1.7722,1.7836,1.7836,1.811,1.841,1.8704,1.8851,1.8998,1.9299,1.9424,1.9424,1.9424,1.9424,1.9424,1.9424,1.9424,1.9424,1.9424,1.9424,1.9424,1.9424,1.9424,1.9424,1.9424,1.9424,1.9424,1.9424,1.9424,1.9424,1.9424,1.9424,1.9424,1.9424,1.9424,1.9424,1.9424,1.9424,1.9866,2.0866,2.0866,2.0866,2.0866,2.182,2.182,2.0866,2.1877,2.1764,2.4787,2.4253,0.0,2.3714,2.3387,0.0,2.3091,0.0,2.3091,0.0,0.0,0.0,0.0,0.0,0.0,0.0,0.0,0.0,0.0,2.3091,2.3091,2.3091,2.3091,2.3091,2.3091,2.3091,2.3091,2.3091,2.3091,2.3091,2.3091,2.3091,2.3091,2.3091,2.3091,2.3227,2.3555,2.3711,2.4141,2.4834,2.4107,2.3994,2.4353,2.3018,2.1912,2.1049,2.0998,2.0743,2.0333,1.9834,1.9576,1.9524,1.8655,1.8042,1.7582,1.7582,1.7582,1.7582,1.7582,1.7582,1.7582,1.7582,1.7582,1.7602,1.7716,1.7883,1.7995,1.7995,1.8337,1.8664,1.8744,1.8925,1.9132,1.9325,1.9424,1.9424,1.9424,1.9424,1.9424,1.9424,1.9424,1.9424,1.9424,1.9424,1.9424,1.9424,1.9424,1.9424,1.9424,1.9424,1.9424,1.9424,1.9424,1.9424,1.9424,1.9424,1.9649,2.0148,2.0206,2.0429,2.0931,2.0988,2.143,2.2363,2.2363,2.2363,2.2363,2.3319,2.3319,2.242,2.3375,2.3599]}]]